GFSSW_850_dewp_000.txt.gz
Dewpoint
-1 0 3 3 3 3 2 2 3 4 5 4 4 5 4 2 -1 5 4 5 10 9 9 8 7 6 6 5 3 2 3 2 -1 -1 -1 -2 -0 -0 0 -1 -2 -2 0 1 0
-2 -0 2 3 4 3 3 2 2 3 3 3 4 4 3 2 0 5 -0 2 9 7 8 7 6 6 7 4 3 2 4 4 -0 -2 1 -0 -0 -0 0 0 -1 -1 -1 0 1
-2 -2 0 2 3 2 2 3 2 2 3 2 3 2 2 2 5 5 -2 -3 7 8 6 6 7 6 6 4 4 3 4 2 2 2 2 0 -0 -0 -0 1 -0 -0 -0 2 3
-2 -1 0 -0 2 2 2 1 1 1 2 3 2 1 2 3 4 2 -3 -5 6 10 7 6 6 6 6 6 5 5 3 2 2 3 2 -0 -1 0 -1 -1 -1 -1 -0 0 2
-1 1 1 1 -0 0 1 1 1 3 2 3 3 1 3 5 3 2 5 -5 2 10 9 8 6 6 6 5 5 5 4 4 3 3 1 -0 -0 0 -1 -1 -2 -1 -0 -1 0
1 0 -1 -1 -1 -2 -3 1 1 2 1 -1 2 1 5 5 -1 4 7 3 -4 9 9 8 6 6 5 6 5 4 2 1 0 -0 -0 0 -0 -0 -1 -1 -2 -2 -1 -1 -1
1 0 -0 0 -0 -2 -3 -3 1 3 3 -1 2 3 5 4 -1 1 6 7 -2 8 10 8 6 6 6 6 4 1 3 2 0 -0 0 -0 -0 -1 -2 -2 -3 -4 -1 -1 -1
2 2 2 2 -0 0 -1 1 -1 2 1 -1 2 5 4 1 -1 2 3 7 5 10 9 7 6 6 6 5 1 1 1 3 0 0 -0 -1 3 -1 -2 -2 -2 -3 -1 -2 -1
4 4 4 3 3 3 -0 -1 -1 -1 -1 -0 4 5 2 0 1 1 4 5 6 10 10 9 8 7 6 5 3 2 4 3 1 -1 -1 -1 1 -2 -2 -2 -3 -2 -3 -3 -3
4 5 5 5 3 4 1 -0 1 3 2 4 4 4 4 5 -1 0 2 4 7 10 10 10 10 7 4 3 8 4 4 2 1 -2 -0 -0 0 -2 -2 -4 -4 -4 -2 -2 -3
4 5 5 5 5 5 3 2 4 4 5 4 4 3 4 3 3 3 0 5 8 10 10 10 11 11 9 3 2 1 1 1 -1 -2 -0 0 -0 -1 -3 -4 -4 -2 -1 -0 -1
3 4 5 6 5 5 4 5 4 3 5 3 4 3 5 3 4 7 5 8 9 10 9 11 11 9 6 3 1 1 1 1 -0 -1 -1 -1 -1 -2 -6 -4 -1 -1 -0 -0 -1
2 5 5 5 4 5 4 4 5 3 3 3 3 3 4 3 6 7 9 9 8 8 9 10 9 7 4 2 3 2 2 1 2 1 -0 0 2 -4 -3 -1 -0 -0 0 0 0
3 6 6 5 5 5 6 5 4 4 6 5 5 3 5 4 8 7 9 9 7 8 8 8 4 6 6 3 0 2 -0 1 1 2 3 0 4 -2 -2 -0 -0 -0 -0 0 1
3 7 6 6 6 5 6 5 4 6 8 5 5 5 5 6 8 8 9 8 8 7 7 8 4 5 3 2 -0 1 0 0 0 1 1 1 2 0 -1 1 1 0 -0 -0 1
1 6 6 5 4 5 5 5 6 8 8 7 7 8 5 8 7 7 8 8 7 5 3 2 0 1 1 -0 -0 0 -1 1 1 1 4 2 2 1 1 -0 0 0 -0 -1 1
-1 3 6 6 6 5 5 5 7 10 6 8 8 6 6 7 7 8 8 9 8 7 7 4 -3 -6 -2 -2 -4 -1 1 5 5 5 6 0 1 1 -2 -1 -1 0 -0 -1 -0
-1 1 5 6 7 7 6 8 10 8 8 6 6 6 8 6 7 7 8 7 4 1 3 5 3 -3 -6 -1 -1 -1 1 5 7 7 5 -1 2 -1 -3 -2 -1 0 -0 -0 -0
-1 1 2 3 5 7 7 10 9 8 6 7 6 8 9 7 6 6 6 4 2 2 3 2 3 -2 -3 -5 -2 -1 3 1 4 3 4 3 1 -3 -0 1 1 1 0 0 0
-0 2 4 6 6 7 9 9 9 7 5 6 8 7 9 6 5 5 6 5 7 3 3 2 3 0 -2 -3 -5 -1 -2 3 3 6 5 3 1 2 1 2 1 1 0 0 0
4 5 5 7 7 8 9 9 9 5 7 9 8 8 6 6 4 6 7 6 6 5 4 3 3 4 -0 1 1 -0 -1 -2 1 2 4 4 2 -2 -2 -1 1 1 1 1 0
5 4 5 7 6 6 8 9 8 8 8 8 4 4 7 8 6 8 8 7 5 5 6 5 4 5 4 0 -1 -1 0 -1 1 2 2 1 2 -4 -2 -4 -2 0 1 1 1
4 4 6 7 7 6 5 6 7 8 7 7 8 7 5 7 8 7 6 5 5 5 6 4 6 7 6 4 2 3 1 -1 1 1 4 3 2 -3 -1 -2 -1 0 1 1 1
4 3 2 5 4 5 5 5 6 6 6 5 5 5 6 6 5 6 6 5 4 4 3 2 3 5 7 5 3 5 4 2 1 3 2 3 1 -1 -1 -1 -0 0 -1 1 2
2 2 3 3 2 2 2 3 4 5 4 4 4 4 5 6 5 6 5 4 3 2 2 1 2 2 1 0 -0 2 3 4 4 2 2 0 1 -1 -2 -3 -3 -1 -1 1 2
2 2 2 2 1 1 2 2 3 2 3 5 4 2 2 4 4 6 5 4 4 2 2 1 2 -2 -3 -3 -2 -2 -3 -3 -1 2 2 1 0 -3 -3 -2 1 1 1 2 1
2 2 0 1 1 1 2 1 1 2 0 0 2 1 0 -1 -2 0 2 1 2 2 2 0 -2 -2 -3 -0 0 2 0 -1 -3 -4 -4 -3 -4 -3 -2 0 1 2 1 1 -0

GFSSW_850_dewp_003.txt.gz
Dewpoint
-3 -2 -1 -0 3 4 5 4 3 2 5 5 5 4 5 5 4 2 3 -0 7 10 10 9 8 7 6 6 4 2 3 4 1 -2 -2 -1 0 -1 -1 -0 -0 -1 0 1 2
-4 -3 -2 1 2 3 3 2 2 3 3 4 5 4 4 4 5 4 -1 -2 3 9 9 9 9 8 6 7 3 3 5 4 1 -3 -0 1 1 0 -0 -0 -0 -1 0 -0 1
-1 -2 -1 1 3 3 3 3 2 3 3 4 4 3 4 4 5 4 -1 -3 -1 9 9 7 8 7 6 5 3 3 4 2 2 1 2 2 1 0 -0 -0 -1 -0 -0 -1 2
0 -1 0 1 -0 1 2 3 2 3 3 2 2 3 2 3 4 5 -1 -4 -4 9 10 8 7 7 6 6 5 5 3 3 2 2 3 2 2 -0 -1 -1 -2 -1 -2 -1 1
-3 -1 -0 0 0 0 1 2 3 0 0 3 3 2 3 5 3 4 6 2 -5 6 11 9 7 6 6 6 5 5 5 4 4 4 2 1 0 0 -1 -1 -2 -1 -2 -1 -0
-0 -1 -1 -1 -2 -1 -1 1 3 1 0 2 3 3 3 4 1 0 5 6 2 -0 10 9 7 6 6 6 6 5 5 4 3 2 0 0 0 -0 -1 -1 -1 -2 -2 -2 -0
2 2 1 -1 -0 1 -1 -1 -1 2 1 2 -1 3 4 3 -1 -0 2 6 6 -1 10 9 7 6 6 6 5 4 3 2 1 2 1 -0 1 -0 -1 -1 -2 -3 -4 -3 -1
4 4 3 2 2 0 1 1 0 0 1 2 -0 4 4 1 -1 2 2 5 5 5 10 8 7 6 6 5 1 1 1 3 1 0 -0 0 3 0 -1 -1 -2 -2 -3 -2 -2
3 4 5 5 4 3 2 2 1 0 0 3 2 4 4 2 1 -0 4 5 6 5 10 9 8 6 7 6 5 2 4 3 1 -1 -1 -0 1 -1 -2 -2 -3 -3 -3 -3 -2
1 4 5 5 5 4 4 2 -0 1 1 2 2 4 3 2 -0 -0 2 5 7 6 10 10 8 8 6 7 11 5 4 3 2 -1 -0 -0 1 -1 -2 -3 -4 -3 -2 -2 -2
2 3 5 5 6 6 4 2 1 3 3 3 4 4 3 1 1 -1 1 5 7 8 10 10 10 10 9 7 6 3 2 1 -0 -2 -1 0 0 -1 -2 -3 -4 -2 -1 -0 -1
3 3 5 5 6 5 5 2 2 2 4 2 4 3 3 3 5 -0 2 5 7 8 8 10 11 8 7 4 2 2 2 3 0 -0 -1 -0 0 -1 -5 -4 -3 -1 -0 1 -0
2 5 5 5 5 5 3 2 3 4 4 3 3 4 4 4 5 6 3 6 6 7 9 9 8 8 8 8 5 3 3 3 1 1 -0 0 2 0 -4 -2 -1 -1 0 1 1
2 5 6 6 5 5 5 3 3 3 4 4 4 2 2 4 5 5 5 7 6 7 8 9 6 9 8 7 7 9 1 1 2 2 4 0 5 -0 -3 -1 -1 -0 1 1 1
1 6 6 6 6 6 6 5 5 5 4 3 4 3 2 4 6 6 6 9 6 6 9 8 7 9 10 8 2 6 -1 0 1 1 1 1 3 1 -2 0 0 -1 -0 0 0
1 3 6 6 5 4 5 5 4 6 8 6 5 5 6 5 6 8 8 9 5 7 4 4 5 7 7 4 -0 -0 -0 0 1 1 4 2 2 2 -0 -1 -0 -1 -1 0 -0
-0 -0 5 6 6 4 4 5 7 8 4 7 5 5 5 6 8 8 9 9 8 9 8 2 2 -1 -2 -1 -1 -1 2 5 6 6 6 1 2 1 -2 -3 -2 -1 -1 -0 -1
-1 -1 0 6 7 5 5 6 8 7 7 5 6 5 6 6 8 9 9 9 6 5 6 5 7 -3 -5 -1 0 0 2 5 7 7 5 1 3 0 -2 -3 -2 -1 -2 -1 -1
-2 -0 1 2 5 6 6 7 9 7 6 7 6 7 8 7 8 8 8 7 4 3 5 4 3 -3 -4 -5 -2 -1 2 1 4 3 5 3 1 -2 0 -0 -0 -1 -1 -1 -1
0 3 4 6 3 6 7 9 8 5 5 5 7 7 8 7 8 8 7 6 4 0 -0 1 2 0 -3 -4 -5 -1 -2 3 3 7 6 3 2 2 1 1 1 0 -1 -1 0
5 5 6 7 5 7 10 9 6 4 5 6 6 8 6 6 6 7 7 6 5 4 3 1 1 3 -1 0 0 -2 -2 -1 1 2 4 4 2 -2 -2 1 1 0 -1 -0 0
6 5 7 6 7 7 9 9 4 5 8 8 6 4 4 3 4 7 7 6 5 4 6 4 3 4 3 1 -1 -1 -1 -2 2 2 1 1 2 -3 -3 -1 0 0 0 0 -0
4 6 7 7 8 7 8 8 8 8 8 7 4 3 5 4 7 6 7 5 5 4 6 4 5 7 6 4 2 2 0 -2 -0 1 2 3 1 -3 -3 -3 -2 -1 0 1 0
5 4 7 7 6 6 6 8 8 7 6 5 6 5 5 6 5 7 7 4 4 4 3 2 4 4 5 5 4 4 3 0 0 3 1 2 -0 -2 -2 -1 -1 -0 -0 0 1
4 2 3 4 3 3 3 5 7 7 5 5 6 6 6 6 5 6 5 4 3 2 1 -0 3 1 1 0 2 3 4 2 1 -0 1 -0 1 -2 -2 -3 -3 -2 -1 -0 1
3 2 2 2 1 1 2 2 3 2 5 6 7 5 5 5 4 6 4 4 4 2 1 -0 2 -2 -3 -2 -3 -3 -2 3 2 2 1 1 0 -3 -3 -1 0 1 0 1 2
2 2 1 2 1 1 2 2 2 1 -0 2 2 2 4 0 -2 0 1 0 1 2 1 -2 -2 -3 -2 -1 -1 -1 -1 -2 -4 -4 -4 -4 -5 -3 -0 1 1 1 1 1 1

GFSSW_850_dewp_006.txt.gz
Dewpoint
-5 -5 -3 -2 -1 1 3 4 5 6 6 6 6 5 5 5 6 5 4 -2 -1 10 9 9 9 8 6 6 5 2 3 4 2 -0 -2 -3 1 1 1 -0 -1 -1 -0 1 0
-3 -3 -3 -3 -2 3 4 4 4 4 4 4 3 5 6 6 6 6 3 0 -3 8 10 10 10 9 7 7 4 3 4 4 1 -2 -2 -0 2 2 1 -0 -1 -1 -0 -0 -1
3 0 -2 -2 -1 2 3 3 3 3 3 3 3 4 5 5 6 5 2 1 -3 3 10 9 9 9 7 6 4 3 5 3 2 1 0 3 3 2 0 0 -1 -2 -2 -2 -2
2 2 -0 -0 -1 -1 1 3 3 2 2 3 4 4 4 5 5 7 2 -0 -1 -2 9 10 8 8 7 6 4 4 3 2 3 3 3 3 3 2 1 -0 -2 -1 -1 -1 -2
-2 -1 -1 -2 0 0 -0 -0 1 2 2 2 2 3 4 5 4 3 6 6 4 1 9 10 8 7 7 6 5 5 5 4 4 4 4 3 2 1 0 -1 -2 -1 -1 -2 -2
0 1 0 -1 -2 -2 -1 -2 -1 1 2 2 1 3 4 5 1 0 4 6 7 6 6 9 8 6 6 6 6 5 5 5 5 4 3 1 1 0 -0 -1 -1 -1 -2 -2 -3
3 3 3 2 1 -1 -1 -2 -3 -1 2 2 2 4 4 2 0 -0 0 1 6 7 4 9 8 6 6 6 5 5 5 3 2 2 2 1 2 1 0 -1 -1 -2 -2 -3 -4
2 3 4 4 3 2 -0 1 -0 -3 0 2 2 2 4 3 -1 0 3 1 2 6 4 9 8 7 6 5 3 3 2 5 2 -0 -0 0 1 -1 -3 -1 -2 -2 -2 -2 -2
-0 1 3 4 5 5 2 1 2 0 -2 2 3 3 3 2 0 -0 2 4 5 6 6 7 8 8 6 6 4 2 5 3 2 -1 -0 0 2 -2 -2 -2 -2 -4 -2 -1 -1
1 1 2 4 5 5 4 4 3 2 1 3 4 3 2 3 2 -0 -2 5 7 6 8 10 9 8 8 8 11 7 5 3 3 0 -0 0 0 -1 -2 -2 -3 -3 -1 -0 -1
-1 2 4 4 4 5 5 4 2 2 2 3 3 2 3 2 3 1 -2 4 7 5 9 9 10 11 9 8 6 5 3 5 1 -2 -1 -0 -0 -1 -2 -2 -3 -3 -0 0 -1
-1 2 5 5 5 5 5 4 0 1 3 1 4 4 1 4 5 2 0 5 7 4 7 10 10 8 7 7 7 3 3 3 2 -0 -1 0 0 -1 -2 -3 -4 -2 0 1 -0
-0 2 5 5 5 6 5 3 1 2 3 3 2 4 4 3 4 4 2 5 6 2 7 9 9 7 7 6 6 4 4 5 5 1 0 1 2 0 -3 -3 -2 -1 1 1 -0
0 1 5 6 5 5 5 4 3 2 5 4 3 3 3 4 4 3 2 4 5 3 6 9 8 8 8 9 7 10 3 2 2 3 4 0 5 1 -2 -1 -1 0 1 1 0
0 1 4 6 4 6 5 5 3 4 5 2 3 2 1 4 4 5 -2 4 6 5 7 9 9 10 9 8 7 9 2 3 2 2 1 1 3 1 -2 0 0 -0 1 2 1
-1 0 3 5 4 6 5 4 4 6 6 4 4 4 4 3 4 5 5 5 5 5 6 6 6 8 9 7 5 3 2 1 1 1 5 2 2 2 -0 -1 -1 -1 -0 1 1
0 1 2 3 5 5 5 5 5 7 4 6 4 4 4 5 5 6 6 7 7 8 8 4 8 3 5 4 1 3 3 8 6 6 6 1 2 2 -1 -3 -2 -1 -1 1 1
1 1 2 3 6 3 4 4 7 6 4 4 5 4 5 5 6 5 7 9 7 4 7 8 9 2 -1 6 6 4 4 5 7 7 5 1 4 1 -2 -1 -2 -1 -1 1 1
-0 -0 4 4 6 3 4 6 7 6 5 6 4 5 6 5 7 7 7 8 7 3 6 8 7 -3 -3 -3 4 1 4 1 4 3 5 4 1 -1 -1 -0 -1 -1 -1 1 1
1 3 6 5 6 4 5 6 7 5 5 4 5 5 8 6 8 7 8 7 7 3 0 2 2 -0 -3 -4 -5 -0 -1 3 3 7 7 4 2 3 -1 0 0 -1 -1 0 1
6 5 7 7 5 6 6 5 7 4 4 5 6 6 6 6 8 7 7 6 4 2 -0 -1 1 2 -2 -0 -1 -2 -0 0 2 3 5 4 2 -2 -2 -2 0 -0 -1 0 1
5 5 6 5 7 7 7 9 5 6 7 7 5 5 5 5 7 8 8 5 3 4 5 2 2 3 2 0 -2 -3 -2 -1 4 3 1 2 2 -3 -3 -3 -0 -0 -1 -0 0
4 7 6 6 9 8 8 7 6 7 8 8 5 4 3 5 8 7 8 5 5 4 5 3 4 6 6 4 2 1 -1 -2 -0 0 2 3 2 -3 -3 -1 -0 0 -0 -0 -0
5 6 6 6 7 7 8 7 8 8 8 6 5 4 4 6 5 7 7 4 4 4 4 2 3 3 6 4 3 4 2 -1 0 3 2 1 0 -2 -2 -1 -1 -1 -0 0 0
4 3 4 6 6 5 5 7 9 8 6 5 6 4 5 6 6 7 5 4 2 3 2 2 3 2 -0 2 3 3 3 1 1 1 2 1 0 -2 -2 -2 -3 -2 -1 -1 1
3 2 3 2 1 2 2 4 5 4 5 6 7 5 4 6 5 7 5 5 4 2 1 0 2 -1 -2 -2 -3 1 2 1 1 0 -1 1 1 -3 -2 -1 1 1 1 0 1
2 3 2 1 1 1 3 2 3 2 2 3 4 4 2 1 -0 1 1 0 2 2 1 -1 -1 -0 1 -1 -1 -2 -2 3 1 -0 1 2 -1 -3 1 1 0 0 -0 0 1

GFSSW_850_dewp_009.txt.gz
Dewpoint
-5 -6 -6 -5 -3 -1 1 2 3 5 7 7 7 7 6 6 6 5 5 2 -0 8 9 9 9 9 8 6 5 2 4 5 4 1 2 -3 2 1 2 1 0 -1 -0 1 -1
-4 -3 -2 -3 -4 -2 1 1 1 3 5 6 6 6 5 6 6 6 4 3 2 -2 8 11 10 9 8 6 5 3 5 5 2 -0 -1 -2 2 2 2 1 -0 -1 -2 -1 -1
-3 -1 -1 -2 -2 -0 1 3 3 2 4 4 4 4 5 6 6 5 2 2 1 0 3 11 10 10 8 6 5 3 5 3 2 1 1 1 3 3 1 3 -0 -1 -1 -2 -2
-1 -3 -3 -1 -1 -0 -1 -0 2 3 2 2 2 3 5 6 5 4 4 1 1 3 1 10 10 9 8 6 4 4 3 3 3 3 3 3 3 3 2 1 -1 -0 -1 -1 -2
-0 -1 -3 -1 -2 -0 0 -1 -1 0 1 1 2 3 5 5 4 5 6 4 6 8 4 9 10 8 8 6 5 4 4 4 3 3 4 4 4 3 2 3 2 -1 -1 -1 -2
0 1 1 1 -1 -1 -2 -2 -2 -1 1 2 2 3 4 5 3 1 3 5 5 7 6 7 9 8 7 6 6 5 5 5 4 4 4 3 3 2 3 3 2 0 -1 -2 -3
1 4 4 3 3 2 -1 -2 -2 -2 -0 2 2 2 4 4 0 -1 -1 1 2 6 7 5 8 7 6 6 6 5 6 5 4 4 3 2 3 2 2 -0 0 -0 -1 -3 -2
2 3 3 4 4 4 3 1 -0 -1 -3 1 2 3 4 3 1 -0 0 0 1 2 5 5 9 8 6 5 5 6 4 8 5 0 0 0 5 -0 -2 -1 -1 -2 -3 -1 -0
-2 1 -1 -0 1 5 5 3 1 2 1 1 3 4 3 2 0 -1 -0 2 3 1 4 5 8 9 6 5 5 4 9 6 6 1 2 1 2 -0 -2 -2 -2 -3 -2 -0 0
-2 1 1 2 3 4 5 5 3 2 3 2 3 4 3 3 2 1 -1 -1 5 5 7 7 8 10 8 8 11 6 7 4 4 1 0 1 1 -1 -2 -2 -2 -3 -1 -0 0
-1 0 1 4 4 5 5 6 4 3 3 2 3 1 3 2 3 2 0 0 4 7 6 7 10 11 9 8 6 4 5 5 4 -1 -0 1 0 -0 -2 -2 -2 -3 -0 0 1
-3 -0 1 4 5 5 5 5 3 1 2 1 3 3 2 3 5 3 1 2 5 7 4 7 9 8 7 7 5 4 5 4 3 -0 -0 2 1 -0 -1 -2 -3 -3 1 0 1
-3 0 1 4 5 5 5 5 4 2 3 3 1 4 4 3 4 3 2 2 5 4 5 7 8 6 7 8 8 6 6 5 6 2 1 1 2 0 -2 -3 -2 -2 0 0 -0
-3 -0 2 5 4 5 6 5 3 3 4 4 3 2 3 3 3 2 3 3 5 4 3 8 7 8 8 8 8 9 3 4 3 6 8 1 5 2 -0 -2 -1 1 1 1 1
-3 -1 2 4 4 4 4 5 4 2 6 3 3 2 2 2 2 3 2 3 5 2 4 9 10 8 9 8 7 8 5 6 4 4 2 2 3 2 -2 -1 0 0 2 1 1
-2 -1 1 2 4 4 5 5 3 5 5 5 3 4 4 3 3 4 4 4 5 2 3 8 7 8 7 6 6 1 4 4 2 2 5 3 3 3 0 -2 -0 -0 1 2 2
1 2 3 3 4 5 5 3 5 6 3 5 5 4 3 4 5 4 4 5 7 6 5 8 9 8 8 6 3 3 8 11 9 7 7 1 3 2 -1 -3 -1 -0 1 2 1
4 5 4 4 3 5 4 4 6 6 4 3 4 3 4 3 5 5 4 5 6 5 4 9 11 6 7 7 6 8 8 9 9 7 5 1 4 1 -2 -1 -2 -1 0 1 2
6 4 5 5 4 4 4 5 5 5 3 4 3 4 6 4 6 5 5 4 6 5 4 7 8 2 2 2 5 6 9 2 4 3 6 5 2 -0 -1 -1 -1 -1 -0 2 2
4 5 5 6 5 4 3 6 5 4 4 3 3 3 5 5 6 4 5 5 7 5 2 5 3 0 -4 -1 -3 4 2 8 4 7 7 5 2 4 -1 -1 -0 -0 1 2 2
4 5 6 5 5 3 5 5 5 6 3 2 4 4 3 5 6 6 6 7 6 5 0 -1 1 2 -2 0 1 2 6 3 2 3 6 5 3 -2 -2 -3 0 -1 0 1 1
4 6 6 5 5 4 6 5 5 5 4 4 4 5 5 5 5 7 7 6 6 3 2 -1 1 3 1 1 -2 -1 1 2 4 4 2 2 3 -3 -2 -2 -1 -1 -0 0 1
4 6 6 6 6 6 5 7 7 6 6 7 5 4 3 6 8 7 7 5 4 4 3 2 3 6 5 3 2 1 -2 -1 0 0 2 4 3 -3 -1 0 -0 -1 -1 -0 1
5 7 6 5 6 7 8 7 8 7 7 7 4 3 4 6 5 8 8 5 5 3 3 1 3 5 6 4 3 4 0 -1 0 2 2 1 0 -2 -1 0 -0 -0 -1 -0 -0
4 4 6 7 7 6 7 7 8 8 7 6 6 4 4 7 7 7 7 5 3 4 2 1 4 2 -0 2 2 2 2 -0 1 1 2 1 0 -1 -2 -1 -1 -2 -2 -0 0
4 2 3 2 2 7 6 8 7 7 6 7 6 4 4 6 6 7 5 5 5 2 3 1 3 -1 -1 -0 1 3 2 1 -0 -0 0 -0 0 -3 -2 -2 -0 1 0 0 0
3 3 2 1 1 4 5 6 7 5 6 3 4 3 5 2 1 3 3 3 3 2 1 3 0 1 2 -1 -2 1 0 2 1 0 -0 2 -0 -2 1 1 1 1 1 1 1

GFSSW_850_dewp_012.txt.gz
Dewpoint
-7 -7 -6 -6 -6 -5 -1 4 5 7 8 8 8 7 7 7 7 7 7 4 1 3 6 6 9 9 10 8 6 3 4 4 3 3 2 -2 1 2 2 1 -0 -1 0 1 -1
-5 -5 -3 -2 -3 -4 -4 -3 -1 1 3 5 7 7 7 7 7 7 5 4 3 1 6 10 9 10 9 8 6 4 5 4 2 1 1 1 2 3 3 1 0 -2 -0 -0 -0
-2 -2 -3 -2 -2 -2 1 -1 2 2 1 3 5 6 6 6 7 6 4 3 2 3 5 8 10 10 9 7 6 5 5 2 2 2 1 2 3 3 3 3 0 -0 -2 -1 -1
-1 -1 -3 -4 -3 -2 -2 -1 -0 3 3 2 3 4 5 6 5 6 6 2 1 3 7 6 9 10 9 8 6 6 4 3 3 3 3 3 3 3 4 4 3 2 2 0 -0
0 -0 -3 -4 -2 -3 -2 -1 -1 1 2 2 1 3 5 6 4 5 5 5 2 7 8 5 9 9 9 7 6 6 4 4 3 4 3 4 4 4 4 4 3 3 2 0 -1
1 1 1 1 1 1 -2 -2 -1 -1 1 2 1 2 5 4 3 2 3 4 4 6 8 6 8 7 7 7 7 5 5 4 4 4 4 4 4 4 3 3 3 2 1 0 -1
2 1 3 3 3 3 2 -0 -2 -2 -1 2 3 3 5 3 1 -0 1 1 2 4 6 6 7 9 6 7 7 6 6 5 5 4 4 4 5 4 2 -0 -2 -1 -1 -0 -2
-2 3 2 2 2 3 3 3 1 0 -2 1 3 3 4 3 2 1 1 1 2 2 5 6 7 9 9 6 7 7 7 8 4 4 4 3 5 1 0 -2 -1 -2 -1 2 0
-4 3 2 -0 -0 1 2 5 4 1 2 0 3 4 3 2 2 0 1 2 4 1 2 5 7 8 9 7 8 8 9 8 5 4 4 3 4 -0 -2 -2 -2 -2 -1 1 2
-3 1 3 2 1 4 2 5 5 2 3 2 3 4 2 2 3 2 2 -0 1 4 4 6 6 9 10 9 10 8 8 6 6 3 2 3 3 0 -1 -1 -2 -2 -0 1 2
-3 0 1 1 2 4 4 4 4 4 4 2 2 1 2 2 2 3 2 1 2 4 6 5 7 8 9 8 5 3 4 6 4 2 2 4 4 1 1 0 -1 -2 -1 1 1
-4 -2 1 2 2 5 5 5 4 3 4 3 3 2 3 3 3 3 3 1 2 3 4 5 8 6 8 6 5 5 6 6 3 1 2 4 5 3 1 -1 -1 -1 -0 1 2
-3 -3 -1 2 2 5 5 5 5 4 3 3 3 3 3 2 2 3 3 1 1 2 4 6 5 4 9 8 6 6 5 4 5 4 4 3 5 3 -2 -3 -2 -2 0 1 1
-3 -3 -1 2 5 5 5 6 5 4 4 3 3 2 3 3 3 1 2 0 2 2 5 3 3 6 9 8 6 8 5 5 6 8 9 4 8 3 0 -1 -1 -1 1 1 2
-0 -3 -1 1 5 5 4 5 4 3 6 2 3 2 2 1 1 2 3 1 2 4 5 5 3 8 9 9 5 6 5 6 7 8 7 7 6 3 -1 -1 -1 -0 1 1 2
5 -0 -2 1 3 5 5 5 3 4 5 5 3 3 3 2 -0 3 3 1 3 4 4 1 6 5 8 6 6 4 5 5 5 5 9 5 5 3 1 -2 -2 -0 1 2 2
6 5 1 1 4 3 5 3 5 6 3 6 5 4 2 2 2 4 4 4 6 7 7 4 8 8 6 9 5 5 8 12 11 11 9 2 3 2 -1 -3 -2 -0 1 2 2
6 6 4 3 3 3 4 4 6 5 5 4 4 3 3 2 3 5 3 3 4 6 4 7 11 10 7 8 8 7 7 7 9 8 6 2 5 1 -2 -2 -3 -1 1 2 3
6 6 5 5 4 4 3 5 5 5 4 5 3 4 3 2 4 5 2 1 5 4 5 8 9 7 7 5 5 8 10 3 4 3 5 3 2 -0 -2 -1 -2 -1 1 2 3
6 5 4 5 4 4 3 6 5 4 3 4 2 1 3 3 6 3 1 -1 3 3 3 4 8 5 4 6 3 7 5 8 5 8 7 4 4 2 -1 -2 -1 -1 1 2 3
6 5 5 5 4 3 5 5 5 3 3 2 -0 2 0 2 5 2 2 3 1 3 4 3 4 4 3 7 8 7 9 8 5 4 5 4 3 -2 -2 -2 -2 -1 0 2 3
3 6 6 5 4 3 5 4 4 5 4 2 0 -1 -1 1 4 6 2 5 0 3 5 2 2 8 5 1 2 4 6 6 8 6 3 3 2 -3 -3 -2 -2 -1 0 2 2
4 6 5 5 6 5 4 5 4 6 4 1 3 0 -1 2 5 4 4 1 2 4 4 1 3 6 7 4 0 6 4 5 3 1 4 5 3 -3 -1 -0 -1 -1 0 2 2
4 7 5 5 6 6 6 6 6 5 3 4 3 3 3 2 3 4 6 5 5 4 3 0 3 2 5 4 3 5 4 5 5 6 4 3 2 -1 -0 0 -0 -0 -0 1 2
2 5 5 6 6 6 6 6 7 7 6 7 5 4 3 4 6 7 6 6 5 5 4 3 4 3 2 2 2 2 3 2 4 4 4 3 2 -0 -2 0 -0 -0 -0 -0 1
3 4 4 5 5 6 6 7 7 7 7 7 8 4 3 4 4 7 6 5 6 4 4 2 4 1 1 2 2 2 2 2 3 3 2 1 1 -2 -3 -1 -1 -1 -0 0 1
4 2 3 2 2 7 7 6 7 7 6 6 5 4 4 4 2 4 4 3 3 4 4 4 3 2 4 0 1 4 2 1 1 0 0 2 0 -2 -1 -2 -1 -0 1 1 1

GFSSW_850_dewp_015.txt.gz
Dewpoint
-6 -6 -6 -6 -6 -7 -6 1 5 7 9 8 8 9 8 8 8 7 7 6 5 3 1 7 6 10 9 9 7 5 5 5 3 2 1 -0 -0 -1 1 1 -0 -1 -0 1 2
-5 -4 -3 -2 -2 -2 -5 -6 -3 3 4 6 7 8 8 8 7 8 6 5 4 4 5 6 6 6 9 8 6 5 5 3 1 0 1 -0 1 2 2 1 1 0 -1 -0 -0
-2 -1 -1 -3 -2 -3 -3 -3 -5 -4 -3 0 3 5 7 7 7 6 6 4 3 3 5 6 7 10 8 8 6 5 5 2 1 1 1 1 1 1 3 3 2 0 -0 -0 1
-1 -0 -0 -3 -2 -2 -2 -3 -3 -2 2 2 2 4 5 6 4 5 3 4 4 7 7 5 5 8 8 9 6 6 3 3 2 2 2 2 2 2 2 3 2 3 3 2 1
-2 1 -0 -4 -1 -1 -2 -2 -2 -3 0 3 2 2 4 6 5 5 5 4 5 7 7 6 3 5 7 6 7 6 4 3 3 2 2 3 3 2 3 3 3 3 2 3 2
-5 1 1 1 1 2 0 -2 -2 -2 -2 -0 2 2 5 4 3 3 4 4 3 5 6 6 4 3 4 5 6 6 4 4 3 3 3 3 3 2 2 3 2 2 2 1 1
-6 -1 2 3 4 3 3 2 -1 -4 -3 -2 3 4 5 3 2 2 2 2 2 2 5 5 4 4 5 5 4 5 6 4 3 3 3 3 5 3 2 2 1 -3 -3 -2 0
-4 -4 4 3 3 3 3 4 2 0 -4 -3 1 5 5 3 3 3 2 2 2 2 2 4 5 4 8 8 5 5 7 9 4 3 3 4 6 1 1 1 -2 -3 -3 0 2
5 -3 -0 3 2 0 1 2 5 3 0 -1 1 5 3 3 3 2 2 2 1 2 2 2 5 6 7 9 9 8 9 8 7 2 2 4 5 0 0 -2 -2 -3 -3 -0 2
5 1 -3 2 3 2 2 3 5 5 2 4 4 4 2 2 2 2 2 2 1 1 1 2 5 6 7 10 11 9 9 6 7 3 4 4 4 2 1 -1 -1 -2 -3 -0 1
4 2 -3 -0 2 2 3 4 4 4 4 3 2 1 1 1 2 3 2 2 2 1 3 1 6 7 6 6 6 5 6 6 4 2 3 4 3 2 -0 -0 -0 -1 -3 -0 1
2 -1 -3 1 1 4 4 5 4 3 4 4 2 2 1 3 2 2 2 2 1 2 0 3 7 4 2 5 8 9 6 5 3 2 3 3 3 1 1 1 1 -1 -2 -1 1
0 -3 -3 0 2 2 3 4 5 4 4 3 3 3 2 3 1 1 2 1 -1 1 1 4 4 3 2 6 9 8 7 3 4 3 2 3 5 4 2 1 -0 -1 -2 -0 1
4 -2 -3 1 3 2 5 5 5 5 4 4 4 4 3 3 3 1 2 1 -0 1 0 3 1 4 3 6 8 10 5 3 4 6 8 4 6 2 1 -0 -1 -2 -1 0 1
6 1 -3 -1 4 5 5 5 5 4 7 2 4 3 4 3 1 0 -0 2 1 0 4 5 4 5 6 7 8 9 4 4 5 7 8 7 8 3 1 0 -0 -2 -1 1 1
6 5 -0 2 1 4 4 4 4 4 6 5 3 3 3 4 1 1 0 1 -0 0 4 2 0 3 5 6 7 8 5 6 6 6 9 6 6 3 2 0 -1 -1 0 1 1
6 6 4 3 4 5 4 4 4 6 3 6 5 4 5 4 3 2 2 3 5 6 6 4 4 4 5 9 9 10 9 11 11 11 7 3 5 3 -2 -3 -3 -1 0 1 2
6 6 6 3 4 4 4 3 6 4 4 4 4 4 5 2 1 -0 2 4 2 4 6 6 8 6 5 9 8 9 8 7 8 8 5 2 5 2 -2 -2 -3 -1 0 1 2
6 6 6 5 4 4 3 5 6 5 4 5 5 6 6 2 0 2 3 4 2 2 7 7 7 5 7 8 7 8 9 3 5 3 5 4 2 -1 -2 -1 -2 -2 1 1 2
6 6 6 5 5 5 4 5 5 4 4 4 5 2 2 1 3 3 6 2 0 -0 2 6 8 7 8 7 7 7 5 7 5 7 6 4 3 2 -0 -1 -2 -2 1 2 2
6 5 5 5 5 4 4 5 5 4 4 5 4 1 -0 3 3 4 2 -1 -2 -1 3 6 6 7 7 9 9 9 9 7 4 4 5 5 3 -1 -2 -2 -1 -2 0 2 2
5 5 6 5 5 3 4 4 4 4 4 4 4 -2 -2 -1 3 2 1 -2 -3 -1 6 6 8 9 7 4 5 6 8 5 6 6 4 3 2 -3 -2 -1 -2 -2 -0 2 2
4 5 5 5 5 5 4 4 4 5 5 5 1 -2 -3 1 2 3 2 -3 1 -1 5 5 5 10 9 6 5 8 6 5 5 4 5 4 3 -3 -1 -1 -2 -1 -0 2 2
4 7 5 5 4 5 5 5 5 4 4 3 1 -2 -2 1 -0 2 4 1 2 -1 3 4 4 4 6 5 6 9 7 5 5 6 4 4 2 -1 -0 0 -1 -1 0 1 2
4 5 4 6 5 5 5 5 6 7 5 3 5 1 0 1 1 3 2 3 2 1 2 4 5 2 1 1 3 5 6 6 6 5 5 3 2 0 -1 -1 -1 -1 0 1 2
4 1 5 6 4 5 5 6 6 6 4 7 7 3 1 1 -0 4 3 4 4 4 4 3 5 2 3 2 2 3 3 3 4 4 4 3 3 -1 -2 -2 -1 -1 -0 0 1
6 4 3 2 4 6 6 5 6 5 6 6 6 4 3 1 -1 2 3 2 3 5 5 5 5 4 4 1 3 5 3 2 2 2 2 3 2 -0 -1 -2 -1 -1 -0 -0 0

GFSSW_850_dewp_018.txt.gz
Dewpoint
-8 -7 -4 -0 -2 -4 -6 -6 0 5 8 9 9 9 9 9 8 8 7 6 6 6 4 1 6 6 9 9 8 6 8 7 5 5 3 -1 -0 -1 -0 1 1 0 -1 1 1
-7 -4 -2 -1 -1 -1 -2 -4 -6 -2 4 7 8 8 8 8 8 8 5 5 6 5 3 5 5 4 6 8 8 7 8 6 2 1 1 0 0 0 2 2 1 1 0 -1 -0
-6 -2 -0 -0 -2 -3 -3 -3 -2 -3 -3 0 4 5 5 6 7 6 5 4 5 5 4 6 5 7 8 7 8 7 8 5 2 1 0 1 1 1 1 3 2 1 2 2 2
-6 -2 1 -0 -3 -3 -2 -2 -2 -2 -1 1 0 1 3 6 7 5 4 4 6 8 6 7 5 6 8 8 7 8 6 5 4 2 2 2 2 2 2 2 2 2 3 3 3
-6 -4 1 0 -3 -2 -1 -2 -2 -1 -1 2 3 1 3 6 5 5 3 2 5 6 8 7 5 4 6 5 7 7 6 5 3 3 2 2 3 3 2 2 2 2 3 3 2
-2 -6 -1 1 1 2 2 1 -1 -1 -1 -0 2 2 4 5 2 4 4 3 4 5 7 7 6 3 3 4 5 6 6 7 5 3 2 3 3 2 3 2 2 2 3 2 2
1 -5 -4 1 2 4 3 3 2 -0 -2 -1 0 2 5 3 2 2 2 3 3 3 2 5 5 5 3 3 4 4 6 6 6 4 3 2 4 4 3 2 2 2 2 -2 -1
2 0 -5 3 3 3 1 1 3 3 1 -0 -1 4 5 3 1 3 2 2 2 2 2 2 4 4 4 6 6 7 6 9 6 5 4 4 6 3 2 2 2 1 -3 -2 0
2 5 2 -2 3 2 1 0 1 5 4 1 -0 4 2 2 3 1 3 2 1 1 1 1 2 5 4 6 8 8 9 8 8 4 4 4 5 3 2 1 1 -1 -2 -1 1
2 4 5 -1 2 3 2 1 4 4 6 4 4 3 2 2 2 3 2 2 2 1 2 2 2 6 6 7 8 8 9 7 9 6 5 6 4 3 2 0 -1 -2 -2 -1 1
4 1 5 1 0 3 3 3 4 4 5 4 3 1 1 2 1 2 2 2 2 1 2 1 4 6 6 5 5 5 6 8 5 4 5 5 4 3 2 1 1 1 -1 -1 1
5 1 3 -0 0 2 3 4 4 4 4 4 3 3 2 2 1 1 2 2 2 3 1 3 5 2 2 3 5 6 7 8 6 4 4 4 5 3 1 1 1 0 -0 -1 2
5 4 1 -1 2 3 4 4 4 4 4 4 4 3 3 2 3 1 2 1 1 2 1 3 2 1 1 2 4 4 8 8 9 6 3 4 5 3 1 0 0 0 1 -1 1
6 5 -0 -1 2 1 4 3 5 4 4 4 4 4 4 4 4 2 2 1 1 2 1 1 -0 0 2 3 3 6 4 7 8 9 10 4 8 4 2 2 2 1 -1 1 1
6 6 2 -2 3 5 4 5 5 5 6 3 4 3 4 4 3 3 2 3 2 1 0 3 2 2 4 4 4 6 5 7 8 10 10 8 7 5 2 4 2 -1 -1 1 1
6 6 4 2 2 4 4 4 4 5 6 5 3 4 5 4 3 3 2 3 2 2 0 1 1 2 2 3 3 3 6 9 9 9 11 8 8 6 3 2 -0 -2 -0 1 1
6 6 6 3 2 1 3 4 4 6 2 6 5 4 3 5 4 4 4 3 3 5 5 3 5 2 3 5 4 5 7 10 12 12 10 4 6 5 -2 -2 -1 -1 1 1 1
6 6 6 4 4 5 4 3 5 2 4 4 4 4 5 5 5 5 5 4 1 3 4 4 4 5 3 4 7 7 7 10 11 11 7 3 7 4 -1 -3 -1 -1 1 1 2
6 7 6 6 4 5 4 4 4 5 5 5 5 6 6 4 2 3 3 4 3 2 5 7 6 4 1 2 6 8 7 7 8 2 6 5 3 -1 -1 -1 -1 0 1 2 2
6 7 6 6 4 5 4 5 4 3 4 4 6 5 4 3 4 2 1 0 1 0 1 4 7 6 5 5 6 9 7 10 8 8 9 6 5 4 1 0 -2 1 1 2 2
6 6 5 6 5 4 4 4 4 3 4 5 6 6 2 1 4 1 2 -0 0 -0 2 4 5 7 7 8 8 8 10 10 7 6 8 7 4 0 -0 -1 -1 -0 1 2 2
6 6 5 6 5 4 5 4 3 4 4 4 4 5 4 0 2 1 1 0 -1 -1 5 4 6 8 7 6 6 7 8 7 7 7 6 5 3 -2 -1 -2 -1 -2 1 2 2
5 5 6 5 6 5 4 3 3 5 5 5 5 3 -0 -1 3 2 2 -0 -2 1 4 4 6 9 9 8 9 9 8 8 7 6 7 5 3 -1 -0 -1 -2 -1 2 2 2
5 6 5 5 4 4 5 4 4 4 4 4 4 1 -1 -1 -1 3 2 1 0 0 5 6 6 7 10 8 8 9 9 8 7 8 6 4 1 1 1 0 -1 -1 1 2 2
4 5 4 5 5 5 4 4 5 5 4 3 4 3 2 0 1 1 2 2 2 -0 3 5 9 8 7 6 6 7 8 7 7 6 6 3 2 -0 1 0 -0 -0 1 2 2
5 3 5 5 3 4 5 5 5 5 5 5 5 4 3 0 0 1 1 4 4 3 1 3 8 6 4 4 5 7 7 6 6 5 4 5 4 -1 -2 -1 -0 -0 1 2 2
5 4 4 3 5 6 6 5 5 5 4 4 4 3 5 1 -1 -0 1 2 4 3 4 5 6 6 4 2 3 5 5 5 5 4 4 6 4 1 -1 -1 -1 -0 1 1 2

GFSSW_850_dewp_021.txt.gz
Dewpoint
-7 -7 -6 -3 -1 -2 -4 -6 -6 -2 4 7 9 9 9 9 9 8 7 6 6 6 5 4 1 4 7 8 10 9 8 9 8 5 4 2 -0 -1 -2 0 1 1 1 0 0
-7 -6 -4 -0 0 -2 -3 -3 -3 -5 -3 5 6 8 9 9 9 8 5 5 7 6 5 3 4 5 5 8 10 9 9 8 4 3 3 2 0 0 1 2 2 2 1 1 0
-6 -6 -3 1 -0 -3 -4 -3 -3 -2 -3 -3 1 5 7 7 7 6 5 4 5 8 5 4 5 5 7 6 8 9 10 6 5 4 3 1 1 1 1 2 1 2 2 3 3
-0 -6 -4 1 -1 -4 -2 -2 -2 -2 -3 2 -1 -1 3 6 6 6 4 4 4 8 8 5 6 5 7 9 7 9 8 7 6 5 5 3 2 2 2 2 2 2 2 2 3
3 -2 -5 1 1 -3 -1 -0 -2 -2 -2 -1 3 2 3 5 6 4 3 3 4 4 7 7 7 6 5 6 6 7 7 7 6 6 5 4 3 2 2 2 2 2 1 2 3
4 3 -5 -2 1 1 2 2 1 -1 -2 -2 0 3 3 5 -0 1 4 4 4 5 6 7 7 6 5 3 4 4 5 5 7 7 5 4 3 3 3 2 2 2 2 2 2
3 2 -4 -5 1 2 3 3 3 2 -1 -3 -2 2 3 2 1 2 3 3 3 3 3 4 5 7 5 4 4 6 7 4 4 6 7 6 5 4 2 2 2 2 2 2 2
5 2 1 -5 2 2 3 2 0 3 2 1 -3 1 3 1 -1 2 2 2 2 3 2 2 2 3 4 5 5 6 7 8 5 5 6 5 8 4 3 3 3 3 2 2 -0
5 3 4 2 -2 3 2 2 0 1 5 4 0 -1 3 1 2 1 2 1 1 1 1 1 1 3 4 6 7 7 8 8 7 5 6 5 7 4 3 3 2 2 1 1 -1
5 5 2 5 0 2 3 2 1 4 3 5 2 4 3 1 1 1 2 2 2 1 2 2 1 4 5 6 7 5 8 7 8 5 5 7 7 4 2 3 2 2 0 -1 -0
6 6 0 5 4 0 4 3 3 4 5 4 3 1 1 2 1 2 2 3 3 2 3 2 4 5 5 5 4 5 6 7 6 5 6 6 6 5 4 2 2 1 -1 -1 1
6 5 2 4 3 -1 3 4 4 4 4 4 4 4 2 1 2 1 2 2 2 4 2 3 5 2 2 4 6 5 6 7 5 5 6 6 7 5 3 2 2 2 1 1 3
6 6 4 3 1 1 2 3 3 4 4 4 3 5 4 3 3 2 2 2 2 3 3 4 2 1 2 3 5 5 6 6 6 5 6 7 8 5 3 2 2 2 1 1 2
6 6 5 3 0 1 3 2 3 4 5 4 4 4 4 4 3 3 2 2 2 3 3 3 1 1 3 4 3 5 2 3 4 7 9 7 11 6 4 2 1 0 0 1 2
6 6 6 0 0 1 1 3 5 5 5 2 4 3 4 4 3 3 2 3 4 2 3 3 2 2 2 2 2 3 2 3 4 6 7 9 11 7 3 4 2 1 1 1 2
6 6 6 1 4 4 4 3 4 4 4 5 3 3 3 4 3 3 3 3 4 5 4 2 0 1 1 -0 1 2 3 3 6 7 9 8 10 7 5 3 2 0 1 2 2
6 6 6 3 3 5 3 3 4 5 1 5 4 3 3 4 4 3 4 5 5 5 5 4 4 2 3 5 3 4 5 5 7 8 8 7 9 8 1 -0 1 -1 2 2 2
6 6 6 5 2 1 3 4 5 2 3 4 3 2 5 3 4 4 5 5 4 4 4 4 3 3 2 3 4 5 4 5 6 7 7 8 11 7 2 -1 -0 0 1 2 3
6 6 6 4 4 3 3 4 3 2 4 5 5 6 5 4 3 3 3 5 3 3 3 4 4 3 1 1 1 5 5 2 8 8 9 9 4 -1 -1 0 1 2 2 3 3
6 6 6 6 4 4 4 5 3 4 4 4 6 5 5 4 4 5 4 2 3 1 0 3 5 1 2 4 2 4 3 6 7 10 11 8 4 3 1 1 2 2 2 3 3
6 6 6 6 4 4 4 5 3 3 4 5 5 6 5 4 3 3 2 0 0 1 0 3 5 4 3 6 5 6 7 6 7 7 9 8 6 -0 0 0 2 2 2 3 3
6 6 6 6 5 4 5 3 3 4 4 4 4 5 6 4 4 3 1 0 -1 -1 3 3 5 6 5 6 4 4 6 5 7 10 8 4 3 -2 -1 -1 0 1 2 3 3
5 5 5 6 5 5 4 4 3 4 4 5 5 4 3 4 5 3 1 1 1 2 4 4 5 6 8 7 6 7 7 8 7 9 8 5 3 -0 -1 -1 -1 2 2 3 3
4 6 5 5 5 5 5 4 5 3 4 4 4 3 4 4 2 3 2 1 1 1 3 3 6 7 9 9 8 8 7 7 8 10 7 6 3 2 -0 -1 -0 2 2 2 3
4 5 4 5 5 5 4 4 5 4 4 4 5 4 4 3 1 2 3 1 1 2 4 5 7 7 6 7 8 8 8 7 9 8 8 3 2 2 0 -0 -0 2 3 3 3
5 5 4 4 4 5 5 5 5 4 5 5 5 3 4 4 2 3 3 2 4 4 4 4 6 7 7 7 7 9 8 7 7 5 5 4 5 -1 -1 -1 -0 2 3 3 3
5 4 4 5 4 5 5 5 5 4 4 4 4 4 4 4 2 2 3 0 3 4 3 4 6 9 6 7 8 9 7 7 6 5 5 6 4 -1 0 -0 -0 2 3 3 3

GFSSW_850_dewp_024.txt.gz
Dewpoint
-3 -6 -6 -3 -0 0 -1 -3 -6 -6 -1 6 8 9 10 9 9 8 8 6 5 5 5 3 3 4 6 7 9 9 9 9 8 6 5 2 2 1 -1 -1 -0 1 1 1 2
3 -6 -5 -1 1 1 -1 -2 -3 -5 -6 2 7 8 9 9 8 9 6 7 6 6 5 5 2 4 5 7 8 9 10 9 6 5 4 3 2 1 1 2 2 2 2 2 1
6 -0 -6 -1 1 -1 -3 -3 -3 -4 -4 -5 0 5 7 8 7 6 5 5 5 7 5 5 3 5 6 6 8 9 11 7 6 5 4 4 3 3 1 2 2 2 2 2 2
4 4 -5 -4 1 -2 -2 -2 -2 -2 -3 -2 -1 -2 3 5 6 5 4 4 5 7 7 6 4 6 6 8 7 8 8 8 8 7 6 6 4 3 2 1 1 1 1 2 2
5 3 2 -5 1 0 -2 -0 -1 -2 -2 -2 2 2 0 6 5 3 4 4 3 5 8 8 6 7 5 5 6 6 7 7 8 8 7 6 6 4 3 3 2 1 2 1 1
5 4 3 -3 -3 1 1 2 2 1 -2 -2 -1 3 3 5 -1 2 4 4 3 5 6 7 6 6 6 5 4 4 5 5 6 6 7 7 6 5 4 3 2 2 2 1 0
5 6 3 0 -5 1 2 3 3 2 1 -2 -1 0 4 1 0 -0 2 3 4 4 3 6 5 7 6 5 4 5 6 6 5 4 6 6 8 7 5 4 2 2 2 2 1
5 5 4 2 -5 1 3 4 0 2 3 2 -1 -1 1 -1 -1 2 3 3 3 3 3 3 3 2 3 5 4 6 6 7 4 4 4 6 9 6 4 3 3 2 2 2 2
4 5 5 2 -2 1 3 2 1 1 2 5 2 -1 -0 -1 -0 -1 2 2 2 2 2 2 2 2 4 6 6 6 7 7 7 4 5 6 7 5 5 4 3 3 3 2 2
4 5 5 3 4 -2 3 3 2 1 3 5 3 4 2 0 -0 0 1 2 2 2 1 1 1 4 5 6 7 5 6 6 6 5 5 6 7 5 5 4 3 3 2 2 2
5 5 6 3 5 1 3 4 3 4 4 5 4 2 1 1 1 1 1 2 2 3 3 2 4 4 3 4 4 4 4 6 5 4 6 6 6 4 4 4 4 3 2 2 1
4 5 6 5 4 5 2 4 3 3 4 4 4 4 2 2 3 1 2 3 3 4 3 4 5 2 1 3 5 5 6 5 4 2 4 6 7 5 4 4 4 4 3 2 -0
4 4 6 5 4 5 0 4 2 3 4 4 3 5 5 4 4 2 2 3 3 4 3 4 1 1 2 3 5 6 6 5 5 4 2 3 4 5 4 4 3 3 3 2 1
5 5 6 5 5 3 3 2 3 3 4 3 4 3 4 4 4 3 2 2 3 4 2 3 1 2 3 3 4 5 3 4 5 5 6 5 7 5 5 5 3 3 3 2 2
5 6 6 5 3 1 -1 2 3 4 1 1 3 3 4 4 3 3 3 2 5 3 3 4 3 3 3 3 2 4 1 2 4 5 5 4 7 5 4 5 4 3 2 2 2
5 6 6 5 1 -1 0 2 4 0 2 4 3 3 4 4 3 4 3 3 5 4 3 2 1 1 1 -0 1 2 3 3 3 5 7 3 6 5 6 5 4 2 1 1 2
5 6 6 5 1 1 4 4 3 1 0 5 4 3 3 4 3 3 4 5 6 6 5 5 5 2 2 2 1 2 4 5 6 6 4 0 5 3 4 4 2 2 1 1 3
4 6 6 6 3 3 3 2 2 0 3 3 2 3 4 2 3 4 4 5 4 5 5 5 5 4 3 2 3 4 3 4 4 5 1 5 7 5 3 1 0 1 0 2 3
4 6 6 5 4 4 3 4 1 2 3 3 3 4 4 4 3 4 4 4 2 4 5 5 4 2 1 1 1 4 5 1 3 4 7 7 7 4 4 0 1 1 2 3 4
5 6 5 5 3 3 3 5 2 3 3 3 5 5 5 4 5 4 3 1 2 2 1 1 3 2 2 2 2 3 2 5 5 5 5 7 8 6 4 2 2 2 2 4 5
4 5 6 5 4 3 4 5 3 3 3 4 5 6 5 4 3 3 3 1 1 2 2 2 2 4 3 5 3 5 5 5 2 4 7 7 8 2 1 1 3 3 3 4 5
6 4 5 5 4 3 4 3 2 3 4 4 4 5 6 5 4 3 3 0 -0 1 3 1 5 4 2 1 2 5 4 4 4 3 8 8 6 -1 -1 1 2 2 3 4 4
5 5 5 5 4 4 4 3 3 4 4 4 5 4 4 5 6 3 2 -0 -0 1 3 4 5 6 5 5 4 6 4 5 4 5 4 9 6 -0 -0 1 2 2 3 4 4
4 4 4 5 4 4 4 5 5 3 4 4 4 4 4 4 3 4 2 1 1 1 3 4 6 5 7 8 7 6 5 4 6 7 4 6 6 1 0 0 2 2 3 3 4
4 4 4 4 5 4 4 5 5 5 3 4 4 4 4 4 4 4 3 2 3 2 4 4 7 6 6 5 6 7 6 6 6 6 7 7 6 4 0 -0 2 2 3 3 4
5 5 4 4 4 5 5 5 5 4 4 5 5 4 4 5 2 2 2 2 4 4 5 4 6 5 6 6 7 8 8 7 6 5 6 7 6 -1 -1 -0 2 3 3 3 3
4 4 3 4 4 5 5 5 5 4 4 4 4 5 4 4 2 2 2 1 2 4 4 5 6 7 9 8 8 10 9 6 5 6 6 8 3 -0 1 -0 2 3 3 3 3

GFSSW_850_dewp_027.txt.gz
Dewpoint
6 4 -6 -6 -4 1 1 -1 -3 -6 -3 3 6 8 9 9 9 9 8 7 6 5 4 4 4 3 6 4 8 9 9 9 7 6 5 2 2 1 1 -1 0 1 1 1 2
6 6 1 -6 -3 2 1 -1 -3 -3 -4 -0 7 8 8 9 9 9 7 7 7 6 6 5 4 2 5 6 7 9 10 8 6 5 4 3 3 2 2 1 2 2 2 1 3
6 6 5 -5 -2 1 -1 -2 -2 -3 -2 -3 0 7 8 8 9 7 6 7 7 7 6 6 5 4 5 6 8 9 10 7 7 6 5 4 3 4 2 2 1 2 2 2 2
5 6 4 2 -4 2 -2 -2 -2 -2 -1 -2 -3 -2 5 6 6 5 4 5 5 8 8 7 5 5 5 8 7 7 7 8 8 7 7 7 5 4 3 2 3 2 2 2 2
6 5 5 3 -3 1 -0 -1 -0 -1 -2 -2 -1 -1 1 6 6 3 4 3 4 7 8 9 7 6 5 5 6 6 6 6 6 7 8 7 7 6 6 6 4 4 2 2 2
5 5 5 4 3 -3 2 0 2 1 -1 -2 -2 3 3 4 -3 3 4 4 5 5 8 8 8 6 6 5 4 4 4 5 4 5 6 7 6 7 6 5 5 5 3 2 2
4 5 5 5 3 -3 2 2 3 3 1 -2 -2 0 4 0 -0 -1 3 4 5 5 6 7 8 7 7 6 5 5 6 5 5 4 4 5 6 6 6 6 6 6 4 2 2
5 5 4 5 3 -2 1 3 4 2 3 1 -1 -1 -0 -2 -0 1 2 3 3 4 4 4 6 5 2 4 4 6 5 7 3 4 4 5 6 5 5 5 6 5 3 3 2
4 4 4 6 4 -1 1 4 4 0 1 4 3 1 0 -1 -2 -1 2 2 3 3 3 3 3 2 3 6 6 6 7 6 5 4 4 6 6 4 3 5 5 5 4 3 3
4 4 4 5 4 1 2 4 3 1 3 5 4 3 2 0 -0 -0 -0 1 2 2 1 1 1 4 5 6 6 5 7 5 6 4 4 5 5 4 3 4 5 4 4 3 3
4 4 5 5 5 3 3 5 3 3 3 5 4 3 1 2 1 1 0 1 2 3 3 2 3 4 4 4 4 5 5 5 5 3 4 5 5 5 4 4 4 4 4 4 4
6 5 5 5 6 5 0 4 3 3 4 3 5 4 2 2 3 2 2 2 3 4 3 4 4 2 1 1 3 5 6 5 4 3 3 3 4 2 1 1 4 4 4 3 4
5 5 6 6 6 6 4 2 3 3 3 2 3 5 5 3 4 3 2 2 3 4 4 4 1 1 2 3 4 4 5 3 4 2 2 3 3 -1 -2 0 3 4 4 3 3
4 5 5 5 6 6 5 4 2 3 2 2 4 4 4 4 4 3 2 2 2 4 3 4 2 2 2 3 3 4 3 4 5 5 5 3 5 1 0 0 1 2 4 4 3
1 5 5 6 5 5 4 3 2 3 -1 1 4 4 4 4 3 3 3 2 4 4 3 4 4 3 3 3 2 3 2 4 4 4 4 4 5 2 1 1 2 3 3 3 3
1 3 4 6 5 5 3 1 3 2 1 4 3 3 4 4 4 3 3 3 4 4 3 2 2 2 2 1 1 1 3 3 4 5 6 2 4 1 -3 -1 3 3 3 3 3
0 3 5 5 4 3 1 3 4 2 -0 4 3 3 1 3 3 4 4 5 6 5 5 5 5 3 2 3 1 2 5 5 6 6 4 -0 2 1 -2 0 2 2 2 2 2
2 3 4 4 4 1 2 2 3 0 3 2 2 3 3 3 3 3 4 4 4 5 5 5 6 4 3 2 3 4 4 5 5 4 2 -1 3 0 -2 -4 -4 -4 -1 0 1
2 3 4 5 4 2 2 4 0 0 2 2 2 3 4 2 3 4 4 3 3 2 5 5 3 3 3 2 3 5 5 2 4 1 5 4 3 2 -3 2 2 1 1 0 2
3 3 3 4 3 4 3 2 1 2 2 2 4 3 3 3 4 4 3 1 2 1 1 2 3 2 2 2 3 4 1 5 5 5 4 -1 2 6 1 -1 -4 -2 1 2 3
2 3 4 4 4 4 4 4 2 3 2 4 4 6 4 4 4 3 2 1 0 1 1 2 2 2 3 4 4 5 5 4 3 3 2 3 -2 -6 -0 -1 -1 1 2 3 4
3 3 4 5 4 3 4 3 2 4 3 4 3 4 5 4 5 3 3 1 -0 1 4 2 3 4 2 2 0 1 2 3 4 3 2 2 2 -0 0 -0 1 3 4 5 5
2 3 4 4 3 3 4 3 3 4 4 4 5 4 3 5 6 3 2 -0 0 1 3 3 5 5 5 4 3 5 4 4 3 3 3 3 0 0 -2 2 2 4 5 5 5
2 3 4 3 3 2 4 4 4 3 4 4 4 4 5 5 5 4 3 1 -0 0 2 2 5 5 5 5 5 6 5 5 5 6 4 3 0 -3 -4 1 3 4 5 5 5
4 3 2 4 4 3 3 4 4 5 3 4 4 5 5 6 3 4 3 3 2 2 4 4 6 6 5 4 4 6 6 5 5 4 6 2 1 -1 -0 4 3 3 4 4 5
4 5 3 3 4 4 3 5 5 3 4 4 5 4 4 6 2 3 3 2 3 4 5 4 6 4 5 4 5 7 6 5 4 4 5 5 5 0 2 1 2 3 4 4 4
3 5 3 4 4 5 5 5 5 4 4 3 4 5 5 4 3 2 2 2 2 4 5 5 5 6 6 8 7 8 6 7 6 5 5 7 5 3 2 1 2 3 3 4 4

GFSSW_850_dewp_030.txt.gz
Dewpoint
6 6 5 4 -6 -4 -0 1 -0 -2 -5 -2 4 5 7 8 9 9 8 7 6 5 4 4 4 4 3 4 6 8 8 9 7 6 4 2 2 2 1 1 0 0 1 1 1
8 6 6 5 -2 -4 2 1 -1 -2 -2 -5 2 7 7 9 9 9 7 7 7 6 5 6 5 3 3 5 7 9 9 8 6 4 4 3 3 3 3 3 2 2 2 0 1
7 7 5 5 4 -5 2 -1 -2 -3 -3 -3 -3 7 7 8 9 8 7 7 7 7 7 7 5 4 4 6 7 9 9 7 7 6 6 5 4 4 3 4 2 2 2 5 5
5 7 5 5 5 -2 1 -1 -1 -2 -2 -2 -2 -1 7 8 4 4 5 5 6 8 9 8 6 5 5 7 6 7 7 8 8 7 8 7 6 6 4 3 2 3 4 3 3
4 5 6 5 5 3 -2 -0 -1 -1 -1 -2 0 1 2 7 6 4 4 3 5 7 9 9 7 5 5 5 6 7 6 6 6 5 6 7 7 8 7 7 6 5 5 4 3
5 4 5 5 5 4 -1 1 0 1 -0 -1 -0 3 3 3 -3 2 4 4 5 9 9 9 8 6 6 5 4 4 4 4 4 4 4 5 6 6 6 6 6 5 5 4 4
5 4 4 5 5 4 2 1 2 3 2 -1 -1 1 4 -0 -1 -0 4 4 5 6 7 8 8 7 7 6 5 5 6 4 4 4 4 4 6 6 4 5 5 5 5 4 4
6 5 4 5 5 4 2 0 3 4 3 2 0 -0 -1 -2 -2 -0 0 4 4 5 4 4 5 7 5 3 4 6 5 7 3 4 4 4 6 3 2 3 5 5 5 4 3
5 6 5 6 5 5 2 -0 4 3 1 4 3 2 1 0 -2 -2 0 2 3 3 3 3 3 2 3 5 5 6 6 6 5 3 4 6 6 4 3 4 5 5 5 5 4
4 5 5 5 6 6 1 1 5 3 1 3 5 3 2 1 -0 -0 -0 2 2 2 2 2 2 4 4 5 6 4 5 3 4 4 3 4 5 3 3 3 3 3 3 4 4
0 2 5 5 6 6 2 5 4 3 2 4 5 3 1 2 1 1 1 1 2 2 3 2 3 5 5 4 3 4 5 6 4 3 3 4 3 2 1 2 3 4 4 4 3
1 0 4 5 6 6 0 5 3 2 3 1 4 4 3 3 2 2 1 2 3 4 2 3 4 2 1 2 3 4 5 4 3 2 3 3 3 1 0 0 1 3 3 4 3
0 -0 2 4 6 6 3 3 3 2 2 2 2 4 4 3 4 2 2 2 3 3 4 3 1 1 2 2 3 3 4 3 3 1 1 2 2 -2 -4 -3 -2 -2 -1 1 3
-0 -1 1 5 6 6 4 4 3 1 -1 1 4 4 4 4 3 3 2 2 3 4 3 4 2 2 2 3 3 4 2 3 3 4 4 3 4 -0 -2 -2 -3 -3 -1 2 1
-0 -3 -1 4 6 6 4 4 2 1 2 1 4 4 4 2 3 4 3 2 3 3 3 3 3 4 4 2 2 3 2 3 4 5 5 4 5 1 -2 -2 -2 -1 0 0 -0
-2 -4 -0 2 5 5 4 4 2 -0 3 4 3 4 4 4 3 3 3 3 4 3 3 2 2 2 2 1 1 1 3 3 5 5 6 2 3 1 -3 -4 -5 -1 -1 -1 1
-0 -3 -1 3 5 5 5 3 3 4 0 3 3 2 3 4 3 3 4 5 6 6 5 4 5 3 2 3 2 3 6 6 6 6 4 0 3 0 -4 -5 -3 -2 -1 -0 1
1 0 -0 1 5 5 2 2 2 0 3 2 2 2 2 1 2 3 4 5 4 4 6 5 3 4 3 2 3 3 4 5 5 4 2 -0 2 -1 -4 -5 -5 -5 -4 -3 1
2 2 1 2 4 4 3 3 1 0 2 3 3 2 3 3 2 4 4 3 1 3 5 5 3 2 3 2 1 5 5 2 5 5 5 3 1 -1 -2 -3 -1 -1 -3 -4 -4
2 2 2 3 3 3 3 2 1 -0 1 1 3 2 3 3 4 4 3 1 2 2 1 3 4 1 2 3 2 3 3 5 5 5 5 2 0 -1 -3 -6 -6 -4 -5 -5 -1
2 2 3 3 2 3 4 3 1 3 1 2 3 3 3 3 3 3 2 1 1 1 0 2 3 2 3 4 3 5 5 5 4 4 2 1 -2 -8 -8 -8 -2 0 -3 -4 -3
2 3 3 3 3 3 4 3 2 3 3 3 2 4 4 3 4 4 2 1 -0 1 3 1 4 4 2 1 1 2 3 3 3 3 3 1 -1 -5 -3 -0 1 2 2 1 1
2 3 4 1 3 3 3 3 3 4 4 4 4 3 3 4 6 4 2 0 0 2 3 2 5 4 4 3 1 5 4 2 2 1 3 2 -1 -7 -6 -5 1 3 4 5 5
2 4 3 3 3 3 3 4 4 3 4 3 4 3 4 5 5 5 4 1 1 1 1 1 5 4 4 3 5 6 4 5 5 5 3 4 0 -2 -3 -3 -1 3 5 5 4
2 2 2 3 3 2 2 3 4 5 3 4 4 3 5 6 5 6 4 3 1 1 3 3 6 5 5 4 4 5 6 5 5 4 5 2 1 -1 -3 -0 2 3 5 5 4
3 4 3 2 3 2 3 4 5 3 4 4 5 4 4 6 3 3 2 3 3 3 4 4 6 5 5 4 5 5 5 6 5 5 5 4 4 2 2 3 3 3 5 5 4
2 4 3 3 3 4 4 4 4 3 4 3 3 4 5 4 4 3 1 2 2 4 5 5 5 6 6 5 6 8 6 6 6 5 5 6 3 1 4 5 3 4 5 5 4

GFSSW_850_dewp_033.txt.gz
Dewpoint
5 6 6 6 4 1 -5 3 2 1 -1 -5 -5 -0 5 6 9 9 7 6 6 6 5 5 4 4 3 3 7 8 9 9 7 5 4 2 2 2 2 1 2 1 1 2 2
5 5 8 5 5 4 -4 0 2 0 -2 -3 -5 1 6 7 9 9 7 7 7 7 5 5 5 3 3 5 7 9 10 8 6 4 4 3 3 3 3 3 3 2 2 3 1
3 5 6 6 5 5 1 -2 -0 -2 -2 -2 -4 2 5 7 8 8 8 8 8 8 8 7 6 4 4 5 7 9 9 7 6 6 7 6 6 5 4 5 3 2 1 2 5
4 5 5 7 5 5 4 -3 -0 -2 -1 -1 -2 -3 5 7 7 5 5 5 6 8 8 8 6 4 5 6 6 7 7 8 7 6 7 7 7 7 6 5 4 3 4 4 4
6 4 5 5 6 5 4 -1 0 -1 -1 -1 -0 0 -1 6 7 4 5 4 5 9 8 8 7 5 5 5 6 7 6 6 6 5 5 5 7 7 7 6 6 6 6 5 4
5 6 5 5 6 6 4 4 -0 -1 0 -1 -0 3 1 2 -0 4 4 4 5 8 8 8 7 6 5 5 4 4 4 4 4 4 4 5 4 5 4 3 4 5 5 4 4
3 5 6 5 5 6 4 4 -2 1 2 1 -1 1 2 -1 -1 -1 3 4 5 8 8 8 7 6 6 6 5 5 6 4 4 4 4 4 5 5 4 4 4 3 4 4 3
2 3 5 6 5 6 6 4 -2 3 3 2 2 0 -0 -1 -2 -1 1 4 5 7 6 5 6 7 6 4 4 5 5 6 3 3 4 3 4 3 2 3 4 4 3 2 -2
1 -0 3 5 5 6 6 3 -1 4 3 3 4 2 2 1 -1 -1 0 2 4 5 4 3 5 4 4 5 5 5 6 6 4 2 4 5 5 3 4 3 3 3 4 4 4
-0 -1 0 4 5 6 6 3 3 5 1 2 4 4 3 1 -0 -0 -1 2 2 3 3 3 2 4 4 5 5 5 6 4 3 2 3 3 4 2 1 2 2 2 2 2 3
0 -0 -1 1 4 6 6 5 4 3 2 2 4 3 2 2 1 2 0 2 2 2 3 2 4 5 4 4 3 4 5 5 4 2 3 3 3 2 1 1 1 1 1 1 0
0 0 0 -0 3 5 6 4 2 -0 2 1 4 4 3 2 2 2 1 2 2 3 2 3 4 2 2 3 4 4 5 3 1 0 2 2 2 0 -0 -1 -1 -1 -1 -0 -2
0 0 0 -1 3 3 5 3 2 1 1 1 1 3 4 2 3 3 2 2 2 3 3 3 1 1 2 2 3 3 4 4 3 1 0 1 1 -3 -4 -4 -3 -2 -1 -1 -0
1 -0 1 1 1 4 5 3 2 2 -1 0 3 3 4 4 3 3 2 1 2 4 3 4 2 2 3 3 2 4 2 2 3 3 4 2 2 -3 -4 -4 -4 -4 -3 -2 -2
-1 -0 -1 2 2 5 4 3 3 -0 -0 0 4 4 4 3 2 4 3 2 3 3 3 2 3 4 3 2 2 3 1 2 3 4 4 3 4 -0 -2 -2 -3 -4 -5 -5 -4
1 -0 -1 1 -0 2 5 3 2 2 1 4 3 4 5 3 3 3 3 2 3 3 3 2 1 2 2 1 1 1 2 3 4 4 6 2 4 1 -2 -4 -5 -5 -6 -6 -6
2 1 0 -1 1 2 4 4 3 2 0 4 3 4 3 3 3 3 4 4 5 5 5 4 4 2 1 3 2 2 6 5 6 6 5 -0 4 1 -3 -4 -4 -5 -6 -7 -6
2 2 -0 1 0 3 4 3 3 1 2 1 2 2 3 2 2 3 4 5 3 4 5 5 3 4 3 3 3 4 4 5 5 4 2 -1 3 -0 -3 -4 -5 -6 -6 -6 -5
2 2 1 1 1 4 3 4 1 1 2 3 2 3 3 2 2 3 4 3 2 4 5 5 3 2 2 2 1 5 5 2 4 3 6 2 -1 -3 -4 -3 -4 -4 -5 -4 -5
2 2 2 1 1 3 3 4 -0 0 1 1 3 2 3 3 4 4 4 1 2 2 1 2 3 0 2 2 2 4 2 5 5 5 5 3 2 -0 -3 -5 -8 -6 -0 -0 -1
1 2 2 2 2 2 4 3 2 1 0 1 3 3 2 3 3 4 2 1 1 1 2 2 3 1 3 4 3 4 4 5 4 5 4 2 -1 -6 -6 -7 -6 0 0 1 -1
2 2 2 3 1 0 4 2 3 3 2 3 2 3 3 2 3 3 3 1 -0 1 3 2 3 4 2 0 0 1 3 3 5 4 4 4 2 -6 -6 -3 -0 -3 1 1 3
2 3 2 2 3 3 3 3 3 3 3 3 3 3 3 3 4 3 2 0 0 1 2 1 4 4 1 2 1 3 2 2 4 4 5 4 -0 -6 -6 -5 -4 -0 1 3 4
2 3 2 2 3 3 3 4 4 3 3 3 3 3 3 4 3 4 4 2 0 1 1 1 3 3 3 1 4 5 4 3 5 5 3 4 1 -3 -4 -3 -3 -1 2 4 4
2 3 2 2 3 2 2 3 4 4 3 3 4 3 3 5 4 4 3 2 2 1 2 3 6 4 3 3 3 5 5 5 5 4 5 2 4 1 -1 -2 -0 2 3 5 4
3 4 2 2 3 2 2 3 3 4 3 4 4 3 3 4 4 4 3 3 2 2 3 3 6 5 5 4 4 6 5 5 5 5 5 4 4 0 -1 1 2 4 4 5 4
2 3 3 2 3 4 3 2 3 3 3 2 3 3 4 4 3 3 2 1 2 3 4 5 5 6 6 4 6 8 7 7 6 5 4 5 2 0 1 1 3 3 4 5 5

GFSSW_850_dewp_036.txt.gz
Dewpoint
4 5 5 6 7 5 4 -2 -0 2 1 0 -4 -2 5 5 6 9 9 7 6 6 5 5 5 5 4 4 8 7 3 3 2 1 0 1 0 -1 1 1 2 0 1 3 2
7 5 5 5 8 6 5 3 -4 1 -0 -1 -3 -1 7 7 7 8 7 7 7 6 7 6 5 4 4 5 6 5 5 2 1 1 1 1 1 2 2 1 0 2 2 3 3
6 7 5 5 6 7 5 4 -4 0 -2 -3 -2 -2 7 8 8 8 8 8 8 8 8 6 5 4 3 5 5 5 5 2 5 4 5 4 4 4 2 2 1 1 1 3 5
4 6 6 5 5 7 5 4 1 -0 -2 -1 -1 -3 3 7 7 7 6 7 8 9 9 8 6 4 4 4 4 6 4 5 4 6 6 6 5 5 4 2 1 3 4 4 5
3 3 6 6 5 6 6 4 4 -2 -1 -1 -1 -1 2 6 5 4 4 4 4 8 9 8 6 5 4 3 5 4 3 3 4 5 4 3 3 3 3 4 5 5 5 5 5
2 3 4 5 5 5 7 4 4 -1 -1 -0 -1 1 2 2 2 5 4 3 6 8 9 8 7 5 4 4 4 4 4 4 4 4 3 3 2 2 2 2 1 2 3 3 4
1 1 2 4 6 5 6 5 4 -1 -0 1 -0 -0 2 1 -1 -1 4 4 5 8 8 8 7 6 6 5 5 4 5 3 2 2 2 2 3 2 1 1 1 1 1 1 1
0 1 -1 2 4 6 6 6 4 0 1 2 1 -0 1 -1 -1 -0 0 5 5 8 7 7 7 7 5 4 3 3 3 4 2 2 2 2 2 -1 0 1 2 1 1 0 1
0 0 -1 -1 2 5 6 7 4 0 3 3 3 2 3 1 -0 -1 1 4 5 5 4 6 6 5 4 5 5 3 4 4 3 1 2 3 4 1 2 1 2 1 2 2 3
-2 -1 -0 -2 1 4 5 6 4 4 4 4 4 4 3 2 -0 -1 1 3 4 4 3 4 3 2 2 3 4 2 3 2 2 0 1 1 2 1 1 0 1 1 1 1 2
-1 -1 -1 -0 -0 2 3 6 5 4 4 2 3 2 2 2 2 1 2 2 3 3 3 3 4 4 2 2 1 2 3 3 2 0 1 1 1 -0 -1 -1 -1 -1 -1 -1 -0
-0 -1 1 0 0 1 4 4 4 2 3 3 4 3 3 3 3 3 2 2 1 3 2 3 4 1 0 1 3 3 3 3 1 -1 0 -0 -1 -3 -4 -4 -4 -4 -4 -5 -4
-1 -1 -1 1 1 1 3 2 3 -1 1 3 3 3 4 3 2 3 2 2 1 3 3 3 1 -0 2 2 3 3 3 2 2 -0 -1 -1 -1 -3 -6 -7 -6 -5 -5 -5 -5
-1 -1 0 1 -0 -1 1 1 4 3 5 3 3 2 3 3 2 3 2 2 2 2 2 2 -0 1 2 2 2 3 -1 1 1 2 3 0 2 -2 -4 -5 -6 -6 -6 -5 -4
-1 1 1 2 0 2 3 2 4 3 7 1 3 4 3 1 2 4 3 2 2 2 2 3 3 3 2 2 1 2 -0 1 1 2 2 2 5 -1 -3 -3 -4 -5 -6 -6 -5
1 1 2 2 -1 0 3 3 3 5 5 4 3 4 4 1 2 4 3 3 1 2 2 0 1 1 1 0 0 0 2 2 2 3 6 1 3 -0 -4 -4 -5 -7 -7 -7 -7
0 1 2 2 -0 -1 2 3 4 6 1 4 3 4 3 3 4 3 4 4 4 6 5 2 2 1 1 2 1 2 5 4 6 6 4 -3 -1 0 -5 -5 -5 -6 -7 -6 -6
0 1 1 2 0 -0 3 3 6 2 2 1 2 3 4 2 3 3 4 5 2 2 4 5 5 3 2 2 2 3 3 4 4 0 -1 -1 1 -3 -6 -6 -6 -6 -6 -6 -5
1 1 1 -2 -1 2 2 5 4 1 1 2 2 3 3 2 2 3 3 3 2 2 5 5 4 0 1 1 1 4 5 1 4 3 4 -0 -4 -6 -7 -6 -6 -7 -7 -5 -3
1 1 1 0 2 2 2 5 0 1 0 0 3 1 3 2 3 2 2 1 1 1 0 2 5 0 1 2 2 2 0 5 5 4 2 -2 -2 -3 -5 -6 -6 -7 -6 -3 -3
1 1 2 1 2 1 4 4 2 0 -0 1 2 2 2 3 2 2 2 0 0 1 1 2 2 2 2 3 2 4 5 5 2 2 4 1 -2 -8 -7 -8 -7 -9 -4 -3 -1
1 3 2 2 2 1 4 3 1 2 2 2 1 1 1 2 2 2 2 1 -0 1 3 0 2 3 1 -2 -2 -2 1 1 5 3 4 4 3 -5 -7 -7 -5 -5 -6 -2 1
2 2 2 1 3 4 3 4 3 2 2 2 3 2 1 2 3 1 2 0 0 1 1 1 4 4 1 3 0 3 1 0 3 4 6 6 2 -4 -6 -6 -6 -6 -5 -3 2
1 3 2 2 3 2 5 4 4 3 3 2 2 1 2 3 2 3 3 1 0 -0 0 0 2 2 2 2 3 6 4 3 5 6 4 4 2 -2 -2 -2 -4 -4 -4 0 4
3 3 2 4 3 2 2 3 3 4 3 2 3 2 2 4 4 5 3 2 1 1 1 1 5 3 2 1 2 4 5 5 5 5 5 3 3 2 0 1 -1 -2 1 3 4
2 4 3 2 2 3 2 3 3 3 3 4 3 3 2 3 3 4 2 2 3 2 2 2 5 6 5 3 4 6 6 6 6 6 5 5 5 0 -1 -1 -1 -1 0 3 4
1 2 3 3 2 2 2 2 2 2 2 1 2 2 3 2 2 2 3 2 1 2 3 4 5 5 7 4 5 8 8 7 7 6 5 6 3 -0 0 0 1 3 3 4 4

GFSSW_850_dewp_039.txt.gz
Dewpoint
7 7 6 5 5 6 7 5 3 -5 -1 1 1 -4 -1 5 4 6 8 8 8 6 5 7 5 5 4 4 5 6 5 3 1 -2 -2 -3 -2 -2 -2 -1 -1 -2 -1 4 5
5 6 6 6 5 6 8 5 4 -2 -1 1 -1 -3 2 6 7 7 8 9 7 6 6 6 5 4 4 3 4 5 4 1 -3 -4 -2 -2 -1 -2 -1 -1 -2 -0 0 3 5
3 3 5 6 6 5 6 6 4 1 -0 -2 -2 -3 5 7 8 8 7 7 7 7 8 5 4 4 3 3 3 4 5 -1 -2 2 2 1 -1 0 1 1 -2 -2 -0 2 4
2 3 3 5 6 6 5 7 4 3 -1 -2 -2 -3 4 8 8 9 8 8 9 8 9 6 5 4 2 4 3 4 2 1 1 3 4 4 2 1 1 1 -1 -0 2 3 3
1 2 3 3 5 6 5 7 5 4 -1 -1 -1 -1 3 5 6 6 6 7 7 9 9 7 5 4 4 2 2 3 2 1 2 3 3 4 3 2 2 2 2 2 2 4 4
1 1 0 1 3 5 6 5 6 4 -0 -0 -1 -0 4 4 3 5 4 5 6 9 9 8 7 5 4 2 3 2 2 2 2 2 2 3 2 1 0 0 0 1 1 2 3
1 1 1 0 -0 4 6 5 7 4 0 -0 0 2 4 1 1 2 4 6 8 7 8 8 7 5 5 5 4 4 4 3 2 2 2 2 3 2 1 0 -0 -0 -1 -1 -1
0 0 -1 1 -0 0 5 5 7 5 0 1 1 4 3 2 3 -2 4 5 7 8 8 8 7 6 6 4 3 3 3 5 0 1 0 1 3 -2 -2 -1 -1 -1 -1 -1 -1
0 -0 -2 -1 -1 -1 3 5 6 5 0 2 3 4 2 1 0 1 2 4 5 6 7 8 7 6 6 5 4 3 4 3 1 -0 1 2 3 -1 1 1 -1 -0 -0 -0 -1
-0 -2 -1 -2 -0 -1 1 4 5 5 4 5 5 4 3 2 2 1 2 4 4 4 5 5 4 4 4 5 6 3 3 2 1 -0 0 1 1 -1 -2 -1 0 0 0 0 -0
-2 -2 -1 -2 -2 0 0 4 5 5 5 4 3 1 3 2 2 2 2 4 3 3 3 2 3 4 2 1 1 0 2 2 -0 -1 1 0 -0 -2 -3 -2 -2 -2 -1 -1 -1
-0 -1 -2 -1 -0 0 0 2 3 4 4 3 3 3 3 2 2 1 2 2 3 4 2 4 5 1 -1 -0 1 2 3 2 -0 -1 -1 -1 -1 -3 -4 -4 -4 -4 -4 -3 -3
-0 0 0 -2 1 0 1 -1 2 4 4 3 3 3 3 3 1 2 2 1 1 2 2 4 1 -1 0 1 2 2 2 1 1 -1 -2 -1 -1 -3 -5 -5 -5 -5 -5 -5 -5
-0 1 0 -1 0 1 1 -3 2 3 5 4 3 3 4 3 2 2 2 1 1 1 1 2 -1 -0 1 2 1 3 -1 -1 0 1 3 -0 3 -2 -4 -5 -6 -6 -6 -6 -6
-0 -0 1 1 2 1 2 -2 2 3 8 3 2 2 3 1 2 3 1 2 1 0 1 3 2 2 2 1 -1 1 -0 0 1 2 2 2 3 -0 -6 -4 -5 -6 -6 -6 -6
-0 -0 1 1 1 1 2 1 1 4 7 4 4 3 2 0 2 3 2 2 0 -0 1 1 -0 0 1 -0 -1 -0 1 1 1 3 6 1 1 -1 -5 -8 -9 -8 -7 -7 -7
-1 0 1 1 2 2 1 2 3 6 1 5 3 3 2 2 2 3 4 4 4 6 5 2 1 -0 -1 1 0 1 4 5 6 6 4 -4 -2 -2 -6 -7 -7 -7 -7 -7 -8
0 1 1 1 2 1 1 3 6 4 2 -0 2 3 3 2 2 2 3 4 1 1 3 4 6 1 1 2 2 2 3 4 4 -1 -1 -3 0 -3 -7 -8 -8 -7 -7 -8 -7
1 0 1 1 2 0 1 4 6 1 1 2 3 5 4 1 2 3 3 3 1 1 5 4 4 -0 1 0 -0 2 5 1 3 1 3 -1 -4 -6 -7 -7 -8 -8 -8 -7 -7
1 1 2 2 2 1 3 5 1 -1 -0 1 3 1 3 3 3 2 3 0 1 -0 -1 3 5 -0 1 0 0 1 -0 4 5 5 3 -2 -3 -3 -5 -7 -8 -8 -8 -7 -5
1 1 2 0 1 2 4 5 2 -1 -1 0 1 1 0 2 1 2 2 0 -1 -0 -1 1 2 2 1 3 2 3 4 3 1 3 4 2 -1 -6 -5 -5 -6 -8 -9 -6 -5
1 2 2 2 3 2 4 4 -0 0 1 1 -1 -1 0 0 2 2 2 0 -1 -1 2 0 3 4 1 -2 -3 -1 1 1 5 3 3 5 4 -4 -4 -5 -5 -5 -5 -6 -5
0 2 3 3 4 4 3 3 1 2 2 1 2 0 -0 1 3 1 1 -0 -1 -0 0 0 3 4 3 2 -1 1 0 -0 2 4 6 7 3 -4 -4 -4 -3 -3 -4 -6 -5
1 3 2 3 3 3 5 4 3 3 2 1 1 0 1 1 1 1 1 1 -0 -1 1 -1 2 3 3 4 2 6 2 2 5 6 4 4 3 0 -1 -1 1 -2 -2 -2 -3
3 3 2 3 2 1 2 2 3 2 2 1 2 1 1 3 3 3 1 2 1 1 0 1 4 2 1 1 1 3 4 4 6 6 6 5 5 3 2 0 1 2 1 -1 -1
2 3 3 1 1 0 2 3 4 3 1 2 2 1 1 2 1 3 2 2 2 1 2 2 5 6 4 2 3 6 4 5 7 7 6 6 6 2 -0 -0 -1 0 -0 -1 2
1 2 4 2 0 2 1 1 1 1 2 1 1 2 2 1 1 1 2 1 0 3 3 3 5 5 5 3 3 7 8 7 7 6 6 6 3 0 1 1 3 3 4 4 4

GFSSW_850_dewp_042.txt.gz
Dewpoint
4 4 6 6 7 6 6 6 6 5 2 -4 2 1 -2 -0 3 4 6 7 7 8 4 8 7 5 4 4 3 4 7 6 5 2 0 -4 -2 -2 -2 -2 -3 -2 -2 4 10
2 3 3 5 6 6 6 6 7 5 4 -4 1 -0 -3 4 6 8 4 8 9 8 6 6 6 5 4 4 3 6 8 7 1 -1 -0 -3 -3 -2 -2 -2 -1 -1 -0 2 4
1 2 3 4 4 6 6 6 7 6 4 -3 -1 -2 -3 8 7 7 7 8 8 8 6 6 5 4 4 3 3 4 7 2 -0 -2 2 3 2 -1 -0 1 -1 -2 -1 1 4
2 1 2 3 3 4 5 6 6 7 5 -2 -2 -3 -1 8 7 8 8 7 8 7 8 7 4 3 4 4 2 4 2 2 2 1 3 4 3 3 1 0 0 0 0 2 3
1 1 2 2 2 2 4 6 6 7 5 -1 -1 -1 1 7 7 7 5 8 8 8 8 8 5 4 4 2 2 3 2 2 1 2 2 3 4 4 3 2 1 1 1 2 3
1 1 1 1 2 1 0 5 6 7 6 1 -1 0 1 4 4 6 4 5 7 9 8 8 5 4 4 3 2 2 2 2 1 1 2 2 2 2 1 0 1 2 2 2 2
0 1 1 1 0 1 1 2 6 6 6 2 -0 0 4 3 1 4 3 5 6 7 8 8 7 5 5 5 4 3 4 3 2 2 2 1 3 3 1 1 1 -0 -0 -0 0
0 0 0 0 -1 -3 -1 0 5 6 6 2 0 4 4 3 3 -0 3 5 6 7 8 8 8 6 6 4 3 4 4 7 2 2 1 2 4 0 -0 0 0 0 -0 -1 -1
0 -0 -0 -2 -1 -1 -2 -2 2 3 6 3 1 5 3 2 2 1 3 5 6 6 7 8 7 6 5 5 6 4 5 4 3 1 1 1 3 1 0 -0 0 -0 -1 -1 -1
-2 -1 -2 -2 -1 -1 0 -0 0 4 6 3 5 4 3 2 1 1 3 4 5 6 7 8 7 7 6 6 8 5 5 4 3 1 1 2 2 0 -1 -1 -1 0 0 -0 -0
-2 -0 -1 -1 -2 -2 -0 -1 1 3 5 4 4 2 2 2 2 1 3 4 3 5 5 5 6 7 6 5 4 3 2 2 0 -1 -0 1 0 -1 -2 -2 -2 -2 -2 -1 -0
-2 -0 -1 0 -0 -0 0 2 1 4 5 4 4 2 2 2 2 2 3 3 3 4 2 3 5 2 1 0 1 1 2 3 1 -1 -1 -0 -0 -2 -3 -3 -4 -3 -3 -2 -2
-1 -0 -0 1 0 -0 -1 1 -1 2 3 4 3 2 3 2 2 2 2 2 3 4 4 4 1 0 2 1 2 2 3 2 2 -0 -1 -1 0 -2 -4 -4 -4 -4 -5 -5 -4
-1 -1 -0 1 1 1 -1 -1 1 1 3 6 4 3 3 2 2 2 2 1 1 3 3 3 1 -1 1 2 1 3 -0 0 0 2 3 0 4 -1 -3 -4 -5 -6 -5 -5 -5
-1 -0 -1 1 1 2 2 1 0 1 5 5 3 3 3 2 2 2 1 1 1 1 2 3 1 2 2 1 -0 1 0 1 1 2 3 2 3 0 -4 -4 -5 -6 -6 -6 -6
-2 -1 -0 0 2 -0 1 1 1 3 5 5 3 3 4 2 2 1 2 1 1 -0 -0 1 -1 -0 1 -1 -1 -0 0 1 2 3 5 2 3 2 -4 -6 -7 -7 -6 -6 -6
-1 -2 -0 1 2 1 2 1 2 4 4 5 4 2 2 3 3 2 3 3 4 5 5 2 2 -1 -0 1 -0 0 2 4 6 5 4 -2 2 -0 -6 -7 -7 -7 -7 -7 -7
0 1 1 2 2 2 2 2 3 2 6 0 3 2 3 2 3 3 4 4 2 2 4 4 5 2 0 1 2 2 3 4 6 5 4 -1 2 -2 -6 -7 -8 -8 -8 -8 -8
1 0 2 2 2 1 2 4 3 3 1 3 3 4 4 2 3 3 3 3 1 1 4 3 4 -0 1 0 1 2 4 1 4 2 2 0 -5 -7 -8 -8 -8 -8 -8 -8 -8
1 1 2 1 1 -1 2 5 4 0 0 2 4 2 4 3 3 4 3 0 0 -1 -1 3 5 0 1 -1 -0 1 -0 4 4 2 4 0 -1 -2 -4 -3 -3 -5 -7 -7 -7
1 1 2 1 1 2 4 4 3 -1 -0 1 1 1 1 2 2 2 1 0 -1 -1 -1 1 2 2 1 3 3 2 3 2 2 4 4 4 1 -4 -2 -2 -2 -3 -5 -5 -5
1 2 2 -0 2 2 4 4 2 1 1 -1 -1 -1 0 0 2 1 2 0 -1 -1 1 -0 3 4 3 -1 -0 0 2 1 3 2 3 4 3 -3 -4 -4 -4 -4 -5 -5 -6
1 2 1 2 3 4 2 4 1 2 1 1 0 -1 -1 1 2 1 1 -1 -1 -1 1 1 3 3 3 2 -1 1 0 1 2 3 5 5 2 -4 -4 -2 -2 -2 -3 -3 -3
2 3 2 3 3 3 5 4 4 2 2 1 1 -1 -0 1 0 2 2 0 -1 -0 -1 -1 2 3 4 4 3 3 2 1 3 6 4 4 2 0 1 2 2 2 1 1 -1
3 2 2 3 3 4 3 3 3 3 2 1 1 1 1 2 2 1 1 2 0 1 -0 0 4 3 2 1 1 2 3 3 6 6 6 5 6 5 5 3 2 1 1 1 1
2 3 3 1 0 2 3 3 3 2 1 2 2 1 1 2 2 2 2 2 3 1 1 1 4 3 3 2 2 3 3 4 4 5 6 7 7 3 2 0 3 4 4 3 3
2 2 3 1 1 1 2 2 2 1 2 1 1 2 2 2 1 1 1 0 1 2 2 3 4 5 5 4 4 6 5 6 7 6 6 7 5 3 3 3 4 5 5 5 4

GFSSW_850_dewp_045.txt.gz
Dewpoint
2 2 3 4 5 5 6 6 6 7 6 5 -1 -2 1 0 -2 5 5 -2 5 7 5 5 5 4 5 4 3 4 6 7 6 5 3 -0 -2 -2 -2 -3 -2 -2 4 9 10
1 2 2 2 4 4 5 6 6 6 7 6 2 -2 0 -1 2 5 -0 1 3 6 7 8 7 6 5 4 4 4 7 7 3 2 1 1 2 -0 -2 -2 -2 -2 3 9 9
2 1 2 1 3 3 3 5 6 6 7 6 3 -1 -1 2 6 2 1 2 8 8 8 6 6 5 5 4 4 4 7 5 5 3 2 3 2 2 0 0 -2 -2 -0 3 1
1 1 2 2 2 2 3 3 4 6 7 7 3 -1 -1 6 6 8 6 3 9 8 7 5 6 6 5 5 4 5 3 4 3 2 2 4 4 4 3 1 2 0 0 0 5
1 1 1 1 1 1 1 1 3 5 6 7 3 -1 1 6 6 7 7 7 8 7 6 8 7 5 4 3 3 3 3 2 2 2 1 2 3 4 3 3 1 1 1 2 2
1 -1 0 1 1 0 2 1 0 4 6 7 3 1 2 6 4 6 4 6 8 8 7 7 6 4 4 4 3 1 2 3 2 3 2 2 2 2 2 2 1 2 1 2 2
0 0 0 0 0 0 1 1 -0 3 6 7 4 2 4 3 2 5 4 4 6 7 8 7 7 5 5 4 4 3 4 3 3 3 3 2 3 3 1 1 1 0 0 1 1
-0 -1 -2 -1 -3 -0 -1 -2 -3 -2 5 7 4 1 4 1 2 2 3 5 7 7 7 8 8 6 6 4 3 4 4 7 4 2 2 2 4 1 1 1 1 1 0 -1 -0
-2 -2 -2 -2 -2 -2 -1 0 -2 -5 3 7 3 3 3 2 3 2 3 3 7 7 8 8 8 7 5 5 6 5 6 6 5 1 2 3 4 1 1 0 0 0 0 0 -0
-1 -3 -2 -1 -1 -1 -1 -2 -3 -2 1 5 3 4 3 2 3 3 2 5 6 6 8 8 7 7 7 7 8 6 6 4 4 2 1 2 3 1 0 -0 -1 -1 -1 0 -0
-2 -3 -2 -1 -1 -0 0 -2 0 1 3 3 4 3 2 2 1 1 3 4 6 6 7 7 7 8 6 6 5 4 4 3 1 -0 -0 1 2 0 -1 -1 -1 -1 -1 -2 -2
-0 -2 -1 0 0 1 1 0 0 2 2 3 5 3 2 1 1 2 3 3 4 6 3 4 5 4 4 5 6 4 3 3 1 -1 -1 -0 -0 -2 -3 -3 -3 -3 -3 -3 -3
-2 -2 -1 -1 -1 0 1 -0 -0 0 1 4 5 3 2 2 2 2 3 3 3 5 3 4 1 1 2 3 2 2 3 3 3 0 -1 -0 0 -1 -3 -4 -4 -3 -4 -4 -3
-2 -2 -1 -1 1 0 1 0 0 0 3 4 5 4 2 2 2 2 3 2 3 3 3 3 1 0 2 3 1 4 0 1 1 2 3 0 4 1 -2 -4 -5 -4 -4 -4 -4
-1 -1 -2 -1 0 1 1 1 2 -0 4 4 5 3 2 3 2 2 3 1 3 3 3 3 2 2 1 2 1 2 1 1 1 2 2 2 3 1 -1 -3 -5 -6 -6 -6 -6
-2 -2 0 -0 1 0 2 1 -1 2 3 5 4 4 4 2 2 2 2 1 0 1 1 1 -1 0 1 -1 -0 -0 1 1 1 2 4 2 2 0 -2 -5 -6 -8 -7 -6 -6
1 1 1 1 1 1 2 -1 -0 2 2 5 5 4 4 4 3 2 3 3 3 3 3 2 2 -1 -0 2 -0 2 2 2 6 6 4 0 3 1 -3 -5 -7 -7 -7 -7 -7
2 0 2 1 2 1 0 2 1 -1 3 4 4 3 6 3 3 3 4 3 2 2 3 2 3 2 -0 1 2 2 2 2 5 5 3 -0 3 -1 -5 -6 -7 -7 -8 -8 -8
-0 1 1 1 1 1 1 3 2 5 4 5 4 4 5 3 4 3 3 3 1 1 3 3 3 1 0 -0 1 2 4 1 3 1 -0 1 -3 -6 -6 -3 -5 -6 -6 -6 -8
0 0 1 2 2 1 2 4 4 4 2 2 5 3 5 4 4 4 3 1 1 0 -1 3 4 2 2 -0 1 0 -0 2 0 0 3 2 -1 -2 -4 -3 -3 -3 -4 -4 -5
0 1 1 1 1 1 3 4 3 2 1 2 2 3 1 4 3 3 3 1 -1 -0 -1 1 2 3 2 2 3 2 4 2 2 2 3 5 2 -4 -3 -3 -3 -3 -2 -2 -2
1 2 2 1 1 2 3 2 4 3 2 0 -1 0 1 1 3 1 2 1 -2 -2 1 0 3 5 3 0 -0 1 1 1 1 1 2 1 3 -4 -4 -3 -3 -1 0 -0 -0
-0 1 1 2 3 3 2 3 3 4 2 1 0 -1 -1 1 2 1 2 -0 -1 -1 1 1 4 1 3 1 0 2 1 1 1 3 1 3 2 -4 -4 -2 -1 2 3 2 1
1 1 1 3 2 3 5 4 5 2 2 0 -1 -2 -0 1 1 3 3 0 -0 1 -0 -1 2 1 2 2 2 2 2 1 2 4 3 3 1 -1 -1 2 3 3 3 2 2
3 2 2 3 3 4 4 3 4 3 1 1 0 -0 1 2 1 2 2 1 0 1 -0 1 2 2 2 2 2 2 3 3 3 3 5 2 3 3 3 4 4 3 3 3 4
2 2 3 3 3 3 4 4 4 3 2 2 2 2 1 2 2 1 2 2 2 1 1 1 1 3 0 1 2 2 3 3 3 3 5 5 6 3 3 4 3 5 5 4 3
2 2 3 1 1 1 2 2 2 1 1 1 1 3 4 4 1 1 1 0 1 1 1 3 3 0 2 2 4 5 4 3 3 4 5 8 5 5 5 5 4 3 3 3 5

GFSSW_850_dewp_051.txt.gz
Dewpoint
3 2 3 2 1 2 2 2 2 3 5 6 7 7 6 3 4 5 3 -2 -5 7 7 7 8 7 7 4 4 4 6 7 4 4 2 0 1 0 -0 -2 -2 -1 2 4 6
3 3 2 2 2 2 1 2 2 3 3 5 6 7 6 5 4 5 -5 -3 -3 7 8 7 7 8 7 5 4 4 6 6 4 2 3 2 2 2 1 -0 -2 1 4 7 10
1 2 2 2 1 0 2 1 1 2 2 4 5 6 7 5 4 -0 -6 -4 -3 7 8 8 8 7 6 5 4 4 6 3 4 4 4 3 2 3 3 2 -1 1 10 11 11
-1 -0 -0 -0 1 -0 1 1 1 1 2 2 5 6 7 3 4 8 8 -1 -3 7 9 8 8 7 6 5 4 5 4 4 3 3 3 3 3 4 3 2 1 2 4 10 11
1 1 -0 0 -1 -1 1 0 1 1 1 2 3 6 6 4 1 6 7 6 0 8 8 9 9 7 6 5 4 4 3 3 3 3 3 2 2 3 3 1 2 2 2 2 3
1 -0 -2 -2 -1 -2 -2 -2 -1 1 -1 0 3 5 6 3 2 -2 7 7 1 8 8 8 8 7 5 4 5 3 3 3 3 2 2 3 2 2 2 1 1 2 2 2 1
1 -2 -2 -2 -2 -2 -1 -2 -2 -2 -4 -1 2 5 5 3 1 -2 6 8 5 8 7 8 7 7 5 4 3 3 4 3 3 3 3 2 3 3 2 2 1 0 0 0 0
0 -2 -2 -2 -3 -2 -2 -2 -2 -4 -1 -3 1 4 5 4 2 4 6 6 6 7 6 6 7 6 5 4 4 4 4 6 3 2 2 2 4 1 0 1 1 1 -0 -1 -2
-1 -2 -0 -1 -2 -1 -1 -0 -1 -3 -4 -3 0 2 4 3 1 5 5 6 6 6 7 6 6 7 5 5 5 4 6 6 4 2 2 3 4 1 0 0 0 -1 -2 -2 -2
0 -0 -2 -4 -4 -1 0 -1 -3 -4 -4 -2 -0 4 4 3 1 5 5 5 7 8 8 8 7 8 6 6 8 7 6 5 5 2 2 3 4 2 2 1 1 1 1 0 -0
-1 -0 -1 -2 -1 -2 0 -2 -2 0 0 2 4 4 4 2 1 4 4 5 7 8 8 8 8 9 7 5 4 4 5 5 3 0 -0 0 0 -1 -2 -2 -2 -2 -0 0 0
0 -1 -1 -1 -1 -2 -1 0 -0 0 -0 1 3 4 3 3 3 2 2 5 7 7 7 7 8 6 7 7 6 6 6 5 2 0 -0 0 0 -1 -2 -3 -3 -3 -3 -2 -2
-1 -1 -1 -1 -1 -4 -0 1 -0 0 1 2 2 3 4 3 3 3 3 5 6 6 5 6 4 6 6 7 7 6 4 3 3 0 -1 -0 -1 -2 -4 -4 -4 -4 -4 -4 -4
-1 -1 0 1 1 -1 -2 0 -1 0 -1 2 3 3 3 1 2 3 3 4 5 4 4 2 1 5 4 5 3 3 0 1 1 2 3 -0 3 -0 -3 -3 -3 -5 -5 -6 -6
0 0 2 1 2 1 -2 -0 -1 1 2 2 3 4 3 2 2 3 3 2 4 4 2 3 2 3 3 3 1 2 0 1 1 2 1 1 3 -1 -4 -4 -5 -7 -7 -7 -7
2 0 -1 1 0 1 1 1 1 1 4 4 4 5 4 2 3 3 3 1 2 2 1 1 0 -0 0 0 -0 0 -0 1 1 1 1 0 2 -1 -3 -4 -6 -6 -4 -3 -4
2 2 0 1 2 1 1 1 -3 2 2 4 5 3 3 4 4 4 3 2 5 6 5 2 2 -1 -0 1 0 -0 0 0 1 1 2 1 2 0 -2 -3 -4 -5 -3 -2 -2
1 1 2 1 0 -1 -1 -1 0 1 2 3 4 3 6 4 5 4 3 5 1 2 3 4 5 1 -1 1 2 1 0 1 1 4 3 -0 3 -2 -4 -6 -6 -3 -2 -2 -3
-0 -0 1 2 1 -0 1 3 3 3 3 5 4 5 6 4 5 5 3 3 2 0 2 2 3 0 -0 -0 -0 2 1 -1 1 -1 1 0 -2 -8 -4 -4 -3 -3 -3 -1 1
-1 -0 1 1 1 0 1 3 3 2 3 2 4 5 4 5 5 5 3 1 1 0 -0 0 3 2 1 -0 0 -0 -0 2 -1 -4 1 -1 -0 -4 -5 -3 -3 -3 -3 -1 2
-1 -0 -0 -0 -0 -0 1 3 3 3 3 2 3 3 3 3 3 3 3 1 -1 -0 -1 0 1 4 1 2 3 2 2 1 0 -0 0 3 -2 -4 -5 -3 -2 -3 -3 1 2
-1 0 0 1 -0 1 3 2 3 4 3 2 -0 1 2 2 3 2 2 1 -1 -1 1 0 1 4 3 0 -0 0 1 0 0 -0 -0 -0 1 -4 -3 -4 -3 -3 -2 2 3
-0 1 1 2 1 3 3 3 3 4 4 1 -0 -1 0 1 2 1 1 -0 -0 -0 1 0 1 1 2 0 -0 2 1 -0 -1 -1 0 1 0 -4 -4 -3 -2 0 2 4 4
1 -1 1 1 1 3 4 4 4 3 1 -1 -0 -1 0 1 1 2 2 2 -0 -1 -0 -1 0 0 2 -0 0 1 2 1 -0 0 1 1 0 -2 -2 -1 -0 3 4 4 4
2 2 2 3 3 3 3 4 3 3 1 -0 -0 -1 1 2 2 3 1 1 1 1 0 -0 2 2 1 1 2 2 1 2 -0 1 1 1 1 -1 -2 -1 1 4 3 2 1
1 1 2 2 2 2 2 3 3 2 2 2 3 2 2 2 2 3 2 1 1 0 1 -1 2 2 0 0 2 2 2 2 2 1 2 2 2 -1 -1 2 4 2 0 -0 -1
1 1 2 1 1 1 2 2 2 2 2 2 2 3 4 3 2 0 -1 -0 -0 1 1 1 3 1 1 0 2 2 2 1 1 1 1 3 1 2 3 4 3 1 -2 -3 -4

GFSSW_850_dewp_054.txt.gz
Dewpoint
2 2 2 3 2 2 2 2 2 3 2 3 5 6 7 7 5 4 5 -1 -2 5 8 5 9 8 8 5 4 4 6 6 4 4 2 0 0 0 0 0 -2 -2 -0 3 7
2 2 2 0 1 1 1 1 2 2 2 1 3 5 6 7 6 5 -1 -5 -4 4 9 7 8 9 8 6 5 4 6 6 3 1 1 2 2 2 2 1 -1 0 7 5 9
2 2 2 2 1 -0 1 -0 -1 1 1 1 1 3 4 6 6 5 3 -2 -5 3 9 8 8 8 7 5 4 4 5 3 4 3 4 3 3 3 3 2 -1 -0 7 11 11
-1 -0 0 -1 -1 -2 -1 -0 1 1 2 1 1 3 4 6 6 4 4 -4 -6 0 8 9 8 7 6 5 4 5 4 3 2 3 3 3 3 3 3 2 1 2 3 8 12
0 -0 -0 1 0 -1 -1 -1 -2 -1 -0 1 0 2 5 6 5 7 7 6 -3 4 8 9 7 6 6 5 4 4 4 4 3 4 3 3 2 3 3 2 2 2 2 2 3
-1 0 -1 -1 -1 -2 -1 -2 -1 -0 1 0 -1 1 4 5 4 4 2 7 2 7 8 9 8 6 5 5 4 4 4 3 3 3 2 3 2 2 2 1 1 1 0 1 2
0 -1 -1 -1 0 0 -1 -2 -2 -1 -1 1 -0 0 4 5 4 3 -1 6 2 6 8 8 7 6 5 4 4 3 4 3 3 3 3 2 3 3 2 2 1 0 1 0 -0
-1 0 0 0 0 0 -2 -1 -2 -0 -1 -1 0 -0 4 4 4 5 5 7 6 6 8 8 7 6 5 4 4 4 4 6 3 3 2 2 3 1 -0 -0 1 1 1 0 -1
-0 -1 -0 -1 -1 -2 -1 -1 -1 -1 1 1 -0 -0 4 3 4 5 7 6 6 5 6 6 5 7 5 5 5 5 6 6 5 2 2 3 4 1 1 1 1 0 -1 -1 -1
-1 -0 0 -0 -0 -2 -1 -1 -3 -3 -4 -2 -2 2 3 3 4 3 5 6 7 7 7 7 6 7 5 6 6 5 5 5 5 1 2 3 3 0 -1 -0 1 1 1 1 0
-1 -0 -3 -0 0 -1 -1 -3 -3 -1 -1 -0 1 3 4 3 4 3 5 6 6 7 9 7 7 8 7 5 3 4 5 5 3 0 0 1 1 -1 -2 -2 -2 -2 -2 -1 -0
-1 -2 -2 -0 -2 -1 -4 -0 -1 -0 -0 1 2 2 4 4 3 4 4 5 7 8 8 8 7 7 6 5 6 5 5 5 3 0 -0 0 0 -2 -2 -2 -2 -2 -2 -2 -2
-1 -0 0 1 1 1 -2 0 -0 0 -0 1 2 3 4 4 2 3 3 5 6 7 7 7 7 7 7 7 7 6 5 4 3 0 -1 -0 -0 -2 -5 -4 -5 -5 -4 -4 -5
1 2 2 1 0 0 -2 0 -0 0 -4 2 3 3 4 4 3 2 3 5 6 6 4 3 5 7 7 7 7 7 2 1 1 2 4 -0 4 -1 -3 -4 -5 -6 -5 -5 -3
1 0 -0 0 1 1 -1 -0 -2 0 -1 1 3 4 3 3 2 2 4 3 4 5 4 5 5 5 7 6 6 3 0 1 1 1 1 1 2 -2 -4 -5 -6 -5 -3 -1 -0
-0 1 -0 1 0 1 1 -1 -1 0 3 4 4 5 4 3 4 3 3 2 2 2 1 1 0 -0 0 1 0 -0 -0 0 0 0 1 -0 1 -3 -4 -4 -5 -5 -2 -1 -0
1 0 -1 -0 0 -0 -0 -1 -1 2 2 4 5 4 4 5 4 4 4 3 6 6 5 2 2 -1 -0 1 -0 -0 2 1 -1 1 1 1 2 -1 -3 -4 -4 -4 -2 -2 0
0 -1 -1 -1 -1 -0 -0 0 2 2 3 3 4 4 6 4 5 5 4 4 1 2 3 4 5 1 -0 1 2 1 0 1 -1 3 2 -0 3 -2 -4 -6 -4 -3 -3 -2 0
-1 -0 2 2 0 -1 0 1 3 3 2 5 3 5 5 5 5 5 4 3 1 0 3 2 3 0 -0 -0 -1 1 0 -1 -0 -1 0 0 -3 -9 -4 -4 -3 -3 -3 -2 1
-1 -1 0 1 1 1 0 4 4 3 2 1 4 4 5 6 5 5 4 1 1 0 -1 -0 4 2 1 -0 -0 0 -1 1 -2 -4 -1 -4 -2 -5 -5 -4 -4 -3 -3 -1 2
-1 -0 0 1 1 -0 2 3 4 3 2 2 3 3 3 4 3 3 2 1 -1 0 -1 -0 1 4 1 1 2 2 2 0 -0 -1 0 -0 -6 -5 -5 -4 -3 -3 -0 2 3
-1 -1 1 1 0 2 3 3 3 3 3 -0 0 1 2 2 2 2 2 1 -1 -1 1 -0 2 4 3 -0 -1 0 1 -0 -0 -0 -0 0 -0 -5 -4 -4 -4 -3 0 4 4
-0 -0 1 1 3 3 3 4 3 4 3 0 -0 -0 -0 1 2 1 0 0 -1 -1 1 -0 0 1 3 0 -0 2 1 -1 -1 -1 -0 1 -1 -4 -4 -4 -3 -1 3 4 3
1 0 1 1 1 3 4 4 4 3 1 -1 -0 -1 -0 1 1 2 2 2 -1 -1 -1 -1 -0 -0 1 -1 0 2 2 -0 -1 1 1 0 -1 -2 -3 -2 -2 -0 4 2 1
1 1 2 2 2 3 3 3 3 3 0 -0 -0 -0 1 3 2 2 1 1 1 2 -0 -1 2 2 1 -0 1 1 1 1 -1 -0 -0 -1 1 -1 -2 -2 -2 3 2 0 -0
1 1 1 2 1 1 1 2 3 2 2 2 3 2 1 2 2 3 1 1 1 -0 0 -1 2 1 -0 0 1 2 2 1 1 1 1 1 2 -2 -2 -0 4 3 1 -1 -2
1 1 1 0 -0 0 1 2 2 2 2 3 2 3 3 3 2 0 -1 -1 -1 0 1 2 2 0 1 0 2 2 2 1 1 1 1 3 0 -1 1 4 4 2 1 -3 -3

GFSSW_850_dewp_057.txt.gz
Dewpoint
1 2 2 2 2 0 2 2 1 1 2 2 2 3 4 6 7 7 4 3 -3 3 7 4 9 8 8 5 4 5 6 6 5 3 2 -0 -1 -0 -1 -1 -1 -2 -0 3 6
2 2 1 1 0 1 1 1 1 1 1 2 -0 2 3 4 5 6 6 4 0 -2 8 7 8 9 9 5 4 4 6 6 3 2 1 1 1 1 1 1 -1 1 6 4 5
0 1 -0 -0 1 1 2 1 -0 -0 -0 1 -0 1 2 3 5 5 6 5 3 -1 7 8 7 9 8 5 4 4 6 4 4 2 3 3 3 3 2 2 -0 0 7 9 12
1 -0 -1 1 1 2 1 1 -2 -0 -1 1 2 1 2 3 6 3 4 3 5 -0 7 8 8 9 7 6 4 5 4 3 3 4 4 3 3 3 3 1 1 2 2 5 11
-0 0 -0 1 1 1 0 -1 1 -0 -1 -1 -1 0 1 4 5 5 7 7 7 5 7 8 8 8 7 6 4 4 4 3 3 4 3 3 3 3 2 2 2 2 1 2 2
0 -1 -1 0 0 -1 -0 1 -0 -2 -2 -2 -1 -0 1 5 5 5 5 3 6 7 7 8 7 7 6 6 4 4 3 3 3 3 3 3 2 2 2 1 0 1 0 0 1
-1 -1 -1 -1 -1 0 0 1 1 0 -1 -1 -1 0 2 3 4 4 4 5 6 6 7 8 7 5 5 4 4 3 5 3 3 3 3 2 3 3 1 1 1 0 -1 -1 0
-1 -1 -2 -0 -1 -1 -0 -1 -1 -2 -1 -0 -1 0 2 2 4 4 4 3 5 3 7 7 6 5 4 4 4 5 4 6 3 3 2 2 3 1 0 1 1 1 0 -1 -3
-2 -1 -1 -0 -0 -0 -1 -1 -2 -3 1 2 0 1 1 1 4 4 5 7 8 5 7 6 6 6 4 5 6 5 7 6 4 3 3 2 4 1 1 1 0 -0 -0 0 -1
0 0 -0 -1 -1 -1 -0 -2 -4 -1 -3 -1 0 1 0 3 3 4 5 7 7 6 5 6 6 7 6 6 7 7 6 5 4 2 3 4 4 2 0 -1 -1 -1 -2 -1 -0
0 -0 -0 -1 -0 -1 -1 -4 -3 0 -0 -1 -1 1 2 3 3 3 4 7 6 6 6 6 7 7 7 5 3 3 4 5 4 0 1 2 1 0 -1 -1 -1 -1 -1 -2 -2
1 1 1 1 0 1 -1 -2 -1 -1 -2 -0 1 1 4 5 5 3 5 5 6 7 7 7 8 6 5 4 4 4 5 5 3 0 0 0 0 -1 -2 -2 -2 -2 -2 -2 -3
0 0 1 -0 2 0 -0 -1 -0 -1 -2 1 1 2 4 3 4 4 5 6 6 7 6 6 6 6 6 6 6 5 5 4 4 0 -1 -0 1 -2 -4 -5 -6 -5 -5 -3 -2
-0 0 0 -1 0 1 -1 -0 -0 0 -2 2 3 3 4 3 4 4 5 5 6 6 5 5 6 7 7 7 6 8 4 2 1 2 4 -0 4 0 -4 -4 -4 -2 -0 1 -0
-0 0 0 -0 1 1 -1 -1 -1 1 1 2 3 3 4 4 3 3 4 3 5 5 5 5 7 6 7 7 5 6 1 1 1 1 1 1 2 -1 -5 -4 -4 -3 -1 1 2
-1 -0 -1 -0 0 1 -1 -2 -1 -3 2 4 3 4 4 4 4 4 4 3 3 4 2 2 3 3 3 5 4 1 -0 0 -0 0 3 -0 1 -3 -4 -4 -5 -4 -2 -0 2
-0 -0 -2 -1 -0 -1 -1 -0 -2 -0 1 4 5 4 4 4 4 4 5 4 6 6 5 4 2 -0 -0 1 -1 0 3 4 1 3 3 1 2 -1 -4 -5 -4 -3 -3 -2 2
-2 0 -0 -1 0 1 0 -2 0 2 2 3 5 4 6 4 5 4 5 4 1 2 3 4 6 2 -0 1 2 1 2 3 -0 2 1 -0 3 -2 -4 -6 -4 -3 -1 0 2
-2 -2 0 0 0 -0 0 2 4 3 3 5 4 5 6 5 5 5 4 3 1 0 4 2 4 0 0 -0 -0 1 2 -2 0 -1 1 -1 -2 -7 -4 -5 -3 -4 -1 1 3
-1 -2 0 1 1 -0 1 4 5 3 2 1 4 3 5 5 6 4 4 1 1 0 -1 0 4 2 0 -0 -0 -0 -1 2 -0 0 -1 -5 -4 -7 -3 -3 -5 -3 -2 1 3
-1 -1 1 1 0 1 3 4 4 3 2 2 3 3 3 4 3 3 2 1 -1 -0 -1 -0 2 4 1 2 2 2 2 0 -1 -1 -1 -3 -7 -6 -5 -4 -3 -3 -2 2 4
-1 -1 1 1 1 2 2 2 3 3 2 -0 0 1 2 1 1 2 1 1 -1 -1 1 -0 2 4 2 -0 -1 -0 1 -1 1 1 -0 0 -2 -6 -5 -4 -4 -3 -1 3 3
-0 -1 0 1 3 2 2 3 3 3 3 -0 -0 -0 -0 1 1 1 0 0 -1 -1 0 -1 1 4 3 1 -0 2 1 -1 -2 -1 2 1 -4 -5 -4 -4 -4 -2 3 3 2
0 0 -0 1 2 3 3 3 3 2 1 -1 -0 -1 -0 2 1 2 2 2 -0 -1 -1 -2 -0 -0 3 0 1 2 2 -1 -0 1 0 0 -2 -4 -4 -3 -2 -0 3 2 1
1 1 2 1 2 2 2 3 2 3 1 -0 0 -0 1 2 2 2 1 1 1 2 -1 -1 2 2 1 -0 1 1 2 1 -0 -0 1 -1 -0 -2 -3 -2 -2 3 2 1 0
1 1 1 1 0 -0 1 2 3 3 3 2 2 2 1 2 1 2 1 1 1 -0 -0 -1 3 0 -0 0 1 2 2 1 1 1 0 0 1 -2 -2 -2 3 3 1 -1 -2
0 1 1 0 -1 0 1 2 2 1 2 3 2 2 2 2 2 0 -1 -1 -1 0 1 1 1 0 2 1 1 3 2 2 1 1 1 2 0 -2 -0 1 4 2 1 -2 -3

GFSSW_850_dewp_060.txt.gz
Dewpoint
2 2 2 2 1 1 1 2 0 1 2 2 2 1 -2 1 5 5 7 7 3 5 7 -3 8 9 6 5 4 5 3 3 3 2 -0 -1 -1 -1 -1 -3 -3 -1 2 6 4
2 2 2 -0 -0 0 2 1 2 0 0 1 1 1 3 1 3 5 6 7 5 6 8 4 8 9 7 5 3 1 2 -0 -0 0 -1 -1 -3 -1 -1 -1 -1 1 4 3 2
1 1 -0 1 0 1 1 1 1 1 1 -1 1 1 2 2 3 4 5 5 5 4 6 6 8 9 7 5 3 1 1 0 2 1 0 -0 0 2 -1 0 -2 -1 4 11 7
0 1 -1 -0 -1 1 1 1 -0 1 1 1 -0 0 -0 3 2 3 3 4 5 7 6 7 8 8 7 6 3 3 0 1 3 4 3 2 1 1 0 -2 1 3 3 5 13
1 0 -0 0 -1 -0 -1 -1 1 1 1 -1 -2 -2 0 2 1 5 5 7 8 7 7 6 7 7 7 5 4 3 3 2 3 4 3 3 2 1 1 2 2 2 1 3 3
-0 -1 -1 -1 -1 -1 0 1 1 -0 0 0 -0 -1 1 2 -0 1 5 4 7 7 6 7 6 6 5 5 4 3 2 2 2 3 3 3 2 2 1 1 1 1 1 1 2
1 0 -1 -1 -1 -0 -1 -1 1 0 -0 -0 0 -1 1 0 3 4 5 5 7 7 5 7 6 6 5 5 4 3 4 2 2 2 1 2 2 3 0 -0 -1 -1 -1 -1 1
0 -0 -0 -1 -1 -0 0 -2 -3 -2 0 -0 0 0 0 -1 -0 3 4 4 6 7 6 7 7 5 3 4 4 3 2 4 0 1 2 1 -2 -1 0 -0 -0 -1 -2 -1 -1
1 0 -0 0 -0 -0 -1 -1 -2 -2 -1 0 2 0 0 -1 2 4 5 5 5 7 6 7 6 4 4 4 5 4 2 2 3 2 -0 1 -2 -2 0 0 -1 -1 -1 -0 -1
1 1 1 0 -0 -2 -1 -1 -3 -1 -2 1 0 1 0 1 3 4 5 4 6 7 6 7 7 7 5 3 4 4 3 2 1 2 3 3 -0 -0 1 0 -1 -1 -1 -1 -1
0 1 1 1 1 0 -0 -3 -1 1 -1 -1 -1 1 1 2 3 5 4 5 7 5 5 5 7 8 5 2 -0 1 2 1 1 0 1 2 2 1 0 -0 -1 -1 -2 -2 -1
0 -0 -1 -1 1 1 1 -1 -1 -1 -2 0 1 0 1 4 4 4 4 7 6 6 3 6 7 5 3 3 2 2 1 1 3 1 1 1 2 0 -1 -1 -1 -2 -2 -2 -3
-1 0 -0 0 2 1 -0 -0 -1 -1 -1 1 2 1 3 4 3 4 5 6 4 4 5 5 5 3 4 4 4 3 2 3 3 1 -1 0 1 -0 -4 -5 -4 -4 -3 -1 -1
-2 -3 -1 -0 -1 -1 -0 -0 -1 -0 2 1 3 2 4 4 3 4 5 7 5 5 5 5 4 5 5 4 3 5 3 3 3 3 4 0 -0 -1 -3 -2 -2 -1 0 1 1
-3 -3 -4 -4 -1 0 -1 -1 -1 0 4 3 3 4 4 4 4 5 5 4 5 5 5 5 6 7 7 4 4 5 3 2 1 2 2 1 2 -2 -4 -2 -2 -2 -0 1 2
-4 -3 -3 -3 -3 -2 -2 -1 -1 3 4 4 3 3 4 4 4 5 5 3 4 4 3 4 5 4 5 6 4 -1 0 0 0 2 5 0 1 -4 -4 -4 -3 -3 -1 0 2
-2 -3 -3 -2 -1 -1 -1 1 4 4 2 5 5 4 4 5 4 4 4 5 6 7 7 4 5 3 5 4 4 3 3 7 6 7 4 -0 0 -3 -4 -5 -4 -1 -0 0 2
-2 -2 -0 0 1 0 -0 2 4 3 4 3 4 5 6 3 5 5 4 4 1 3 6 7 7 4 3 2 3 2 3 6 3 0 -1 0 1 -3 -5 -5 -3 -3 -1 1 3
-2 -2 1 1 1 1 2 4 5 4 3 4 2 3 4 3 5 5 3 3 1 0 4 5 5 0 0 -1 0 2 5 -1 2 0 2 -2 -2 -4 -5 -5 -3 -3 -1 1 3
-1 -2 1 0 0 -0 4 4 5 3 2 1 3 3 3 3 3 3 3 1 1 -0 -1 2 6 2 0 -0 -1 1 -1 3 4 4 1 -4 -5 -5 -3 -3 -3 -2 -1 1 4
-1 -0 1 -0 0 2 4 4 3 2 2 1 2 2 2 2 3 2 2 1 -0 -0 -2 0 2 4 1 2 2 1 2 0 -1 -1 -0 -7 -8 -6 -2 -3 -3 -3 -1 3 3
-1 3 1 -0 3 2 4 3 2 3 2 -0 0 1 1 1 1 1 1 1 -1 -1 0 -0 2 4 3 -0 -1 -0 1 -1 2 2 1 2 -5 -7 -5 -4 -4 -2 1 3 2
-1 -0 0 0 5 4 2 3 3 2 1 -0 0 -0 -0 1 2 1 1 1 -1 -1 -0 -1 3 5 3 2 0 2 0 -1 -1 1 4 2 -4 -5 -5 -4 -4 -2 2 3 1
1 3 0 1 3 3 3 3 2 2 0 -1 -1 -1 -0 1 0 1 1 1 0 0 -1 -2 0 1 1 2 2 4 2 -0 4 5 1 1 -3 -4 -3 -4 -2 -0 3 2 0
0 2 2 4 2 2 2 2 2 2 1 0 -0 -1 -0 1 1 1 1 1 1 1 -1 -1 3 2 1 0 1 2 2 1 3 2 6 -1 -1 -4 -4 -3 -2 1 2 1 -1
2 1 2 1 0 1 2 3 3 3 3 1 1 1 0 0 -0 1 1 0 0 -0 -0 -0 5 2 3 0 1 3 1 2 1 1 1 0 1 -3 -3 -2 0 3 2 -0 -2
0 0 0 1 0 1 2 2 2 2 3 2 1 1 2 1 2 0 -1 -1 -1 0 0 1 3 3 3 1 1 4 2 2 1 0 1 3 -0 -2 -2 -1 2 3 2 -1 -3

GFSSW_850_dewp_063.txt.gz
Dewpoint
1 2 2 2 1 1 -0 1 2 3 1 1 2 1 3 2 -2 -0 6 7 6 5 3 4 9 10 8 5 3 4 5 5 3 2 -0 -2 -1 -2 -3 -4 -4 -4 0 8 13
1 2 2 1 0 1 0 -0 1 1 2 1 -0 1 1 2 2 1 4 7 7 5 8 3 7 9 7 5 3 3 5 3 0 -0 -0 -2 -1 -2 -2 -3 -5 -3 3 10 12
1 2 2 1 -0 0 -0 2 1 0 1 1 0 -0 2 1 2 -1 -0 5 6 6 6 6 5 8 6 5 3 1 0 -1 -2 0 0 -1 -2 -4 -2 -4 -5 -4 -1 9 11
-0 0 0 -0 -0 0 0 -0 0 -0 1 1 1 1 0 2 1 -4 3 4 6 7 5 6 2 6 6 6 3 2 -1 -3 0 2 1 -1 -2 -1 -2 -3 -2 1 3 6 10
1 1 0 -0 -0 -0 -0 -0 1 -0 1 -1 -0 -1 -0 1 1 2 5 5 7 7 5 4 2 5 6 5 3 3 0 -0 1 3 2 -1 -2 -1 -1 -0 1 2 2 2 4
1 0 -0 -1 -1 -1 0 -1 -0 1 0 -0 -0 -1 1 0 -2 -1 -0 6 8 8 4 4 3 4 4 4 3 2 1 1 1 3 3 2 -1 1 -0 -1 0 -0 -0 0 1
1 2 1 0 -2 -1 -1 0 0 0 0 0 -1 1 1 -1 -1 4 -0 5 6 8 4 4 3 4 3 4 4 2 3 2 1 1 1 2 2 2 0 0 -1 -2 -1 -2 -1
1 2 2 1 -2 -2 1 -0 1 -1 -1 0 -0 1 1 -1 -1 0 2 3 6 7 5 4 5 5 5 3 4 4 3 5 1 1 0 1 1 -1 -0 -1 -1 -2 -3 -4 -4
2 1 0 1 1 0 -2 -2 -1 -2 -4 -3 2 1 -1 0 -1 1 3 4 5 7 5 4 7 6 5 5 5 3 3 2 0 -0 1 2 -1 -3 -1 -1 -2 -3 -3 -3 -3
3 0 -2 -1 1 1 -2 -2 -3 -2 1 2 2 1 -1 -1 -0 3 5 5 6 6 4 5 7 6 5 4 6 3 2 -1 -1 2 0 1 0 -3 -2 -1 -2 -3 -3 -3 -3
2 0 -1 -3 -2 1 -1 -0 0 1 0 -1 -0 -0 0 0 2 5 2 3 7 5 4 5 7 7 4 2 -2 -3 -0 -2 -3 1 1 -0 -0 -2 -2 -1 -2 -3 -4 -4 -4
0 1 -0 1 1 1 1 -1 -0 1 -2 -1 -1 1 1 2 4 4 3 6 7 5 2 6 7 5 1 0 -0 -0 0 0 1 -0 0 -1 0 -1 -2 -2 -2 -3 -3 -3 -3
1 -2 -1 -2 -2 1 1 1 0 1 1 1 1 1 2 4 4 4 5 5 6 2 4 6 6 5 6 3 2 -0 0 -0 1 1 0 -0 1 -1 -2 -3 -4 -4 -4 -3 -2
-2 -3 -5 -3 0 1 1 -1 -2 -1 4 3 2 3 4 4 3 5 4 4 5 4 3 5 5 6 6 5 2 2 -1 -2 2 2 0 -0 -4 -0 -2 -2 -3 -2 -1 -0 -0
-3 -2 -3 -7 0 1 -2 -3 -1 1 4 3 4 3 4 4 4 4 5 6 5 5 5 6 6 6 7 6 1 4 2 2 3 3 3 2 2 -1 -3 -1 -1 -1 0 1 2
-3 -2 -2 1 1 -2 -1 -1 2 4 5 4 3 3 4 4 5 4 5 4 3 4 3 4 4 5 6 4 3 3 3 2 2 3 7 2 1 -0 -2 -2 -2 -2 -1 0 2
-2 -2 0 1 1 0 1 1 5 5 3 5 5 4 4 6 5 5 5 6 6 6 6 4 4 3 4 5 3 2 5 8 9 8 6 -1 0 -3 -5 -5 -3 -2 -1 0 2
-2 0 1 1 1 1 3 4 6 4 5 4 4 3 5 2 4 4 3 5 3 4 7 8 7 4 4 5 6 5 5 8 7 5 3 -1 1 -3 -6 -6 -2 -2 -0 1 3
-2 -0 2 2 0 0 3 5 5 5 4 4 3 2 2 3 4 3 2 2 2 1 6 7 7 4 3 1 4 6 7 0 2 -0 1 -2 -3 -4 -5 -5 -4 -3 -1 1 3
-2 -0 2 0 1 3 4 4 4 3 2 0 2 2 2 2 3 2 2 1 1 -1 -2 2 6 3 1 -0 -1 1 -0 4 6 5 0 -2 -4 -4 -3 -3 -4 -2 -1 1 3
1 3 -0 -0 3 3 5 5 2 1 1 1 1 1 0 2 1 1 2 1 -1 -1 -2 0 2 4 1 3 3 1 2 1 -0 -1 2 -6 -7 -6 -4 -5 -2 -2 -0 2 3
1 4 0 -1 4 3 5 3 3 1 0 -0 -0 -0 -0 -0 1 1 1 1 -1 -2 -0 0 3 5 3 0 -1 -0 1 -0 2 2 1 2 -3 -6 -4 -4 -3 -2 0 3 2
2 2 -0 1 5 5 3 2 2 0 -1 -1 -0 -0 -0 0 2 0 0 0 -1 -1 -1 -1 3 4 3 2 0 2 1 -0 -1 2 6 3 -2 -5 -4 -4 -4 -2 2 3 2
2 4 3 2 3 2 1 1 1 1 -0 -1 -1 -1 -0 0 -1 1 1 1 -0 -0 -2 -2 0 2 2 4 2 4 2 0 4 6 1 0 -3 -4 -4 -3 -4 -1 2 3 1
1 2 2 4 2 2 1 1 1 1 0 -1 -1 -1 -1 0 -0 -0 0 1 0 -0 -1 -1 2 1 -0 -0 1 2 2 2 4 3 7 -0 -2 -4 -4 -4 -2 -0 3 2 0
2 1 2 2 1 1 2 1 2 1 2 -0 -0 -1 -2 -1 -2 -0 -0 -1 -1 -0 -1 -1 5 3 4 0 1 3 1 1 2 2 1 0 0 -4 -4 -3 -1 1 3 2 -0
0 1 2 1 1 1 1 1 1 2 2 1 -1 -1 -0 0 1 -0 -1 -2 -2 -1 -0 0 3 4 2 0 1 4 2 1 1 0 1 3 -1 -3 -2 -2 -0 3 3 2 -1

GFSSW_850_dewp_066.txt.gz
Dewpoint
2 1 1 1 1 1 1 1 0 0 2 2 1 1 3 2 1 -1 1 6 6 7 1 4 8 9 9 8 5 5 8 10 9 7 3 -1 -1 -1 -2 -3 -3 -3 6 12 13
2 1 0 0 0 -0 -0 -1 1 -0 1 0 1 0 1 1 2 3 0 1 5 8 6 4 6 8 8 8 5 3 6 6 4 2 2 0 -1 -1 -2 -3 -3 -3 5 10 9
2 2 2 1 0 -0 0 -0 -2 -1 1 1 -1 0 -0 1 3 0 -4 1 5 7 6 5 3 7 8 6 5 3 5 3 2 1 1 -0 -1 -1 -2 -1 -3 -4 2 10 11
1 1 1 -0 0 0 -1 0 -1 -2 -1 1 1 1 0 1 2 3 -2 -9 4 7 7 5 3 6 7 6 5 4 2 1 -1 1 1 -1 -2 -2 -3 -2 -1 -0 3 9 11
3 2 1 1 -1 -1 -0 -0 -1 1 1 -1 -1 -1 0 1 0 -2 3 4 6 7 7 5 3 5 7 6 4 4 2 -0 -0 2 2 -0 -1 -1 -1 -0 1 2 2 3 7
2 1 2 2 1 0 -2 -0 -1 -1 0 -0 -1 -1 -0 0 -2 -2 -1 1 7 7 7 4 4 3 3 4 5 3 2 1 0 3 1 0 -1 -2 -1 -1 1 1 1 1 2
3 2 0 1 1 -1 0 1 -1 1 -0 -1 -1 0 2 -0 -2 2 1 0 6 6 7 4 3 1 4 4 4 3 3 2 1 3 3 2 2 1 -1 -1 -0 -0 -0 -1 -1
2 1 -0 0 0 1 -1 -1 -2 -3 -4 -3 -0 1 1 -1 -1 -1 1 1 5 7 7 4 2 3 3 4 4 5 3 6 2 2 2 2 4 1 0 0 -0 -1 -2 -2 -3
1 1 -1 -1 -1 1 -2 -2 -2 -3 -4 -4 2 2 -1 -1 -0 -2 -1 1 4 6 6 5 3 5 4 7 7 6 6 5 3 1 1 2 3 -0 -1 -0 -0 -1 -2 -3 -4
1 -0 -0 0 -2 1 -0 -3 -4 -1 0 2 2 1 0 -2 -1 -2 1 1 4 6 6 5 4 6 6 7 8 6 6 2 2 2 1 3 3 -1 -2 -2 -2 -3 -3 -3 -3
1 0 -2 -1 1 1 -2 0 1 1 0 -1 -1 -0 -1 1 1 2 2 1 5 7 8 6 6 7 6 5 3 1 2 2 -0 0 2 2 2 0 -2 -1 -1 -2 -3 -4 -3
-1 -1 -2 -3 0 0 0 -1 1 1 -0 -1 -1 -0 1 2 3 3 2 5 6 5 5 6 7 4 3 4 4 2 1 1 -1 1 1 1 1 -1 -2 -1 -1 -2 -2 -3 -4
-4 -1 -4 -2 -1 1 1 1 0 0 2 1 2 2 3 2 3 4 4 4 4 5 4 5 4 3 3 3 4 1 1 -0 1 1 0 0 1 0 -1 -2 -2 -3 -3 -3 -3
-4 -3 -4 -2 1 0 -2 -4 -2 -1 3 3 2 3 3 2 3 4 4 5 6 4 4 4 4 5 6 6 3 5 -1 -1 2 3 3 0 -1 -0 -1 -2 -4 -4 -4 -2 -1
-3 -3 -3 -1 2 -1 -2 -1 -1 2 4 2 3 3 4 4 4 3 5 4 5 4 5 6 6 6 6 5 4 2 1 1 3 3 3 2 3 -0 -1 -1 -2 -2 -0 0 0
-3 -2 -0 2 2 1 0 2 2 3 5 4 4 4 4 4 4 4 5 4 3 3 3 4 4 5 5 5 7 3 3 3 3 4 7 3 2 1 -1 -1 -1 -1 1 1 2
-2 -0 1 2 3 2 3 2 5 5 3 4 5 5 4 5 5 5 5 6 5 6 6 5 4 3 4 5 5 5 4 7 8 8 7 0 2 1 -3 -3 -2 -2 -1 1 2
-2 -0 1 2 2 3 3 4 5 4 5 4 4 2 4 3 5 5 6 6 5 5 7 7 6 5 3 5 6 5 5 7 6 7 4 -1 3 -2 -4 -3 -3 -1 -0 1 2
-2 -1 2 1 1 3 4 5 5 4 4 4 3 3 2 3 4 3 3 5 5 5 7 7 7 4 4 3 5 6 7 1 4 -1 4 1 -2 -4 -5 -2 -3 -2 -0 1 3
-1 2 3 -0 3 4 4 4 5 3 1 1 3 1 2 2 2 2 2 1 1 1 1 4 7 5 4 4 3 6 3 5 5 4 3 -0 -1 -1 -3 -2 -3 -2 -1 2 3
0 4 1 -1 3 3 4 4 2 1 1 1 1 0 0 1 1 1 2 1 -1 -1 -1 1 4 5 3 5 5 5 6 3 1 1 4 -1 -3 -5 -3 -3 -3 -2 -0 2 3
2 6 1 1 5 4 5 3 2 1 -0 -1 -0 -0 -0 -0 1 1 2 1 -1 -1 0 1 3 5 4 0 -1 0 2 1 4 3 2 3 -1 -5 -5 -4 -2 -1 0 3 3
2 2 2 3 7 7 3 2 2 0 -1 -1 -0 -0 -1 -0 1 0 1 1 -1 0 1 0 4 4 3 2 0 2 1 1 1 3 6 5 -0 -4 -3 -3 -4 -1 1 3 3
2 5 3 2 2 3 2 1 1 1 0 -1 -1 -1 -0 0 -1 1 2 1 -0 -0 -2 -1 1 2 4 4 3 3 2 1 2 3 3 3 -3 -3 -3 -3 -4 -1 2 3 2
1 2 2 5 3 2 1 1 1 1 0 -1 -0 -1 -0 0 -0 0 1 1 0 -1 -1 1 2 1 -0 -0 1 3 2 2 3 3 2 1 -2 -4 -4 -3 -3 0 2 3 2
1 1 1 1 1 1 2 2 2 1 1 -0 0 -1 -2 -0 -1 -0 -0 -0 1 0 -1 0 4 2 2 -0 0 2 2 2 2 2 2 1 1 -3 -3 -3 -1 1 2 3 2
-8 -0 0 -0 0 1 2 2 2 1 1 0 1 -0 -0 1 0 -1 -1 -2 -2 -0 0 1 3 3 3 1 1 2 2 2 2 1 1 3 -0 -2 -2 -1 -0 2 3 3 1

GFSSW_850_dewp_069.txt.gz
Dewpoint
3 3 2 1 0 0 0 -0 0 0 -0 1 2 1 1 2 3 1 -2 3 6 5 5 5 3 8 9 9 7 8 10 9 9 8 7 4 3 -2 -3 -3 0 9 10 12 13
3 3 2 2 1 0 1 1 1 -1 -2 0 0 1 0 2 1 -0 -1 -4 4 5 3 5 3 9 9 8 6 5 9 7 3 5 6 4 1 2 -2 -3 6 9 10 10 11
3 3 2 1 1 -1 -0 -0 1 0 -2 -2 -1 -0 -1 -0 1 -2 1 1 2 5 6 5 2 8 8 8 6 5 6 5 4 4 6 4 2 1 -2 -2 -2 9 5 5 5
3 2 2 3 2 1 -1 0 -0 -1 -1 -0 -1 -1 0 1 2 2 2 -2 -3 5 6 7 3 7 8 7 7 4 3 3 2 2 4 4 -1 -2 -2 1 -1 -1 3 5 7
3 3 2 2 3 1 -4 -1 -0 -1 -1 -2 -1 -1 -2 0 -1 -2 1 4 4 5 5 7 4 6 7 7 5 5 3 1 2 2 2 1 -1 -1 -2 2 1 6 9 10 9
3 2 2 0 1 1 -1 -3 -0 -1 -2 -0 -0 -2 -1 1 -6 -1 -2 1 4 6 5 5 5 4 6 6 6 4 4 3 1 3 2 0 -0 -1 -1 1 0 1 1 2 5
2 2 0 2 0 1 -0 -2 -2 -3 -1 -2 -0 -1 1 -2 -1 2 2 1 2 7 6 6 4 4 3 4 5 5 5 4 2 3 3 0 1 1 -1 -1 -0 0 -0 -0 1
2 1 -0 2 -1 1 -1 -4 -5 -4 -4 -4 0 0 1 -5 -4 -2 -1 -0 0 5 6 5 4 3 3 4 5 6 3 6 2 3 3 0 3 1 -1 -0 0 -0 -0 -0 -1
2 -2 -2 -1 -1 0 -6 -4 -4 -4 -4 -3 -1 0 0 -1 -1 -3 -2 -1 0 6 6 5 5 3 4 5 6 6 8 6 4 2 3 1 3 0 -0 -1 0 0 -0 -1 -2
1 -3 -3 -1 -0 -1 -4 -3 -1 0 -0 1 1 0 -1 -0 -1 -0 -1 -0 2 5 6 6 4 5 5 6 7 8 7 5 5 2 2 3 3 1 -1 -1 -0 -0 -0 -2 -2
-3 -7 -6 -4 -1 -0 -0 0 0 0 0 -1 -1 -0 -0 -0 -1 -1 0 0 3 5 7 6 7 7 5 5 4 4 5 3 2 1 3 3 3 2 0 -2 -1 -2 -2 -3 -3
-4 -4 -6 -4 -4 -4 -3 -1 0 1 0 0 -0 0 1 1 1 2 3 2 5 5 6 6 6 4 4 5 5 4 4 4 0 -1 2 2 3 2 0 -1 -2 -2 -2 -2 -3
-3 -3 -5 -4 -4 -1 -4 -3 -1 -0 2 2 2 1 0 2 3 1 2 4 4 6 5 6 4 3 5 5 6 5 4 3 1 1 0 1 3 2 -0 -2 -2 -2 -2 -2 -3
-2 -3 -2 -3 -3 -1 -2 -3 -1 -1 2 4 3 2 3 3 3 3 3 4 4 5 5 6 4 4 5 5 4 5 2 1 2 3 5 0 4 -1 -0 -1 -3 -3 -3 -3 -3
-2 -2 -0 0 -1 0 1 -1 0 2 4 3 3 3 4 4 3 5 3 4 5 5 5 6 6 6 6 5 5 5 2 1 2 2 2 2 2 -0 -1 -0 -2 -4 -4 -2 -1
-2 -0 0 1 2 2 2 2 1 -1 3 4 4 4 4 3 4 5 4 5 3 3 3 4 4 5 5 5 6 6 4 3 3 4 5 3 3 1 1 -1 -2 -2 0 0 1
-2 -0 1 1 2 2 3 2 1 2 2 3 5 4 5 5 5 4 5 5 5 5 5 4 4 3 4 4 4 6 6 7 7 5 5 2 3 1 -2 -3 -2 1 1 2 2
-2 -0 1 1 2 3 3 1 2 3 4 3 4 4 5 5 5 4 5 6 4 4 5 4 4 5 3 5 5 5 5 4 5 6 5 -0 4 1 -5 -3 -1 0 1 2 3
-2 -0 1 1 3 3 3 2 3 2 3 4 2 4 3 3 5 5 5 6 5 4 5 5 5 3 4 4 4 6 7 2 3 1 2 1 -2 -4 -2 -1 -1 -0 1 3 3
-1 3 1 0 3 3 1 2 3 3 2 2 3 1 3 2 3 3 3 3 4 3 3 5 5 4 4 4 4 6 4 5 4 4 4 1 -0 -0 -1 0 -1 -0 1 2 3
2 4 2 1 4 1 3 1 3 2 1 2 2 1 -0 1 1 1 2 1 -0 2 2 4 4 6 5 6 6 6 7 4 2 1 3 1 -1 -5 -3 -1 -2 -1 0 3 3
0 3 1 2 3 3 1 3 2 2 0 0 -0 0 0 -0 1 2 3 1 -1 -1 1 1 3 5 4 4 2 3 5 4 4 3 1 1 1 -5 -5 -3 -3 -1 1 3 3
2 2 2 3 3 2 3 3 2 1 -0 -0 -0 -0 -1 -0 1 1 2 1 -1 0 0 0 3 3 3 1 0 2 1 3 1 2 3 2 0 -5 -3 -3 -2 -0 2 3 3
1 2 -0 3 2 2 3 3 2 1 1 -1 -1 -1 -0 0 -1 1 2 0 -0 -1 -1 -1 2 2 2 2 2 3 2 1 1 3 2 2 -1 -1 -2 -3 -3 -1 -0 2 3
-5 1 1 1 2 2 1 2 2 2 0 -1 -0 -0 -0 1 -0 1 1 1 0 -1 -1 0 1 0 -0 0 2 2 2 2 1 1 1 0 -1 -2 -3 -3 -4 -3 2 3 2
-4 -1 -2 0 0 1 1 2 2 2 1 1 1 1 -1 -0 -0 0 1 1 1 -0 -1 0 2 -0 -1 0 0 2 2 2 2 1 1 1 2 -3 -4 -4 -0 -1 2 2 2
-12 -3 0 -2 -1 0 1 0 2 2 1 1 1 2 0 1 0 -1 -1 -2 -1 1 1 2 1 0 2 1 1 1 1 1 2 1 1 2 -0 -2 -2 -1 0 1 2 2 3

GFSSW_850_dewp_072.txt.gz
Dewpoint
3 3 3 2 1 0 1 0 1 1 -1 -1 1 2 2 2 4 3 1 -4 4 6 6 5 4 5 10 6 7 9 10 9 8 9 7 7 7 3 -1 -1 1 8 12 12 14
3 2 2 2 2 0 1 0 0 0 1 -3 0 1 1 1 2 2 1 -3 4 6 6 5 5 4 9 8 7 8 10 8 5 6 8 7 7 5 1 4 12 11 12 13 13
4 4 3 2 3 1 1 1 -0 0 -0 -2 -2 -1 -0 0 1 -0 1 -1 -3 6 6 3 4 4 8 8 7 6 7 5 5 4 7 8 7 6 3 -1 9 12 12 13 12
2 3 3 2 1 1 1 -0 -1 0 -3 -2 -1 -2 -1 0 2 0 2 4 2 2 6 5 4 7 7 8 7 6 4 5 5 7 6 8 7 6 -0 0 -1 -1 3 8 11
2 3 2 2 0 0 -1 -4 0 -2 -2 -2 -2 -2 -1 0 0 1 -1 1 4 -0 5 6 4 7 7 7 7 5 4 3 3 5 5 5 7 6 -1 3 -1 5 8 5 8
2 1 3 2 1 -0 -1 -7 -2 -4 -3 -0 -1 -2 -1 1 -0 1 0 3 5 5 6 6 4 6 6 6 6 6 4 3 3 2 2 7 6 5 1 2 8 9 10 10 10
2 -2 3 0 -1 -0 -5 -5 -3 -4 -2 -2 -2 -2 -1 -5 -2 0 1 2 4 5 5 5 4 5 5 4 5 5 5 5 4 3 2 0 4 4 0 -0 1 1 1 2 6
-1 -1 1 1 0 -3 -5 -4 -4 -4 -4 -3 -1 -2 -4 -1 -1 -2 -1 0 0 4 6 5 5 2 4 4 5 6 5 7 3 3 2 0 3 -0 -1 -0 -0 -0 -0 -1 -1
-2 -5 -2 -1 -1 -4 -4 -5 -4 -4 -4 -3 -1 -0 -2 -2 -1 -0 -3 -1 -1 4 5 6 5 4 3 5 6 7 7 6 4 3 3 1 2 -0 -1 -0 -1 -0 -0 -1 -1
-3 -6 -3 -2 -4 -3 -2 -1 -1 -0 0 1 1 -1 -2 -0 -1 1 -2 -2 1 5 5 6 5 4 5 5 7 8 6 5 5 3 3 3 3 1 -0 -1 -1 -1 -0 -0 -1
-3 -4 -4 -3 -5 -4 -1 -0 0 -1 0 -1 -1 -1 -1 -0 1 1 -1 -2 3 5 6 6 6 6 5 4 4 5 5 5 4 2 3 4 3 2 1 0 -1 -1 -1 -0 -1
-3 -4 -5 -4 -4 -6 -7 -4 0 0 0 0 1 1 0 1 2 1 1 2 4 5 6 7 6 4 4 4 5 5 6 5 1 0 2 3 3 2 1 1 -1 -1 -1 -1 -3
-2 -3 -2 -4 -2 -3 -5 -4 -3 -0 1 2 2 1 1 3 2 3 2 3 4 4 6 6 4 4 5 6 6 5 4 3 3 1 1 2 3 3 1 0 -0 -1 -1 -2 -2
-2 -1 -1 -2 -1 -1 -2 -2 -1 -2 1 4 3 3 3 1 3 1 4 4 4 4 5 6 3 4 5 6 5 7 2 3 1 3 5 0 5 -0 2 1 -0 -1 -2 -2 -2
-2 -1 -0 -0 -0 1 2 1 1 2 3 3 3 4 4 3 4 4 3 4 4 4 5 6 5 5 6 5 3 5 5 2 2 3 2 2 3 1 -3 1 0 -2 -2 -2 -2
-2 -0 -0 0 2 2 2 1 1 -2 3 4 3 4 4 4 5 4 4 4 4 4 4 5 3 4 5 5 5 5 3 3 3 5 6 3 3 2 -1 -1 -1 -3 -3 -3 -1
-2 -0 1 2 2 2 2 2 -2 2 -0 4 5 4 4 5 5 4 4 6 6 5 6 5 5 4 3 4 3 5 4 7 8 8 6 2 3 1 -2 -3 -2 -2 -2 -0 -0
-2 -0 -0 2 3 3 3 -2 1 2 2 1 3 4 6 5 5 5 5 5 4 3 5 5 7 5 3 4 4 6 6 4 6 6 4 0 5 2 -3 -5 -3 -3 0 2 2
-2 0 0 0 3 4 3 -0 -0 0 1 4 3 3 4 5 5 5 5 5 4 3 4 4 5 3 3 4 3 6 7 4 1 0 2 1 -1 -4 -1 -1 0 1 2 3 3
0 2 2 2 3 3 0 1 3 2 2 3 3 1 3 3 5 5 5 4 4 3 2 3 6 3 4 4 4 5 5 6 1 3 4 2 0 1 1 1 1 1 2 3 4
-0 3 3 3 4 1 0 -1 3 2 2 2 2 2 -0 1 1 2 2 1 2 3 3 4 2 5 5 5 5 6 6 5 2 1 3 2 -0 -5 -1 -0 1 1 2 3 4
-2 0 3 4 3 1 0 2 2 2 1 1 0 1 1 -0 1 2 2 1 -0 -1 2 2 2 5 5 4 4 4 5 3 4 5 0 0 -1 -6 -5 -2 -1 -0 2 3 3
0 2 2 3 2 1 2 3 2 1 0 -0 0 -1 -1 0 1 1 2 0 -1 -0 1 1 1 5 5 2 3 6 5 5 2 1 -0 1 -1 -4 -3 -3 -2 -1 0 3 3
0 -1 -3 2 2 2 2 2 1 1 0 -0 -1 -1 -0 0 -1 1 2 -0 -0 -1 -1 -1 2 1 3 1 2 2 3 5 6 5 2 2 -1 -2 -2 -2 -1 0 1 2 3
-7 1 -0 -2 -2 1 1 2 2 2 0 -0 -0 -1 0 1 -0 1 1 1 0 -0 -1 -1 1 0 -0 1 1 1 2 2 2 3 4 3 0 -2 -2 -2 -2 -1 1 2 3
-7 -4 -3 -2 -1 0 1 2 3 2 1 1 1 2 1 -0 0 0 1 1 1 -0 -0 -0 1 -1 -1 0 0 1 2 2 2 1 1 0 2 -2 -4 -3 -3 -3 -1 0 2
-11 -5 -1 -4 -2 -1 -1 -4 -1 0 1 1 1 2 2 -0 0 -0 -1 -2 -1 1 0 1 0 -1 0 1 0 1 1 1 2 1 1 2 -1 -2 -2 -4 -3 -3 -2 1 2

GFSSW_850_dewp_075.txt.gz
Dewpoint
2 3 4 3 2 3 0 1 -1 -0 0 1 -2 -0 2 2 3 4 2 -4 4 5 6 4 5 6 9 8 7 8 9 7 7 8 8 7 7 6 4 2 7 9 12 12 14
3 3 2 3 2 2 1 1 -2 0 -0 -0 -3 0 1 2 3 3 2 0 -3 6 6 6 5 5 8 8 8 9 8 8 5 6 6 7 7 7 6 3 7 12 13 14 14
3 3 3 2 2 1 1 -2 -2 -0 0 -2 -2 -2 0 1 2 2 1 2 -3 5 6 6 6 4 8 8 7 7 8 6 5 7 8 8 7 7 6 1 2 13 13 14 14
3 3 2 2 3 -0 -0 -8 -2 -1 -3 -3 -1 -2 -3 0 2 3 3 3 4 2 7 6 6 5 7 8 7 6 6 6 7 8 8 7 7 7 7 5 4 4 12 12 13
3 3 2 1 -0 -0 -1 -6 -1 -2 -3 -3 -2 -3 0 1 1 1 2 2 1 4 5 6 5 5 7 7 7 5 4 5 7 7 6 5 6 6 6 4 2 3 9 10 11
2 2 2 -0 -1 -1 -3 -6 -2 -4 -4 -2 -2 -3 -2 -1 1 0 2 2 -0 2 2 6 5 5 6 6 7 6 4 6 6 7 5 6 6 6 5 4 3 8 9 10 10
-0 -1 2 -0 -4 -6 -5 -5 -3 -3 -4 -2 -2 -3 -4 -3 -1 2 2 4 4 4 1 5 4 5 5 5 6 6 6 5 4 5 5 7 8 7 5 4 3 9 10 9 10
-2 -6 -2 -1 -5 -6 -5 -4 -4 -3 -6 -2 -2 -2 -4 -1 -0 -2 -1 1 4 4 4 5 5 5 4 5 6 6 5 7 4 3 4 6 7 7 5 4 2 0 1 6 9
-4 -7 -5 -3 -4 -4 -5 -5 -4 -4 -4 -2 -0 -1 -2 -1 -1 -2 -2 -1 0 4 5 5 6 4 4 5 6 6 6 7 5 3 3 2 3 5 5 5 1 -1 -0 -1 -1
-3 -5 -5 -5 -3 -2 -2 -1 -1 -0 -0 1 0 -2 -2 -1 -0 -1 -2 -1 0 3 5 7 5 4 4 5 7 7 6 5 5 4 3 3 2 1 1 0 -0 -1 -0 -1 -1
-3 -4 -7 -6 -5 -6 -3 -1 -1 -2 -0 2 1 -1 0 1 2 -0 -1 -1 0 4 5 7 6 5 5 3 4 5 4 5 4 2 4 4 3 2 1 0 -0 -1 -1 -0 -0
-2 -2 -4 -5 -4 -5 -5 -5 -2 -1 0 2 1 1 0 2 1 1 -0 2 3 6 5 6 6 4 4 3 4 5 5 5 2 1 3 3 4 2 1 1 0 -0 -1 -1 -0
-2 -2 -2 -4 -4 -3 -4 -3 -1 1 1 3 3 2 1 2 1 2 2 3 3 5 5 6 5 4 5 5 5 5 5 4 3 1 1 2 3 3 1 1 1 0 -0 -1 -1
-2 -1 -1 -2 -2 -1 -1 -2 -2 -1 2 3 3 1 2 2 3 2 3 4 4 4 4 5 4 5 5 6 5 6 3 3 2 3 5 1 6 1 1 1 0 0 0 -1 -1
-2 -0 -1 -0 -0 1 2 2 -0 1 1 3 3 4 3 3 2 3 4 4 4 4 4 5 5 5 6 5 4 5 5 3 3 3 3 2 4 3 -2 1 1 0 0 -0 -2
-2 -0 0 1 1 2 2 2 1 -2 1 4 4 4 5 4 4 3 4 4 4 4 4 5 3 4 5 5 4 5 3 3 4 4 4 3 4 3 -0 -2 -2 -1 -1 -1 -1
-2 -1 1 2 2 3 2 2 -2 1 -1 2 5 4 4 4 4 3 4 5 5 6 6 5 5 4 3 4 3 4 5 8 7 7 6 2 3 2 -2 -3 -3 -3 -3 -2 -2
-2 -1 0 1 3 3 2 -2 1 0 1 1 3 4 6 4 4 5 5 6 4 3 5 5 7 5 4 3 4 5 3 5 6 6 4 2 5 2 -2 -3 -3 -3 -3 -3 -1
-1 1 1 2 3 4 2 -0 -1 -2 -1 3 2 4 6 5 5 5 5 5 4 2 3 3 5 3 4 4 3 5 7 2 1 -0 1 2 -0 -4 -4 -3 -2 -2 -2 -1 1
0 1 3 4 4 3 -1 1 2 0 1 3 4 1 3 6 6 6 5 3 4 3 1 2 4 3 4 4 4 4 4 6 3 5 4 2 1 -0 -2 -1 0 2 2 2 2
2 2 3 4 4 0 1 -1 3 2 2 2 2 2 0 2 5 4 4 2 2 3 2 2 2 4 4 6 5 6 7 6 5 1 3 3 -0 -4 -4 -3 0 1 3 3 3
-2 0 2 3 2 0 -1 1 2 2 1 1 1 1 1 -0 1 2 2 1 0 2 4 2 2 4 4 4 3 3 4 5 4 4 -0 -0 0 -5 -5 -4 -0 1 3 3 3
-1 2 1 2 0 0 1 3 2 2 0 -1 0 -0 -1 1 1 1 2 0 -0 0 1 1 4 6 5 4 4 5 4 5 4 -0 -1 2 1 -4 -4 -2 -0 1 2 3 3
-2 -4 -5 -0 0 1 2 2 2 2 1 0 -1 -1 -0 0 -1 0 2 0 -0 -0 -1 1 1 2 3 2 3 6 5 5 6 3 2 1 -0 -3 -3 -2 -1 0 2 3 3
-8 -1 -3 -4 -5 -0 1 1 3 2 1 -0 0 -0 1 2 0 1 1 1 0 -1 -1 -1 2 1 -0 -1 1 2 2 4 5 5 4 3 1 -1 -4 -3 -2 -1 0 2 3
-8 -6 -4 -3 -2 -1 -0 1 2 1 2 1 1 0 2 1 -0 -0 1 1 1 -0 -0 -0 0 -1 -1 -0 1 2 1 2 4 4 5 3 1 -2 -4 -3 -3 -1 1 2 2
-8 -6 -2 -5 -3 -3 -1 -5 -3 -1 -0 1 2 3 3 1 -0 -0 -1 -1 -1 0 0 1 0 -1 0 1 -0 1 1 1 1 1 2 3 1 -3 -2 -3 -3 -2 -1 -0 -0

GFSSW_850_dewp_078.txt.gz
Dewpoint
4 3 2 3 4 2 0 -0 0 -2 -0 1 -1 -2 0 2 3 5 3 -1 3 6 6 5 7 6 8 8 8 8 7 7 7 7 6 7 6 6 5 4 2 9 13 12 14
4 3 3 3 4 2 -1 0 -3 -0 -0 0 -3 -2 1 2 2 2 3 3 -0 6 6 6 4 5 7 8 8 8 8 6 5 6 7 7 7 7 6 5 5 7 14 14 14
3 2 3 1 3 -1 -1 -8 -2 -0 -2 -2 -2 -2 0 1 2 2 2 4 3 2 6 7 5 4 6 7 7 8 7 6 8 8 7 7 7 7 6 4 3 5 4 14 14
3 2 3 0 -2 -1 -3 -8 -0 -2 -4 -3 -3 -2 -2 0 2 3 4 4 5 3 6 6 6 4 7 7 7 7 6 6 8 8 7 7 7 6 6 6 5 3 4 13 15
2 2 2 1 -3 -7 -9 -8 -2 -3 -2 -3 -2 -3 -0 0 1 2 2 1 3 5 5 5 6 4 6 6 6 4 6 7 7 7 6 6 7 6 5 5 5 3 6 11 11
2 0 1 -2 -6 -8 -8 -8 -6 -6 -3 -2 -2 -3 -2 -2 1 0 2 0 1 5 4 5 5 4 5 6 6 5 4 7 7 6 6 6 7 6 4 4 5 4 6 11 9
1 -6 -1 -3 -6 -6 -6 -7 -7 -6 -5 -3 -2 -3 -3 -2 -0 1 0 1 2 2 4 5 4 5 5 6 6 5 8 6 7 7 7 6 7 8 5 5 5 4 2 10 9
-1 -6 -5 -4 -6 -5 -5 -6 -6 -6 -7 -3 -3 -3 -3 0 0 -1 -1 1 3 5 2 5 4 5 5 5 6 6 6 8 6 7 7 6 8 6 5 6 5 5 3 4 10
-2 -4 -5 -6 -5 -3 -4 -4 -4 -5 -4 -1 -2 -1 -2 -1 -1 -1 -1 -0 3 4 1 4 5 4 4 5 6 6 8 6 6 6 7 7 6 5 5 6 6 5 5 1 7
-2 -3 -6 -7 -6 -4 -2 -2 -1 -0 -0 -0 -1 -3 -2 0 0 -1 -0 1 1 3 2 5 5 4 4 5 6 7 6 6 5 4 6 7 3 6 6 5 6 6 5 1 -0
-2 -2 -4 -5 -6 -7 -3 -1 -2 -2 1 1 1 -1 0 2 1 -0 -0 1 2 4 5 5 6 5 4 3 3 4 4 5 4 3 4 6 4 6 5 7 7 5 4 -0 -1
-2 -1 -3 -5 -4 -5 -5 -4 -1 -1 1 1 1 1 1 2 -0 -0 1 1 2 5 4 5 6 3 4 3 4 5 5 5 3 2 4 4 4 2 2 4 4 4 2 -1 -2
-2 -1 -1 -3 -4 -3 -4 -3 -2 -1 1 2 1 1 1 1 2 1 3 3 4 4 4 5 5 4 4 4 5 4 4 4 3 1 2 3 4 4 2 1 1 1 0 -0 -1
-2 -1 -1 -1 -1 -2 -1 -3 -2 -2 -1 4 3 1 1 1 2 3 3 3 3 5 4 5 4 5 5 5 4 6 3 3 3 3 6 1 7 2 2 2 1 1 1 0 0
-2 -1 -0 0 0 1 1 2 0 0 1 3 3 2 1 2 1 3 3 3 4 4 4 5 5 5 5 5 3 4 4 3 2 3 3 3 4 3 -1 0 1 -0 -0 -0 -0
-3 -0 1 2 2 2 2 1 0 -2 2 4 4 4 4 3 3 2 3 4 3 4 5 5 4 4 5 4 3 4 3 3 4 3 6 3 4 4 1 -1 -2 -2 -2 -1 -2
-3 -1 1 2 3 2 2 2 -2 0 -2 3 5 4 4 4 4 3 4 4 4 4 6 6 5 4 3 4 4 3 5 5 5 7 6 2 3 2 -1 -3 -4 -4 -4 -4 -1
-2 0 1 2 3 3 2 -2 1 0 1 0 3 4 5 3 3 3 4 5 4 4 6 6 7 5 3 3 5 4 4 4 5 6 4 1 4 2 -2 -2 -3 -3 -4 -3 -3
-1 2 3 3 3 3 1 -1 -1 -2 -2 3 2 5 4 5 4 4 3 5 4 3 4 4 5 3 4 4 3 5 5 0 3 -0 1 2 0 -3 -4 -4 -4 -4 -4 -3 -3
-1 2 3 4 4 3 -1 1 1 -1 0 3 3 1 4 5 5 5 5 3 4 2 0 2 4 4 4 4 4 4 3 5 4 5 5 2 1 0 -3 -4 -3 -1 -1 -2 -2
1 2 3 4 4 1 -1 -2 2 2 2 2 2 2 1 5 4 4 3 2 2 3 2 1 1 4 4 5 6 6 6 5 3 2 3 3 0 -4 -3 -5 -5 -2 0 0 -0
-2 -1 1 2 1 -1 -1 0 1 2 2 2 1 1 1 0 3 4 3 1 2 3 4 1 1 3 4 4 2 3 4 5 6 4 1 -1 1 -6 -5 -5 -5 -1 1 2 1
-2 -1 0 0 -1 -1 0 1 2 2 0 -0 0 -0 -1 1 1 1 1 -0 1 2 2 2 2 4 6 4 4 5 4 4 4 2 0 5 3 -5 -4 -3 -1 1 2 2 2
-5 -4 -7 -3 -1 1 2 1 2 1 2 0 -1 -1 -0 1 -1 0 1 0 -0 0 0 2 2 2 2 1 2 6 4 4 5 6 4 2 1 -3 -4 -3 -2 1 2 3 3
-8 -2 -4 -4 -6 -1 0 1 2 3 1 0 0 -0 1 2 0 1 0 1 0 -1 1 1 3 2 1 -1 2 3 4 4 5 5 6 2 1 -1 -2 -3 -4 -2 1 3 3
-8 -6 -4 -5 -4 -2 -1 1 -1 -0 0 2 1 1 1 2 0 0 0 1 1 -0 0 -0 3 -0 0 -0 1 2 2 2 4 4 4 4 4 0 -2 -3 -4 -3 -0 2 3
-8 -7 -6 -5 -4 -5 -3 -4 -5 -4 -6 -1 -5 -5 1 3 1 -0 -1 -1 -1 0 0 0 1 0 1 0 -0 1 1 1 1 2 3 5 3 -1 -1 -2 -3 -3 -1 1 1

GFSSW_850_dewp_081.txt.gz
Dewpoint
4 4 4 3 3 2 -1 -0 -6 -4 -1 -1 -1 -3 -1 1 2 3 4 1 2 6 6 4 7 7 8 9 7 7 8 8 6 5 6 7 6 6 4 4 8 10 12 14 14
4 4 3 3 2 -1 -2 -7 -4 -1 -2 -2 -3 -2 1 2 2 3 3 3 5 6 6 4 6 6 8 8 8 8 8 6 4 5 7 7 7 7 5 2 4 4 7 14 15
4 2 3 3 -1 -2 -4 -2 -0 -2 -4 -4 -2 -3 -0 2 3 2 -0 3 5 5 6 5 6 5 7 8 8 8 8 6 8 7 6 7 7 6 6 4 5 6 4 11 14
4 2 3 4 -6 -8 -10 1 -2 -4 -4 -4 -3 -2 -3 1 2 3 3 3 5 5 5 6 5 5 6 7 7 8 6 7 8 8 7 7 6 6 6 5 5 5 4 8 14
3 -0 2 -0 -6 -7 -8 -8 -3 -5 -4 -3 -4 -4 -2 -0 -0 2 1 2 3 5 4 6 5 4 6 7 6 5 6 7 7 6 5 6 7 6 5 5 5 4 4 6 12
2 -2 3 1 -6 -6 -6 -8 -7 -6 -4 -4 -5 -5 -4 -2 -1 0 1 2 3 4 4 6 5 4 4 6 6 4 7 8 6 6 5 6 7 6 5 5 4 4 4 4 9
2 -2 -5 0 -4 -6 -6 -6 -6 -5 -6 -5 -5 -4 -1 -1 -1 0 -1 2 2 3 4 5 5 4 5 6 6 5 7 6 7 6 7 4 6 6 6 5 5 3 4 4 3
-1 -1 -6 -6 -5 -4 -5 -6 -7 -7 -7 -3 -3 -4 -1 -0 -0 -1 -1 1 3 3 4 5 4 5 5 5 6 6 6 8 6 6 7 4 7 4 4 4 5 4 4 4 3
-2 -0 -5 -6 -6 -5 -3 -5 -3 -3 -2 -1 -2 -3 -2 -1 -1 -1 -0 2 3 4 3 4 5 4 4 6 7 6 8 7 8 6 7 6 6 3 4 5 5 5 5 5 3
-3 -2 -3 -6 -6 -7 -4 -3 -3 -1 -0 -1 -1 -4 -0 1 -0 0 0 2 2 4 3 5 4 5 5 6 7 7 7 6 7 7 7 7 7 5 5 6 6 5 5 5 4
-4 -1 -2 -5 -5 -6 -6 -2 -2 -2 1 1 1 0 1 1 0 -0 1 2 4 3 4 5 5 6 5 3 3 4 5 5 4 4 7 7 6 5 6 5 5 5 5 5 4
-6 -1 -2 -3 -4 -4 -5 -4 -3 -1 1 1 1 1 2 1 -0 0 2 2 3 4 3 4 6 3 3 3 4 4 5 5 3 3 6 6 7 4 6 6 5 5 4 4 4
-8 -2 -1 -2 -3 -3 -3 -3 -3 -1 1 2 2 1 1 1 2 2 3 3 3 3 4 5 5 3 4 4 5 4 5 4 4 2 2 4 6 4 3 5 5 4 4 4 3
-9 -2 -1 -0 -1 -1 -1 -2 -3 -2 1 4 3 2 1 1 1 3 4 3 3 4 4 5 4 4 4 4 4 6 3 3 3 4 7 2 8 4 3 5 3 4 2 3 2
-10 -1 0 1 0 1 2 1 1 -0 2 2 3 1 1 0 1 2 4 3 4 4 4 5 5 5 5 5 2 4 3 3 2 3 3 3 5 3 1 4 2 1 2 1 1
-9 -1 0 2 2 2 2 1 0 -2 2 4 4 3 4 3 3 2 3 3 3 3 4 5 4 4 4 4 3 3 3 3 3 3 6 4 4 4 2 -0 -1 -0 1 1 0
-5 -0 1 2 3 2 2 2 -2 1 -2 2 3 3 3 4 3 2 4 4 3 4 6 5 5 4 3 4 4 3 4 6 6 6 6 2 4 3 -0 -1 -3 -3 -3 -2 -1
-2 1 3 3 3 2 1 -1 1 0 1 0 2 3 5 3 3 3 4 4 4 4 6 6 6 5 3 3 5 4 4 5 6 6 4 1 4 2 -1 -2 -2 -3 -4 -4 -4
-0 2 3 4 3 2 1 -1 -1 -2 -2 2 2 5 3 4 4 2 4 3 4 3 5 5 5 3 4 3 3 5 6 1 3 0 2 1 0 -3 -4 -4 -4 -4 -4 -4 -3
1 1 3 4 3 2 -2 1 1 -2 -1 3 3 1 4 4 4 4 4 2 4 2 -0 2 4 4 4 4 4 4 2 5 5 6 5 2 0 -0 -3 -5 -5 -5 -5 -3 -3
1 1 1 3 3 0 -1 -1 1 1 2 2 2 2 1 4 4 3 3 2 2 3 1 0 1 5 4 6 6 6 6 4 3 2 4 3 -0 -4 -3 -5 -5 -6 -5 -3 -2
-1 -2 1 1 -0 -1 -1 1 1 2 2 2 1 1 1 0 5 3 3 2 2 3 4 1 1 4 5 3 3 3 4 4 6 4 1 0 2 -6 -6 -5 -5 -4 -2 0 0
-4 -2 -2 -1 -3 -2 -1 0 2 2 1 -0 0 0 -0 1 2 2 1 -0 2 2 3 2 4 5 5 4 3 5 4 4 3 2 1 5 2 -6 -5 -4 -3 -1 1 2 1
-6 -5 -7 -3 -1 -0 1 0 2 1 2 1 -0 -1 -1 0 -0 1 1 0 1 2 1 2 3 2 3 1 2 5 4 4 5 6 3 3 2 -1 -2 -3 -4 -3 0 2 1
-9 -5 -6 -5 -6 -2 -0 1 2 2 0 1 1 -0 1 2 0 1 -0 0 0 0 3 4 5 3 2 -0 3 3 3 4 5 4 5 2 2 -0 -2 -2 -3 -3 -2 2 2
-10 -7 -4 -5 -4 -3 -2 0 -1 -1 -2 0 1 -3 1 3 2 3 3 2 1 0 1 0 4 1 1 0 0 2 2 3 3 3 3 3 3 -0 -1 -1 -0 0 -1 -0 2
-12 -9 -6 -6 -5 -7 -5 -3 -4 -5 -7 -4 -4 -4 -2 -2 2 1 1 1 1 1 1 1 2 3 4 0 -0 2 2 2 2 2 3 5 2 -0 1 1 1 1 1 -1 -2

GFSSW_850_dewp_084.txt.gz
Dewpoint
3 2 4 4 2 -2 -3 -9 -3 -2 -1 -1 -2 -3 -2 -1 1 3 4 3 4 5 5 5 7 8 9 9 8 7 9 7 5 5 3 5 3 6 5 6 7 7 9 12 14
4 2 2 3 1 -5 -7 0 1 -3 -4 -4 -3 -3 -0 1 2 3 2 2 4 5 6 6 6 7 7 8 8 8 8 6 3 3 3 5 3 5 4 5 5 5 6 13 15
4 2 2 3 -8 -8 -9 2 -3 -4 -4 -4 -4 -3 -1 2 2 3 2 2 4 6 6 5 5 5 4 7 7 6 8 5 4 3 4 5 5 6 3 5 5 5 6 12 15
3 3 3 1 -7 -8 -9 -6 -5 -4 -3 -3 -4 -3 -1 -0 1 3 3 3 4 6 6 6 5 5 4 5 7 7 5 5 7 7 6 5 5 5 5 5 5 5 5 9 14
3 3 2 2 -7 -7 -7 -9 -7 -5 -4 -4 -4 -4 -2 -1 0 2 2 3 3 5 6 4 4 3 3 4 6 6 6 6 7 6 6 6 6 3 5 5 5 5 5 6 10
2 3 -2 3 -0 -6 -6 -7 -7 -6 -5 -5 -5 -4 -2 -2 0 1 1 2 3 5 6 5 4 3 3 5 5 5 5 6 6 6 5 5 6 6 5 5 5 5 5 5 5
1 3 -0 -4 -3 -5 -6 -7 -7 -8 -8 -6 -6 -2 -1 -0 -0 0 -0 2 3 5 5 5 5 5 2 5 4 4 6 6 6 6 6 4 5 6 4 5 5 4 5 4 5
-1 2 2 -6 -6 -6 -5 -6 -6 -7 -7 -5 -5 -3 -1 -1 -1 -1 0 2 3 2 4 5 5 5 4 5 5 4 3 6 5 6 6 5 6 2 4 4 3 3 4 4 4
-5 -1 0 -5 -6 -7 -5 -4 -3 -0 -2 -4 -4 -3 -2 -1 -2 -1 0 2 3 4 4 6 3 5 5 5 6 5 5 4 7 6 5 5 5 2 4 4 3 2 3 4 4
-15 -2 -1 -3 -5 -6 -7 -4 -3 -1 -2 -3 -2 -2 -0 1 -0 1 1 2 3 4 5 5 5 4 4 5 6 6 4 3 4 5 5 5 4 3 4 4 3 2 2 3 4
-17 -3 -1 -2 -5 -5 -6 -3 -2 -0 1 1 1 1 1 0 0 1 2 3 3 3 4 4 6 4 2 3 2 3 4 4 3 4 5 4 4 3 2 4 3 3 2 2 4
-16 -3 -1 -2 -4 -4 -5 -4 -3 -1 1 2 0 1 1 -0 -1 2 3 3 3 3 3 4 6 1 3 3 2 3 2 2 3 3 5 4 5 3 2 3 3 3 3 2 3
-13 -2 -1 -1 -2 -3 -3 -4 -3 -0 2 2 2 2 2 1 2 3 3 3 2 2 3 5 5 2 2 3 3 2 2 3 3 2 4 4 4 3 2 3 3 3 4 4 3
-12 -2 -0 0 -0 -0 -1 -2 -3 -1 5 2 2 1 2 1 2 3 3 3 2 3 3 4 3 3 3 3 2 4 3 3 3 4 5 3 4 2 1 2 3 2 3 4 4
-11 -1 -0 1 1 2 1 1 1 -1 5 1 2 0 1 -0 1 2 3 4 2 3 3 6 5 4 4 3 2 2 3 3 3 4 4 4 5 1 0 2 2 1 2 2 4
-8 -1 1 2 2 2 1 0 -0 4 5 4 3 2 2 2 1 2 3 4 3 3 4 5 4 2 1 3 2 2 3 3 2 3 5 1 4 1 -0 -1 -1 -0 1 2 2
-2 1 2 2 2 2 1 1 5 6 -0 3 2 2 2 2 2 1 2 3 4 5 6 5 5 4 4 4 3 3 3 6 7 7 4 1 3 -1 -3 -2 -2 -2 -2 -0 1
-1 2 3 3 2 2 1 1 7 2 3 1 2 2 3 2 1 1 1 3 2 2 6 7 6 5 3 3 5 3 2 3 4 3 1 2 3 -3 -3 -3 -2 -2 -3 -3 -3
-1 1 3 3 3 2 1 7 3 3 1 2 2 4 3 3 3 2 1 0 1 2 5 5 6 3 4 3 3 5 6 1 4 1 3 0 0 -2 -4 -3 -3 -3 -3 -2 -2
0 1 2 3 3 2 2 4 3 -1 -0 2 3 2 2 3 3 3 1 -0 2 2 1 2 5 4 4 3 3 4 1 5 6 6 4 1 0 -3 -4 -4 -6 -6 -6 -5 -3
0 2 1 2 2 1 7 3 2 1 1 2 2 2 1 3 3 3 3 1 1 2 1 1 2 5 5 6 7 5 4 4 2 2 4 1 -2 -4 -4 -5 -5 -5 -4 -2 -1
2 2 -0 1 2 1 3 1 1 1 2 2 1 1 1 0 4 4 3 1 1 2 3 0 2 5 4 3 2 3 2 3 4 4 3 2 0 -5 -6 -6 -5 -3 -1 2 0
-2 0 -2 -0 3 1 -1 -0 2 2 1 1 1 0 -0 1 2 1 1 0 2 2 3 1 5 6 5 4 3 5 3 3 2 3 6 4 0 -6 -5 -4 -3 -2 -1 2 2
-5 0 -5 -3 -1 -2 -2 -1 0 1 1 1 0 -1 0 1 -0 2 1 0 1 2 2 1 4 3 2 2 1 4 3 3 5 7 3 4 0 -3 -3 -2 -3 -3 -3 -0 0
-10 -5 -8 -1 -6 -3 -2 -0 0 0 1 0 1 0 1 1 0 0 0 0 1 3 3 3 6 4 2 1 2 3 3 3 5 5 5 2 1 -1 -3 -4 -4 -3 -2 -1 2
-12 -7 -6 -5 -4 -4 -3 -2 1 -1 -2 -1 1 -1 -2 2 2 5 3 3 3 2 4 4 6 5 6 4 2 3 2 2 2 3 2 2 2 -2 -3 -3 -2 -2 -2 -1 -0
-15 -14 -11 -5 -5 -7 -8 -3 -4 -5 -7 -5 -4 -3 -3 -5 -3 -2 2 1 0 3 4 3 4 4 5 3 4 5 2 1 1 1 2 4 1 -2 -1 -1 -1 -1 -1 -0 0

GFSSW_850_dewp_087.txt.gz
Dewpoint
4 4 3 4 3 -7 -7 2 2 -2 -4 -4 -4 -3 -2 -1 0 2 4 4 5 5 6 7 7 5 8 9 8 8 9 7 2 2 2 2 3 4 5 6 6 7 8 11 14
4 3 2 4 1 -9 -6 2 -3 -4 -4 -4 -4 -3 -3 1 4 3 3 3 4 5 7 7 5 4 7 7 8 8 9 5 0 -0 2 3 1 3 3 4 6 5 8 13 15
3 3 3 2 2 -8 -9 -4 -1 -3 -4 -4 -5 -4 -2 1 3 4 3 1 3 6 7 7 5 3 3 5 8 6 8 3 4 6 3 4 2 3 1 4 5 5 7 13 15
3 3 -1 3 1 -7 -7 -8 -6 -5 -4 -5 -6 -4 -3 2 4 3 3 3 4 6 6 7 5 2 1 5 7 7 5 6 4 7 4 4 3 3 1 4 5 5 7 12 14
3 3 1 -1 3 -4 -6 -6 -7 -6 -5 -5 -6 -6 0 -1 0 -1 2 3 3 5 6 6 4 2 1 1 5 6 7 5 6 6 4 3 4 2 4 5 5 5 6 8 13
3 3 2 -6 0 -2 -6 -6 -7 -7 -7 -6 -7 -3 -0 -2 0 1 1 3 4 6 6 6 3 2 0 -1 3 4 8 6 7 6 5 5 4 5 3 5 5 5 4 6 7
1 2 2 -4 -6 -6 -5 -7 -7 -7 -8 -6 -6 -3 -2 -1 0 1 1 3 3 6 5 4 4 2 1 1 1 2 6 6 4 6 5 4 4 6 2 4 4 5 4 5 6
-2 -1 1 -2 -7 -6 -5 -5 -2 -0 -4 -4 -5 0 -3 -1 0 1 2 2 4 5 5 2 4 5 3 2 3 2 4 8 6 4 4 4 4 2 2 3 3 2 3 4 5
-8 -7 -1 -2 -6 -6 -7 -5 -4 -0 -4 -3 0 -1 -3 -0 0 2 3 3 3 5 3 3 5 4 4 4 5 3 4 4 5 3 3 5 4 0 1 3 3 2 1 2 3
-11 -8 -1 -2 -5 -6 -6 -5 -3 1 -1 -1 -0 -0 -1 0 1 2 3 4 3 4 4 4 5 3 2 3 5 4 1 -0 2 5 4 5 4 0 2 4 3 2 1 1 2
-12 -7 -1 -1 -4 -5 -5 -3 0 1 0 0 1 -0 0 1 1 2 3 3 3 4 4 4 6 4 1 0 -0 -2 -0 -1 -2 1 4 4 3 2 1 2 3 2 1 0 1
-11 -5 -1 -1 -3 -4 -5 -1 -1 2 0 1 1 0 1 1 1 3 3 1 1 4 3 5 5 1 -1 -0 2 2 0 1 1 1 2 1 2 0 -0 0 1 2 1 0 0
-10 -3 -1 -1 -2 -2 -0 -1 -3 0 1 1 2 1 1 2 3 2 3 2 -0 2 3 6 3 2 2 2 2 1 1 3 2 2 2 2 3 1 -0 -0 0 1 1 2 2
-10 -2 -0 0 2 0 1 -2 -4 -1 5 1 -0 1 2 1 2 2 3 3 1 1 3 4 3 3 2 1 0 2 -0 -1 1 3 4 1 1 -3 -2 -0 0 0 1 1 3
-10 -1 1 1 2 3 2 -0 -2 1 7 1 1 0 2 0 1 2 3 3 0 1 3 5 4 3 2 0 0 1 1 2 2 3 3 3 4 -0 -2 -0 -1 -1 0 0 2
-7 -1 2 2 3 2 0 0 -0 5 5 3 1 1 -0 0 -0 1 2 3 1 1 3 4 4 1 0 1 1 2 2 2 2 3 8 2 3 0 -2 -1 -2 -3 -2 -1 0
-2 2 2 2 3 1 -0 2 5 7 1 3 2 1 1 1 0 -0 1 3 4 6 7 5 5 2 3 4 2 2 2 6 6 7 5 -1 -1 -1 -4 -4 -4 -4 -4 -2 -1
-1 2 3 3 2 1 3 2 8 2 4 1 2 1 2 0 0 -1 1 2 1 2 6 7 7 4 1 2 2 1 2 3 4 2 0 1 1 -2 -6 -5 -6 -4 -3 -3 -2
-0 1 3 3 2 2 2 6 4 4 3 2 2 3 2 1 1 1 -0 -0 -2 1 5 7 8 3 3 2 3 3 5 -0 3 1 2 -1 -2 -5 -6 -4 -3 -3 -3 -2 -2
-0 3 3 3 2 3 3 4 3 -0 -0 1 2 1 0 2 3 2 0 -3 -2 -1 1 5 7 4 4 3 3 5 1 5 6 5 2 -4 -1 -3 -6 -5 -6 -6 -6 -5 -5
1 3 1 2 1 2 5 2 1 0 1 2 0 0 -0 0 1 2 1 -1 -3 -1 -2 -0 4 5 5 6 3 4 4 4 2 -1 2 -1 -2 -5 -5 -5 -5 -5 -3 -1 -1
3 3 0 1 3 2 3 -0 1 0 1 1 1 1 -0 -1 -0 2 1 1 -0 -1 2 0 3 8 5 3 2 2 2 1 4 3 2 2 1 -6 -6 -6 -5 -2 -0 1 1
1 2 -2 -1 4 2 -2 -2 1 1 1 0 1 -1 -2 -1 -0 -2 -0 -2 1 2 1 1 5 6 6 5 4 6 5 4 1 1 8 4 1 -5 -5 -5 -4 -2 -3 -2 1
-1 1 -2 -0 -2 -5 -5 -5 -4 1 1 -0 -0 -1 -1 -2 -3 -1 -2 -0 1 2 4 3 4 3 4 4 2 4 3 3 4 8 4 4 0 -3 -4 -3 -4 -3 -4 -3 -2
-5 -4 -2 0 -5 -5 -4 -4 -5 -4 -1 0 -2 -1 -1 -1 -5 -6 -5 -3 -1 2 4 4 6 5 2 0 1 3 3 2 5 5 6 2 1 -2 -3 -4 -4 -4 -4 -3 -2
-6 -6 -8 -6 -5 -5 -4 -5 -4 -5 -2 -9 -3 -5 -4 -6 -8 -5 -2 1 3 3 4 4 6 5 6 5 2 3 1 2 2 2 3 3 2 -2 -3 -3 -3 -4 -4 -3 -2
-16 -15 -8 -6 -7 -8 -11 -7 -6 -5 -8 -7 -6 -5 -7 -7 -4 -5 -5 -3 2 2 3 4 5 6 6 5 5 6 4 2 1 1 1 4 1 -2 -2 -3 -3 -3 -2 -2 -2

GFSSW_850_dewp_090.txt.gz
Dewpoint
3 4 4 4 3 -4 -9 2 0 -4 -5 -5 -5 -5 -4 -1 -1 3 4 4 3 5 5 5 7 6 3 8 8 8 10 9 7 4 3 2 4 4 5 6 6 7 12 13 14
4 4 4 4 3 -1 -6 -7 2 -1 -5 -6 -6 -4 -4 1 3 3 3 2 0 4 7 6 6 5 7 6 8 8 10 8 4 6 4 2 3 3 5 6 5 9 12 14 14
4 4 3 3 3 -3 -6 -7 -6 -1 -5 -7 -7 -5 -3 0 2 3 2 2 3 5 5 6 6 4 7 6 9 8 8 6 4 6 6 4 1 2 4 6 5 6 12 14 14
3 4 3 1 3 2 -4 -7 -7 -7 -6 -6 -7 -7 -2 2 3 -1 1 1 2 4 6 6 5 5 4 7 7 9 7 6 6 6 6 6 3 3 2 5 5 7 11 14 14
-2 3 3 3 -2 2 -3 -4 -8 -7 -8 -8 -8 -4 -0 -1 -0 1 1 2 2 4 6 5 5 3 2 5 6 7 6 6 7 7 7 6 5 3 5 5 5 6 10 12 13
-8 -2 3 3 -6 -5 -4 -7 -6 -3 -8 -8 -7 -1 0 -2 0 1 1 3 4 5 6 6 5 4 2 2 6 6 5 7 7 7 5 5 5 4 5 5 5 5 6 9 13
-10 -12 -1 1 -6 -6 -6 -6 -2 -1 -6 -5 -8 -1 -2 -1 1 1 2 3 3 5 6 5 5 5 3 0 4 5 6 7 9 7 5 5 6 6 4 5 4 5 5 6 7
-6 -16 -3 -1 -5 -7 -7 -5 -3 -2 -6 -6 -3 1 -2 -1 0 1 3 2 4 6 5 3 4 4 4 2 2 6 7 8 6 5 6 5 6 4 3 4 4 4 4 4 6
-8 -15 -3 -2 -4 -6 -7 -5 -0 0 -6 -1 -1 -0 -2 -1 0 2 3 3 5 3 3 2 2 5 4 4 4 4 7 8 7 7 6 6 5 1 3 2 3 3 2 3 4
-9 -14 -3 -2 -4 -6 -6 -5 -2 0 -1 0 -1 -1 -1 -0 1 2 3 4 4 3 1 2 5 5 4 6 7 5 3 3 6 7 5 7 5 2 0 3 3 3 3 2 3
-10 -12 -2 -2 -3 -5 -5 -1 2 0 0 -0 0 -1 -0 1 2 3 3 3 3 3 4 4 6 6 3 2 -1 0 1 1 2 5 6 4 4 3 1 3 3 3 2 2 1
-9 -11 -2 -1 -3 -4 -3 0 -1 1 1 -0 -0 0 1 2 2 2 3 2 3 4 4 5 6 2 0 0 0 2 0 0 3 4 6 3 3 1 0 1 3 3 2 1 1
-8 -9 -2 -0 -2 -2 1 -1 -2 1 3 1 1 -1 1 2 2 3 3 2 0 2 3 5 5 2 2 1 3 3 3 3 4 2 1 2 3 1 -1 -1 -1 1 1 1 1
-8 -5 -1 0 3 1 2 -2 -4 1 4 1 -1 1 1 1 2 3 3 3 0 2 3 4 3 3 3 3 2 4 0 4 4 3 5 2 5 1 0 -0 -1 -0 0 1 1
-8 -2 1 1 2 3 2 -2 -4 1 6 1 1 -1 2 1 1 3 1 3 1 1 3 5 4 4 4 1 0 2 1 3 4 3 3 4 5 1 -2 1 -0 -1 -0 0 1
-9 -1 1 2 3 2 -0 -1 -1 5 4 3 1 1 1 -0 -0 2 2 3 2 0 2 3 3 4 2 1 -0 2 3 2 2 3 7 5 4 3 -1 -2 -2 -2 -1 -1 0
-5 1 2 3 4 -1 -1 2 6 7 1 3 1 0 0 0 -0 0 2 2 4 5 5 4 4 2 3 5 3 3 4 7 7 7 6 -0 3 2 -2 -4 -4 -3 -3 -2 -1
-1 2 2 3 -0 -1 2 3 6 2 4 1 1 1 2 -0 0 -0 0 1 2 2 5 4 6 5 3 4 4 4 4 6 5 5 2 -1 3 -1 -6 -5 -4 -4 -4 -3 -2
1 1 3 2 0 2 4 6 5 5 3 1 1 2 3 1 1 0 0 1 -0 1 5 5 4 2 2 1 2 3 4 2 7 3 3 2 -1 -4 -6 -4 -4 -3 -3 -2 -3
1 4 4 3 1 3 4 5 3 -0 -0 1 2 1 1 2 3 2 1 -2 -1 -2 -0 5 6 4 4 3 3 5 3 5 5 5 3 -3 -4 -2 -5 -5 -3 -5 -4 -3 -3
2 5 4 2 2 4 3 4 0 -0 0 1 1 -0 -1 -1 3 2 1 -1 -3 -2 -1 4 6 6 5 5 5 6 7 6 3 2 3 2 -0 -5 -4 -4 -3 -2 -1 -1 -1
4 5 2 1 5 4 6 1 -0 -1 0 1 1 1 1 -1 -1 -1 2 -1 0 1 2 1 5 6 6 4 2 2 4 5 7 5 3 3 2 -6 -5 -5 -4 -0 1 1 -0
4 4 1 3 7 6 -1 -3 -1 0 0 1 1 -1 -2 -1 -0 -3 -3 -1 1 3 4 2 5 7 7 6 4 6 4 3 4 5 5 4 2 -5 -5 -5 -4 -2 -3 -2 -0
1 3 -0 1 -0 -2 -4 -5 -3 -1 0 -1 -1 -2 -1 -1 -4 -2 -3 -2 -0 1 3 4 5 3 3 4 4 6 5 3 5 7 4 5 2 -2 -3 -3 -4 -2 -3 -3 -3
-1 0 -1 2 -2 -3 -5 -5 -6 -4 -1 -2 -1 -1 -4 -1 -3 -5 -8 -8 -3 2 1 3 5 5 3 1 4 5 4 4 6 6 5 3 3 -0 -2 -3 -4 -4 -3 -3 -3
-4 -5 -8 -5 -6 -5 -3 -5 -5 -6 -2 -7 -4 -7 -5 -4 -6 -5 -4 -4 -2 2 3 2 5 4 6 5 5 5 3 3 3 4 4 3 3 -1 -1 -1 -2 -2 -3 -3 -2
-5 -7 -9 -6 -6 -7 -6 -7 -6 -5 -8 -7 -6 -6 -6 -5 -4 -5 -5 -5 -1 1 1 2 3 4 6 5 5 6 5 3 2 1 2 5 2 -1 -1 -2 -2 -3 -3 -3 -2

GFSSW_850_dewp_093.txt.gz
Dewpoint
2 3 3 3 4 4 1 -3 -5 -6 -6 -0 2 -5 -4 -0 1 2 4 4 3 5 5 3 5 7 7 7 8 8 9 10 8 6 5 3 4 3 6 7 8 12 14 13 14
-7 2 2 3 4 2 -1 -1 -7 -8 -6 -7 -8 -6 -4 0 3 2 3 2 3 4 4 5 6 7 6 7 8 9 9 8 6 6 3 4 3 4 5 6 12 13 13 13 14
-13 -3 2 4 -1 3 3 2 -5 -8 -7 -7 -9 -7 -2 1 2 -0 1 3 2 3 4 5 6 7 6 7 9 8 9 7 8 8 4 4 2 4 6 6 7 14 13 14 14
-12 -10 -2 2 -1 -3 3 -1 2 -7 -8 -8 -9 -2 0 0 2 1 1 1 2 4 5 5 5 6 6 7 8 9 7 8 8 7 5 7 5 2 5 5 7 10 12 14 14
-5 -14 -6 2 0 -6 -4 -5 -3 -2 -8 -10 -8 -0 -0 -1 0 1 1 2 2 3 5 4 5 6 6 6 6 8 6 7 9 8 8 7 8 6 5 5 7 9 13 14 13
-5 -10 -10 -2 -3 -7 -7 -6 -3 -2 -9 -8 -7 -2 -1 -1 0 1 2 3 3 4 5 3 5 5 5 6 6 6 6 6 7 8 8 7 8 8 5 5 6 10 12 14 13
-6 -7 -12 -2 -3 -7 -7 -5 -2 -6 -6 -6 -2 -0 -1 -1 0 1 3 3 4 5 5 6 4 6 4 6 4 5 7 6 5 8 8 7 9 8 5 4 5 7 8 11 13
-7 -9 -10 -2 -3 -7 -7 -1 -0 -7 -3 -2 -1 -0 -2 -0 -0 1 3 4 4 5 5 4 3 4 4 4 5 7 6 7 7 7 7 8 9 8 5 5 4 5 6 6 10
-8 -10 -9 -2 -3 -6 -6 -2 -1 -1 -2 -1 -1 -1 -1 -0 0 2 4 5 3 3 2 2 0 3 3 3 6 5 9 7 7 7 8 7 8 5 4 4 4 4 4 5 5
-6 -9 -8 -2 -3 -6 -5 -4 -0 -1 -2 -0 -1 -1 -1 0 2 2 3 4 2 1 0 1 3 4 3 4 6 6 7 7 7 7 7 8 7 4 3 3 4 4 3 4 6
-5 -9 -7 -2 -3 -5 -4 -1 2 -0 -1 -1 -1 -1 0 1 2 2 3 3 2 2 3 4 4 5 4 3 2 2 2 3 5 6 6 7 7 5 2 3 3 3 3 3 3
-5 -8 -4 -1 -3 -4 -1 -0 2 1 1 -1 -0 0 1 1 2 1 2 3 3 4 3 4 4 3 3 2 2 2 2 3 5 6 6 7 6 4 3 3 3 3 3 3 2
-4 -9 -2 -0 -2 -2 -1 -1 -0 1 2 1 -0 -1 0 2 2 1 3 2 2 4 4 4 5 4 3 3 2 2 3 2 6 5 6 6 6 3 1 0 2 2 1 1 2
-5 -8 -1 -0 2 1 1 -4 -1 1 -1 1 1 -0 1 1 2 2 3 3 0 4 4 4 3 3 4 4 2 4 2 3 4 5 7 2 5 1 1 0 -1 2 2 1 1
-5 -7 -0 1 2 3 2 -2 -4 1 -2 -1 2 -1 1 1 1 2 0 3 2 2 2 3 4 4 4 3 1 3 2 4 5 4 3 3 5 3 -1 0 -0 -1 -1 2 1
-6 -3 1 2 2 2 -0 -3 0 1 -3 2 2 2 2 -0 0 2 2 2 2 1 2 3 3 3 3 3 2 1 3 3 2 3 5 4 5 4 0 -1 -0 -1 -1 -1 0
-7 -1 2 2 3 -0 -1 2 1 -2 -1 1 2 1 1 1 1 2 3 3 4 3 3 2 3 3 3 4 3 2 4 6 5 4 4 2 4 3 -1 -3 -4 -2 -1 -1 -1
-7 1 2 2 1 -1 3 1 -2 1 2 0 1 1 2 1 1 2 1 3 2 3 4 2 -0 4 3 4 4 4 4 5 5 6 3 0 3 -0 -4 -4 -4 -3 -3 -3 -1
-2 2 2 2 -1 1 3 2 -1 2 2 3 2 3 3 2 1 1 1 1 -1 1 5 4 3 3 3 2 2 3 4 2 5 4 2 2 -0 -3 -4 -4 -4 -3 -3 -3 -3
-1 2 2 2 0 3 3 3 1 2 1 1 2 2 2 2 3 2 1 -1 -0 -1 -0 3 4 4 3 3 4 4 3 4 6 7 5 -0 -0 -1 -5 -5 -3 -3 -3 -3 -2
2 5 4 2 2 4 -1 3 1 -0 -0 1 2 2 -1 -1 3 2 1 -0 -2 1 -0 4 5 6 4 5 5 6 6 5 4 3 2 1 -1 -5 -4 -3 -1 -0 -0 -2 -3
3 4 4 2 4 4 2 1 -1 0 0 1 1 1 2 1 -0 -1 2 0 1 2 4 4 6 6 7 4 3 3 5 5 4 5 2 2 1 -5 -4 -3 -0 0 -1 -2 -3
4 4 3 3 4 3 -0 -3 -0 1 1 1 2 1 -1 -1 0 -2 -3 -0 -1 2 4 4 5 6 6 6 5 6 5 5 5 4 2 3 1 -5 -5 -4 -1 0 -1 -1 -2
3 3 1 3 3 -0 -1 -3 -1 -1 -0 0 -1 -1 -1 -0 -2 -2 -4 -3 -4 1 1 3 4 5 5 5 5 6 4 4 6 6 4 3 2 -3 -4 -4 -4 -2 -3 -2 -0
2 1 -2 2 1 -3 -7 -5 -4 -0 -0 -2 -1 -0 -3 -1 -2 -2 -6 -5 -2 1 3 3 4 5 4 4 5 6 5 5 6 5 4 2 2 0 -1 -2 -4 -3 -3 -3 -2
-2 -3 -2 -4 -3 -3 -3 -6 -5 -4 -3 -5 -1 -5 -6 -5 -6 -4 -3 -4 -2 -1 1 2 4 4 4 4 5 4 4 4 5 5 5 4 4 -1 -2 -1 -1 -2 -2 -2 -3
-2 -5 -9 -5 -6 -6 -4 -7 -4 -6 -7 -7 -6 -6 -6 -4 -4 -4 -5 -5 -4 -2 -1 0 2 -0 4 5 5 5 4 4 2 3 4 5 3 0 0 -1 -1 -1 -2 -3 -2

GFSSW_850_dewp_096.txt.gz
Dewpoint
-11 2 4 4 1 4 0 -7 -7 -7 -7 1 -9 -7 -4 -1 0 1 1 2 3 3 5 5 5 7 6 5 9 9 10 9 7 5 4 3 4 5 6 8 10 13 13 13 13
-6 1 4 4 2 -0 3 -1 0 -8 -8 -7 -9 -7 -0 0 1 -1 -1 4 2 4 3 6 6 6 7 5 9 9 9 8 7 6 3 3 3 5 7 11 13 14 13 14 13
-5 -3 3 3 4 -4 -1 -2 -3 -1 -7 -9 -10 -2 -0 -0 1 0 0 4 3 3 3 6 6 6 6 5 8 8 9 8 9 9 7 3 4 5 6 7 13 14 13 15 14
-6 -3 -6 1 3 -5 -6 -6 -4 -1 -7 -10 -9 -1 -0 -1 1 0 2 2 3 4 2 5 5 6 6 6 7 9 8 8 9 9 8 7 4 5 5 6 7 12 13 14 14
-6 -6 -6 -6 1 -6 -7 -6 -4 -3 -8 -8 -3 -3 -3 -1 0 1 2 3 3 4 4 3 6 6 6 7 6 8 8 8 9 8 8 7 8 7 6 7 9 11 13 13 14
-7 -7 -11 -6 -2 -6 -7 -4 -5 -6 -7 -8 -3 -2 -1 -1 0 1 2 3 4 6 3 3 5 5 7 6 6 7 8 6 8 9 9 8 8 6 5 9 10 12 13 14 13
-7 -8 -11 -4 -2 -7 -5 -4 -7 -5 -7 -2 -1 -2 -1 -0 -0 1 3 3 5 5 2 2 4 5 5 6 6 7 7 7 7 8 8 9 8 7 5 6 10 10 13 14 13
-6 -8 -10 -4 -3 -6 -4 -3 -3 -4 -2 -1 -1 -1 -2 -1 1 4 4 4 5 5 4 3 4 5 5 5 5 7 6 8 7 8 8 8 9 7 6 6 6 9 10 13 14
-6 -6 -10 -4 -2 -6 -5 -2 -3 -2 -2 -1 -1 -1 -1 0 2 3 4 3 3 4 3 3 4 4 4 5 6 6 8 7 7 7 8 8 8 5 6 6 5 6 7 8 11
-6 -5 -10 -4 -2 -5 -5 -4 -2 -2 -2 -2 -2 -2 -1 1 2 2 3 2 2 1 1 1 2 3 3 4 7 6 7 7 6 7 8 9 8 7 5 6 4 4 5 6 6
-6 -5 -9 -3 -3 -5 -5 -2 1 -1 -1 -1 -0 -1 0 1 2 2 3 2 2 0 2 3 2 4 4 3 3 3 6 6 5 5 7 7 7 7 7 6 3 3 4 4 5
-7 -4 -9 -3 -3 -4 -3 -1 2 0 -0 -1 -1 -1 1 2 1 1 2 2 2 4 3 2 2 4 4 3 2 3 3 4 5 5 6 5 5 5 6 5 3 3 4 3 3
-7 -4 -8 -2 -2 -2 -1 -2 -0 2 1 1 -0 -2 0 1 1 0 3 2 3 4 3 2 4 3 3 3 3 2 2 4 6 7 6 6 6 5 4 3 2 2 3 3 3
-7 -4 -7 -1 -1 0 -1 -2 -1 2 -3 -1 1 -1 0 1 0 0 2 3 0 4 3 3 3 3 4 4 2 4 2 2 6 7 8 6 7 2 2 2 1 1 2 3 2
-7 -5 -5 -0 2 1 1 -4 -2 0 -5 -4 2 -0 1 1 0 2 -0 3 2 3 1 2 4 5 4 3 2 3 2 4 5 4 3 4 5 3 0 1 0 -1 0 0 1
-5 -6 -3 0 1 2 1 -3 -3 -1 -8 2 3 3 3 0 0 1 2 2 2 1 2 3 2 3 3 3 2 1 3 3 6 6 7 4 5 4 2 -1 -2 -2 -2 -1 -0
-4 -6 -1 0 2 1 -1 -2 -0 -5 -2 0 3 2 1 1 1 2 3 2 2 1 0 1 2 3 3 3 2 3 7 7 7 7 7 2 5 3 -0 -2 -4 -4 -3 -2 -2
-4 -4 0 1 3 -0 -0 -1 -9 -1 1 -1 1 1 2 1 1 2 1 3 2 2 3 1 -1 4 3 3 3 4 6 6 5 6 4 2 5 1 -2 -3 -3 -4 -2 -3 -2
-4 1 1 2 1 0 3 -0 -6 0 1 3 2 3 2 2 0 1 2 1 0 1 5 4 3 2 3 3 2 4 5 2 4 3 3 1 -0 -3 -4 -5 -4 -3 -3 -2 -2
-2 2 1 2 0 2 3 1 1 1 1 1 2 2 2 2 2 2 2 -0 -0 -1 -1 2 6 3 3 3 4 3 2 6 5 7 6 1 1 -0 -4 -4 -3 -3 -2 -2 -3
2 2 3 2 1 3 2 -1 1 -0 -0 1 2 2 0 0 2 2 1 -1 -1 1 -0 1 4 4 5 5 5 5 5 4 3 3 4 1 -1 -6 -5 -5 -2 -2 -2 -3 -3
3 5 4 2 3 3 3 2 -1 0 0 1 1 1 2 0 0 1 2 1 1 1 1 2 5 6 4 5 4 4 4 4 5 4 2 1 0 -4 -3 -2 -1 0 -1 -2 -2
4 3 3 2 3 4 2 -3 -1 1 1 1 2 1 0 -0 0 -1 -3 -2 -2 1 3 3 5 5 5 5 5 6 5 4 4 3 2 2 0 -5 -5 -1 -0 -1 -2 -2 -2
2 3 3 3 3 2 0 -2 -1 -1 0 1 -0 -1 -1 -0 -2 -1 -5 -4 -2 1 2 2 3 4 4 5 5 6 6 5 5 5 3 2 -1 -3 -4 -3 -1 -1 -1 -1 -2
2 0 1 3 2 0 -3 -3 -1 0 -1 -1 -1 -2 -3 -2 -3 -2 -5 -5 -1 0 1 2 2 3 3 3 5 5 6 6 6 5 4 2 2 -0 -3 -3 -4 -3 -2 -2 -2
1 -1 -2 -2 -2 -0 -5 -5 -5 -3 -1 -2 -2 -6 -7 -4 -5 -5 -4 -4 -3 -2 -0 0 2 -1 0 2 3 4 5 6 6 5 4 4 4 -1 -2 -2 -1 -1 -2 -2 -2
-2 -4 -7 -4 -4 -5 -4 -7 -4 -5 -6 -7 -6 -7 -7 -6 -5 -5 -5 -5 -5 -3 -2 -1 -1 -3 -1 1 4 3 3 4 4 4 5 6 3 0 2 0 -0 -1 -1 -2 -3

GFSSW_850_dewp_099.txt.gz
Dewpoint
-6 -5 -3 4 4 2 3 4 3 1 -6 -7 -7 -7 1 0 -0 -2 0 3 5 3 3 6 5 6 6 6 5 8 10 7 6 4 3 2 4 6 7 9 11 11 13 13 12
-6 -6 -7 -4 3 4 -2 2 1 1 -1 -9 -9 -2 0 -1 -1 -0 2 4 4 3 3 6 2 6 6 5 5 9 9 7 9 8 4 3 5 7 9 12 13 14 13 13 13
-7 -7 -6 -15 0 4 -5 -5 -1 -3 -6 -11 -8 -1 -1 -3 -1 1 2 4 4 3 4 6 6 6 6 5 5 9 9 9 9 9 8 3 5 6 9 9 12 14 15 15 12
-7 -7 -7 -14 -5 -2 -6 -6 -4 -6 -10 -9 -2 -4 -3 -1 1 1 3 3 3 5 3 4 6 6 6 5 5 7 9 9 9 9 8 8 4 5 5 6 10 13 11 13 11
-7 -6 -8 -12 -4 -5 -7 -5 -5 -8 -8 -7 -2 -2 -2 -1 -0 0 2 3 4 5 3 3 6 6 6 5 5 5 7 8 9 8 8 6 7 5 8 9 10 12 13 13 13
-8 -6 -8 -12 -4 -6 -6 -4 -7 -8 -6 -3 -2 -3 -1 -0 0 2 2 3 4 4 2 3 4 5 6 6 4 5 8 7 8 8 8 8 7 5 6 12 12 12 13 13 11
-9 -6 -6 -11 -4 -6 -5 -3 -7 -8 -3 -1 -1 -2 -1 -0 1 4 3 5 5 4 3 1 4 5 6 5 5 7 6 6 7 8 8 8 7 7 6 12 12 10 12 12 12
-7 -7 -6 -10 -4 -5 -4 -4 -6 -5 -1 -1 -1 -1 -3 -1 2 4 3 4 6 6 5 4 3 4 5 6 6 7 6 7 7 7 7 8 9 7 6 7 9 12 11 11 11
-3 -8 -5 -9 -3 -5 -5 -4 -3 -3 -1 -1 -1 -1 -1 0 2 3 3 3 3 5 3 2 4 4 4 6 7 6 8 7 6 7 7 8 9 6 6 6 5 5 10 10 10
3 -8 -5 -9 -2 -4 -5 -4 -2 -2 -2 -1 -2 -3 -0 1 2 2 2 2 1 1 1 2 1 3 3 4 6 7 7 7 7 7 7 7 8 7 6 5 5 4 4 8 9
6 -8 -4 -8 -2 -4 -5 -5 -2 -2 -1 -1 -0 -1 0 1 2 2 2 2 2 -0 2 2 3 5 4 3 3 4 6 6 6 6 7 7 7 7 7 6 5 4 3 4 6
7 -6 -4 -7 -2 -4 -4 -2 0 -1 -1 -1 -1 0 1 1 1 1 2 2 2 2 2 0 2 4 4 3 3 3 5 4 5 6 6 8 7 6 6 6 5 4 4 2 4
8 -8 -4 -6 -1 -3 -3 -2 -0 1 1 1 -0 -2 0 0 0 1 2 2 3 3 2 0 3 3 3 3 3 2 3 3 5 6 6 6 7 6 5 5 5 5 4 3 2
7 -5 -4 -2 -2 -1 -2 -1 -0 2 -3 -2 2 -1 -0 1 -1 0 1 2 -0 3 3 3 2 3 3 4 2 4 2 2 7 7 8 5 6 3 5 5 5 4 3 2 2
7 -2 -4 -0 1 0 0 -1 -1 -1 -4 -5 2 -0 1 1 0 1 0 3 2 3 0 0 4 4 4 3 2 3 2 3 7 5 4 7 5 4 1 4 3 3 2 2 1
7 -0 -3 0 2 1 1 -3 -3 -1 -7 2 2 3 2 1 0 2 2 2 2 1 2 2 2 3 3 2 2 1 3 5 6 5 8 4 5 4 3 1 -0 -0 0 1 0
6 -0 -2 1 1 1 0 -4 1 -1 -2 1 3 3 2 1 1 1 2 2 1 0 -1 0 2 2 3 3 2 4 4 8 7 8 6 2 6 4 1 -1 -2 -2 -2 -3 -2
4 -1 1 2 3 0 -3 1 2 -4 1 -2 1 1 2 1 1 2 1 3 1 1 1 2 -0 3 2 2 3 4 6 5 6 6 6 3 6 3 -2 -3 -2 -3 -4 -4 -3
2 -2 3 3 3 -1 1 2 0 -2 0 2 2 3 2 2 1 2 2 1 0 1 2 3 2 0 2 3 2 4 4 4 6 3 2 4 -0 -3 -4 -4 -4 -3 -3 -2 -2
1 2 3 3 1 2 2 4 -1 0 1 1 1 1 2 2 2 2 1 -0 -0 0 -1 1 3 2 2 3 4 3 3 5 5 7 6 2 1 -1 -4 -4 -3 -2 -2 -3 -2
2 3 3 2 1 2 3 2 0 0 0 1 1 2 1 1 1 2 1 -1 -0 0 -1 1 4 3 5 5 4 5 4 4 4 5 4 2 -1 -4 -3 -6 -3 -3 -3 -3 -3
2 4 3 2 3 3 3 2 -0 0 0 1 0 1 1 -0 0 2 2 1 0 1 1 1 3 4 3 4 4 5 4 4 5 5 1 -0 1 -4 -3 -3 -4 -2 -1 -2 -3
3 3 3 3 3 4 3 1 -0 1 0 1 1 0 -0 -0 -0 -1 -1 -2 -3 0 2 2 4 4 2 5 4 6 5 4 3 3 2 3 1 -5 -4 -0 -0 -1 -1 -2 -2
3 3 3 3 3 3 2 -2 -2 -0 1 1 0 -0 -1 -0 -1 -1 -3 -3 -1 1 2 1 2 2 2 4 4 5 6 4 4 5 3 2 -1 -3 -4 -2 -0 -0 -1 -1 -2
3 2 3 3 3 3 -1 -2 -0 0 -1 -0 -1 -2 -1 -1 -2 -1 -5 -6 -3 -0 0 1 0 1 2 3 3 4 5 6 5 4 3 1 1 -1 -4 -4 -4 -2 -2 -2 -2
2 -1 2 1 1 2 -1 -4 -1 -1 -1 -1 -3 -5 -5 -3 -4 -5 -5 -5 -5 -3 -1 -1 -2 1 -2 -1 2 4 3 4 5 5 5 4 4 -0 -2 -4 -3 -2 -1 -1 -2
2 -2 -4 -2 0 0 -2 -7 -4 -4 -6 -5 -4 -6 -7 -8 -5 -5 -5 -5 -5 -4 -2 -2 -1 -1 -3 -2 1 1 2 2 3 4 5 6 3 1 2 2 1 -1 -1 -1 -1

GFSSW_850_dewp_102.txt.gz
Dewpoint
-8 -7 0 3 3 4 2 -3 2 3 4 3 -9 -8 -1 -0 -2 0 1 3 5 3 3 5 4 4 6 6 6 5 7 9 8 6 2 2 5 7 6 8 10 8 7 12 15
-7 -8 -6 2 1 4 2 -6 -5 3 4 -5 -11 -2 -1 -1 -2 0 1 4 3 3 4 6 4 4 6 6 6 5 8 8 5 7 4 3 5 8 10 12 12 13 11 12 14
-1 -8 -6 -0 -4 -2 0 -6 -6 -5 4 -11 -6 -4 -3 -1 -1 0 2 4 4 2 5 5 4 5 5 6 5 5 8 7 6 9 8 4 6 6 11 11 11 11 14 12 11
5 -6 -7 -7 -6 -3 -1 -6 -6 -7 -7 -9 -3 -1 -2 -0 -0 0 2 3 3 4 4 4 4 6 5 5 6 5 4 5 9 9 8 5 5 6 6 8 10 9 12 14 14
8 1 -8 -7 -10 -3 -6 -6 -8 -8 -9 -7 -2 -1 -1 -1 -0 2 1 2 3 3 3 6 5 6 6 5 5 4 4 6 9 9 8 7 6 7 8 12 12 11 12 12 13
9 6 -7 -6 -10 -3 -6 -5 -9 -8 -5 -2 -1 -2 -1 -1 1 3 2 3 4 4 4 4 5 6 5 4 3 4 5 5 7 8 8 7 6 6 9 13 11 11 10 9 10
9 7 -6 -6 -9 -3 -6 -5 -7 -8 -5 -2 -1 -1 -1 -0 2 3 4 5 5 4 5 4 5 6 5 4 4 5 5 4 7 7 7 7 8 8 6 11 12 10 12 13 11
8 8 -0 -6 -8 -3 -5 -5 -5 -6 -2 -1 -1 -1 -2 0 2 3 2 4 5 4 4 4 4 5 6 5 6 5 4 5 5 7 7 7 10 6 6 9 9 11 10 11 11
8 8 6 -6 -7 -3 -5 -4 -3 -4 -3 -1 -1 -1 -2 0 2 2 2 2 4 4 2 2 4 4 5 6 7 6 7 6 6 6 7 7 9 6 6 6 5 6 10 9 11
8 8 6 -2 -6 -3 -5 -5 -2 -2 -3 -2 -1 -2 -1 0 2 2 2 2 1 1 0 2 1 4 3 4 7 8 7 7 6 6 6 6 6 5 5 6 6 5 4 9 10
6 7 7 1 -5 -2 -4 -5 -5 -3 -3 -1 -0 -1 -0 1 1 1 2 1 0 -0 3 1 5 6 5 4 3 5 6 6 6 6 6 6 5 5 5 5 5 5 4 3 8
6 6 6 -2 -5 -2 -4 -3 -1 -3 -1 -2 -2 -0 1 1 1 1 1 1 1 2 0 0 4 4 4 4 2 4 6 6 6 7 6 6 5 5 5 5 5 5 4 3 3
6 6 6 2 -4 -2 -2 -1 -1 -1 1 -0 -0 -1 -0 0 0 0 1 1 2 3 2 0 2 3 3 2 3 2 4 4 6 7 6 7 7 7 5 5 4 4 4 4 3
5 6 5 3 -2 -1 -0 -1 0 1 -2 -3 2 -0 -0 1 -1 0 1 2 1 3 3 3 2 3 3 3 2 4 2 2 7 7 7 5 5 6 5 6 5 4 3 3 2
4 5 6 2 1 1 0 -1 -0 -1 0 -5 2 -0 1 1 0 1 1 2 2 3 1 1 4 4 4 3 2 3 3 3 6 5 6 7 6 3 4 6 5 3 3 2 2
-0 4 5 2 -1 1 1 -2 -1 1 0 1 2 3 2 1 0 1 2 1 2 1 0 1 1 3 3 2 2 2 4 5 5 5 7 5 6 5 3 3 2 2 2 1 2
0 4 5 1 0 2 1 -2 2 3 -1 2 3 3 2 1 1 1 1 2 0 -0 -1 -0 0 1 3 4 2 3 4 7 8 8 6 2 6 5 1 -0 -2 -1 -1 -0 1
3 4 4 1 3 2 -2 1 3 -2 -0 -2 2 2 2 1 1 2 1 2 1 -0 1 1 -1 1 2 3 3 4 3 4 6 6 5 4 7 4 -1 -2 -3 -2 -3 -3 -2
4 3 2 1 3 2 1 3 2 -1 -1 2 2 2 3 2 0 2 2 0 -0 1 1 3 2 -0 1 3 2 4 5 3 3 2 1 4 2 -3 -4 -4 -5 -4 -3 -3 -3
2 2 2 1 3 1 2 3 0 -2 1 1 -1 0 1 2 2 2 1 -0 0 0 -1 1 2 1 3 3 4 4 2 6 6 7 6 2 1 -0 -4 -4 -4 -3 -3 -3 -2
2 2 2 3 2 3 3 2 -0 -0 0 1 -0 2 0 2 1 1 1 -0 1 0 -0 1 3 1 3 4 4 6 7 5 4 4 4 3 -0 -4 -3 -4 -5 -4 -3 -3 -2
2 3 2 3 3 3 3 2 0 0 0 0 -0 -0 0 -0 1 1 2 0 -2 1 1 1 3 2 1 2 4 4 6 5 5 5 1 -0 1 -5 -4 -2 -3 -4 -2 -2 -3
2 3 3 2 3 3 3 3 1 1 0 0 1 -0 -1 -0 -1 0 -0 -2 -2 -1 2 2 2 2 -2 3 4 6 5 5 5 3 1 2 1 -5 -3 -0 -1 -1 -1 -1 -2
2 3 3 3 3 2 3 1 0 -0 0 -0 -0 -0 -0 -0 -1 -1 -2 -2 -2 1 1 1 0 -2 -0 -1 2 3 3 3 6 6 3 2 0 -3 -4 -1 -0 -1 -1 -1 -2
2 2 2 3 3 3 1 -1 -0 1 -1 -0 -0 -0 -0 0 -2 -1 -6 -6 -3 -1 -1 -0 -3 -0 -0 0 2 3 3 3 5 5 4 1 1 -2 -4 -4 -3 -1 -2 -2 -2
3 1 3 2 2 2 2 -1 -0 0 -1 -0 -2 -3 -3 -2 -4 -4 -5 -6 -5 -4 -2 -2 -4 -1 -3 -1 -0 1 2 2 3 4 5 5 4 -0 -2 -4 -3 -2 -1 -1 -1
3 -0 1 1 1 2 2 -2 -2 -3 -6 -5 -3 -6 -6 -7 -6 -6 -6 -5 -5 -5 -3 -2 -1 -3 -1 -3 1 0 1 2 2 4 4 5 3 2 3 2 1 -1 -1 -0 -0

GFSSW_850_dewp_105.txt.gz
Dewpoint
9 5 -6 -7 -8 -9 3 4 -3 2 3 3 -10 -10 -2 -1 -3 -1 1 3 6 4 3 4 4 2 4 4 5 6 7 7 6 7 6 0 1 3 7 8 9 7 8 7 14
9 8 2 -7 -7 -10 -4 3 3 -3 1 2 -12 -4 -1 -1 -1 -1 0 4 5 4 3 5 4 4 5 6 5 5 7 6 6 5 7 7 3 8 9 12 10 8 9 7 11
9 9 6 -7 -7 -10 -4 3 0 -6 -7 -4 -9 -3 0 -1 -1 0 2 4 4 3 5 5 4 3 5 5 5 5 6 6 5 6 5 7 6 7 10 11 10 9 8 9 9
9 9 8 -1 -7 -9 -4 -5 -4 -7 -8 -10 -5 -3 -1 -1 0 2 2 1 2 4 4 4 4 4 4 6 5 5 4 5 5 6 8 7 6 7 9 9 8 6 4 8 10
8 8 8 3 -6 -7 -5 -6 -5 -7 -9 -7 -3 -2 -1 -1 -0 1 2 3 2 3 5 5 4 5 5 4 5 5 4 4 4 6 9 7 6 7 9 11 11 8 7 12 11
8 8 8 6 -2 -6 -5 -5 -5 -6 -8 -4 -3 -1 -1 -1 1 2 3 4 5 4 4 4 5 6 4 4 4 3 4 4 4 5 6 8 7 7 8 10 12 10 9 10 10
7 8 8 8 -1 -5 -7 -5 -5 -5 -6 -3 -2 -1 -1 -1 2 3 3 4 5 2 4 3 5 6 3 4 4 4 4 4 5 5 6 7 8 7 6 11 11 9 9 9 10
7 8 8 7 2 -2 -7 -4 -4 -3 -4 -3 -2 -1 -2 0 2 2 2 3 4 4 4 3 4 6 5 4 5 5 4 6 4 4 4 7 9 6 6 8 9 10 9 9 9
6 7 7 7 5 1 -5 -4 -3 -2 -2 -2 -2 -2 -2 -1 1 1 1 2 3 2 1 2 4 5 6 7 7 5 6 6 5 4 5 7 8 5 5 6 6 8 10 9 9
5 6 7 7 6 2 -4 -3 -4 -2 -1 -1 -2 -1 -3 0 2 1 1 1 1 0 -0 1 2 5 3 4 6 7 7 6 6 4 5 6 6 4 4 5 6 5 6 10 10
3 4 5 6 6 1 -3 -3 -4 -3 -1 -3 -3 -1 -1 0 1 1 1 1 1 0 2 0 5 6 5 4 3 5 6 6 5 4 6 6 5 4 4 4 4 4 4 5 11
-2 2 4 5 5 2 -2 -3 -1 0 -0 -2 -3 -2 -0 1 1 1 1 2 1 1 -0 1 5 4 4 4 3 5 6 7 6 6 5 6 5 3 4 4 4 3 4 4 5
-6 3 4 5 5 2 0 -3 -1 1 1 -1 -1 -2 -1 0 0 -0 1 1 1 2 2 1 2 3 3 2 3 3 5 6 6 6 6 6 6 5 4 4 3 3 4 4 4
-11 3 5 5 3 1 -1 -1 -0 2 -1 -2 1 -0 -1 0 -1 0 1 2 1 3 2 2 2 3 3 3 2 4 2 3 7 7 8 6 6 4 4 4 3 1 3 4 3
-12 -4 3 4 3 2 0 -0 0 0 0 -2 1 -0 1 0 -0 1 1 1 2 3 -0 1 3 3 4 3 2 3 3 5 6 5 6 7 7 5 3 5 3 2 3 4 3
-15 -6 3 3 3 2 1 -0 -1 1 1 1 2 2 2 1 -0 1 1 1 2 1 -0 1 1 3 2 2 2 3 4 5 5 5 7 5 6 4 5 4 3 2 2 3 3
-15 -2 3 3 2 0 1 -2 2 3 -2 1 3 3 2 1 1 1 1 1 0 -2 -2 -1 -0 0 3 4 2 3 4 6 8 8 6 2 6 4 1 0 -1 -0 0 1 1
-3 -1 3 3 1 2 -1 1 3 2 -1 -2 2 2 2 1 1 1 1 1 1 -0 0 2 -2 -0 2 3 3 4 4 4 6 6 5 4 7 4 1 -0 -1 -1 -2 -2 -2
3 4 3 2 3 2 -1 3 3 2 -2 2 1 2 2 1 0 1 1 0 -1 0 0 3 1 -1 1 3 3 4 6 3 3 1 3 3 2 -2 -4 -3 -3 -4 -4 -3 -3
2 2 2 3 3 2 2 3 2 -2 0 1 -0 0 2 2 1 2 1 -1 0 -0 -1 0 3 1 3 3 4 4 4 7 7 6 6 2 1 0 -3 -4 -5 -4 -3 -3 -2
2 2 2 3 3 0 4 2 1 -1 0 1 -1 2 -1 2 0 1 0 0 -0 0 -0 1 3 0 0 3 4 6 6 5 5 4 5 3 -0 -4 -3 -4 -3 -5 -3 -3 -2
2 2 2 3 2 2 3 2 0 1 0 0 -1 -0 -0 0 1 1 1 -0 -2 1 1 1 2 2 1 3 4 3 5 5 6 6 1 1 1 -5 -4 -2 -1 -3 -2 -2 -2
1 2 2 2 3 3 2 3 2 1 0 0 0 -0 -1 -1 -1 0 -1 -2 -2 1 2 1 1 -2 -3 -0 1 3 2 3 4 4 2 4 2 -5 -2 -0 -1 -1 -1 -1 -2
2 2 2 2 3 2 3 2 2 -0 -0 -1 -0 -1 -1 -1 -2 -1 -1 -2 -2 1 1 -0 -1 -2 -1 -4 2 2 2 2 3 6 4 2 0 -3 -4 -1 -0 -1 -1 -1 -2
0 2 2 2 3 2 1 1 -0 1 -0 -0 -0 -0 -1 0 -2 -1 -5 -6 -3 -3 -2 -2 -3 -1 -1 -1 -0 -0 1 2 2 3 6 3 1 -1 -2 -4 -3 -2 -1 -2 -2
1 2 2 2 2 2 2 2 -0 -1 0 1 -1 -1 -3 -3 -6 -3 -5 -6 -7 -5 -2 -3 -5 -4 -5 -3 -1 0 -0 0 2 1 2 3 3 1 1 0 -3 -2 -2 -1 -1
-3 2 2 2 2 2 1 1 -2 -2 -6 -5 -3 -5 -4 -6 -7 -6 -7 -5 -5 -6 -3 -3 -3 -4 -2 -3 -0 -1 0 1 2 2 3 4 3 2 2 2 2 2 -0 -1 -0

GFSSW_850_dewp_108.txt.gz
Dewpoint
9 9 9 8 -3 -6 -9 -4 4 -0 -3 2 2 -11 -4 -3 -1 1 0 0 4 5 3 3 4 4 5 4 2 4 4 5 7 7 5 3 5 5 2 6 7 8 7 9 8
9 9 9 9 3 -6 -7 -7 2 -1 -6 2 -2 -6 -4 0 -0 -2 0 1 6 4 4 4 5 5 4 1 2 4 4 5 6 6 6 6 6 5 2 5 8 8 11 10 8
8 9 8 8 7 -6 -7 -7 -5 -6 -8 -3 -7 -5 -3 -1 0 -0 2 4 5 2 3 4 4 4 3 4 3 2 4 4 6 6 7 6 5 6 4 4 6 8 10 11 11
7 8 8 8 8 -0 -4 -7 -5 -6 -8 -8 -6 -3 -3 -2 3 1 3 4 2 2 3 3 4 4 3 4 5 3 4 5 5 7 5 7 4 6 6 5 6 7 9 11 9
6 8 8 8 8 7 -1 -7 -4 -5 -8 -7 -2 -3 -2 -0 -1 2 3 4 4 4 4 4 5 4 3 3 5 4 4 5 5 6 5 5 6 7 5 7 9 8 10 11 9
4 7 8 8 8 7 -2 -6 -4 -4 -7 -7 -2 -2 -1 -0 0 2 3 4 4 3 4 5 5 6 4 4 4 4 4 4 4 4 5 6 7 7 5 7 8 10 10 11 10
0 6 7 8 7 7 4 -6 -4 -4 -5 -6 -2 -1 -1 -2 1 2 2 3 3 3 4 4 5 6 4 3 4 4 5 4 4 4 4 5 7 8 5 6 7 10 10 11 8
-14 4 6 7 7 7 5 -3 -4 -3 -2 -4 -2 -0 -1 -2 0 1 1 2 4 5 3 4 5 6 5 3 4 3 4 7 4 4 4 5 8 6 6 6 8 8 10 12 12
-13 -2 4 6 6 6 6 -2 -3 -3 -1 -2 -2 -1 -3 -2 -0 1 1 2 2 3 4 3 5 5 4 5 4 4 5 7 2 5 5 5 8 5 5 7 9 9 10 10 12
-8 -3 3 4 5 6 6 -0 -4 -4 -2 -2 -1 -0 -3 -1 0 0 1 1 1 1 2 4 3 6 4 5 5 4 4 2 3 4 5 6 6 5 4 6 7 8 10 10 11
-10 -12 -0 1 3 6 4 -2 -3 -2 -3 -2 -3 -2 -3 -1 0 1 1 1 1 0 3 1 6 5 4 3 3 3 3 -1 4 3 5 6 6 5 3 6 6 7 9 9 10
-6 -11 2 3 4 5 5 -2 -2 -0 1 -2 -2 -2 -1 -0 1 1 1 2 1 1 0 3 4 3 3 3 3 4 4 5 5 4 6 5 5 4 2 4 5 5 6 9 10
-2 -9 3 4 4 5 1 -1 -2 -1 2 0 -1 -1 -1 -0 0 1 1 2 1 1 2 3 2 2 3 2 3 5 4 5 4 5 5 6 5 4 3 3 4 4 5 5 9
-1 -6 1 3 4 2 -1 -1 -1 1 4 0 1 1 0 1 -1 -0 1 3 1 2 2 1 1 2 2 3 2 3 2 3 5 6 8 4 5 6 3 4 4 4 4 5 5
0 -2 -11 3 3 2 1 -0 0 0 3 -0 1 -1 1 1 0 1 1 2 1 2 2 2 3 2 3 2 2 3 3 3 5 5 5 6 5 4 2 3 3 4 3 4 5
0 -1 -6 1 3 3 1 -0 -0 4 4 2 2 1 1 1 -0 1 1 1 2 1 1 1 0 3 2 2 2 3 4 5 5 5 6 2 5 -2 3 3 2 2 3 4 4
0 -2 -1 2 3 2 0 -1 5 5 -1 2 3 2 1 1 0 0 0 -1 -1 1 3 -0 -1 0 2 3 2 4 4 6 6 8 4 3 6 -0 -1 0 -0 -0 1 1 3
-1 1 -2 -0 3 2 -1 1 4 4 2 -1 2 2 1 0 1 1 1 -0 0 -0 2 2 1 0 1 3 4 3 4 4 3 4 3 4 6 -0 0 -1 -1 -1 -1 -1 -1
-4 3 2 3 3 3 1 5 3 3 -1 2 2 1 2 1 1 1 1 -0 -1 -0 0 1 0 -1 -0 2 3 6 7 3 4 1 4 2 1 -2 -5 -3 -3 -3 -4 -2 -2
-2 2 2 3 3 2 1 3 2 -1 -0 1 0 -0 -1 1 1 1 -1 -0 0 -1 -1 0 3 1 2 2 2 3 4 7 7 7 4 1 1 -1 -3 -3 -5 -4 -3 -2 -2
-0 2 2 1 3 2 3 3 1 -0 -0 1 -0 0 -2 1 0 0 -0 1 -1 0 -1 0 2 0 0 1 0 2 4 5 6 6 3 1 -1 -5 -3 -2 -1 -4 -2 -2 1
1 2 2 2 2 2 3 1 1 1 1 0 -1 -0 -1 1 1 1 1 -0 -2 1 1 1 2 2 -1 -1 1 1 4 5 6 6 5 2 -1 -4 -2 -1 -2 -3 -1 -1 0
1 2 2 2 4 3 2 1 1 0 1 0 0 -0 -1 -0 -2 0 0 -2 -1 1 1 -0 2 0 -3 1 -1 1 0 2 3 5 5 3 1 -4 -2 -1 -1 -1 -0 -0 -1
1 2 2 2 2 2 1 1 1 1 0 -1 -1 -1 -1 -1 -2 -1 -1 -3 -2 0 -0 -1 2 1 -1 -0 0 0 -1 -0 2 4 5 3 0 -3 -1 -2 -1 -1 -1 -1 -1
-0 2 2 3 3 1 0 1 0 0 0 -0 -0 -1 -2 -1 -1 -1 -4 -5 -4 -3 -2 -2 -1 -1 -3 -4 -3 -2 -2 -2 2 1 4 4 5 1 0 -0 -3 -2 -1 -1 -0
1 1 2 2 3 1 1 2 0 -1 0 1 0 -0 -2 -5 -7 -4 -4 -5 -7 -5 -3 -3 0 -1 -1 -3 -1 -2 -3 -2 -1 -1 1 0 2 -1 -1 0 0 -1 -1 -1 -0
-1 -2 -0 2 3 2 1 1 -2 -2 -5 -5 -2 -2 -2 -5 -6 -6 -6 -5 -4 -3 -3 -2 -1 -0 0 -2 1 2 1 1 1 1 2 3 1 1 1 1 1 1 1 1 1

GFSSW_850_dewp_111.txt.gz
Dewpoint
8 8 9 8 8 8 -1 -6 -8 4 -1 -9 -9 1 -6 -3 -1 3 1 -1 -0 6 4 5 5 5 5 4 2 2 4 4 0 1 2 3 7 5 6 7 4 2 7 8 14
6 8 8 8 8 8 5 -5 -8 -3 -4 -8 -9 -7 -5 -3 0 1 -0 1 3 6 5 5 4 4 3 2 2 3 4 2 -2 3 6 4 6 6 6 6 3 6 6 9 14
5 7 8 8 8 8 7 4 -8 -5 -6 -5 -9 -7 -4 -3 1 -2 1 2 5 3 2 4 5 3 1 -0 -0 1 5 -1 3 5 6 5 5 6 8 8 4 6 11 12 15
4 5 7 6 7 8 8 5 -7 -5 -6 -7 -7 -5 -4 1 3 -0 2 3 4 3 5 4 4 3 2 3 1 3 0 2 4 5 5 6 6 7 7 6 5 5 8 12 15
3 2 6 7 8 8 8 5 -6 -5 -5 -7 -5 -3 -3 -0 -1 0 2 2 5 5 5 5 4 3 4 2 2 3 2 4 5 6 6 5 5 5 6 5 5 8 10 12 14
2 -1 5 6 7 8 8 7 -0 -4 -5 -6 -6 -2 4 -0 -1 1 2 3 5 4 4 5 5 5 5 3 3 2 3 4 4 4 5 5 4 5 7 6 6 8 9 11 11
2 -1 2 4 7 7 7 6 2 -4 -4 -5 -4 -1 3 -0 -1 0 2 3 4 3 4 5 5 6 4 4 3 3 4 5 4 3 4 4 4 6 6 6 6 6 9 11 11
1 0 -12 3 6 6 7 6 -1 -4 -3 -3 -3 3 1 -2 -1 0 2 2 4 5 4 3 6 6 5 3 3 3 5 7 3 3 4 4 7 5 5 6 5 5 9 10 11
-1 -2 -13 -2 3 5 6 6 3 -3 -2 -1 1 2 -2 -2 -1 1 2 2 3 3 4 3 5 5 4 4 5 2 4 7 3 4 4 4 4 4 6 6 5 6 7 10 11
0 -2 -11 -8 -0 3 5 5 -1 -3 -2 -1 2 1 -1 -3 0 1 1 1 3 3 2 4 4 5 5 6 9 5 3 1 3 4 3 4 5 5 5 5 5 7 5 9 11
2 1 -9 3 3 2 4 -1 1 2 0 -1 -2 -3 -2 -1 -0 1 2 2 2 2 3 3 6 6 3 2 3 3 2 1 -2 3 4 4 5 5 4 5 5 7 10 10 10
1 1 -7 3 4 4 5 1 -0 1 -0 -1 -1 -2 -1 -1 0 1 1 1 1 2 1 2 5 2 2 2 3 3 2 1 3 3 4 4 5 5 3 4 5 7 10 10 11
0 1 -1 -4 3 4 4 2 -1 -1 1 1 -0 -1 -1 0 -1 0 2 1 0 1 1 3 3 1 2 2 2 2 3 2 3 4 3 5 6 6 4 4 5 6 8 10 11
-2 1 0 -10 0 3 1 -1 -1 1 5 2 0 0 1 1 -0 0 2 3 0 2 0 0 -1 1 2 2 1 3 1 2 3 4 4 2 9 7 5 5 5 5 7 8 10
-1 1 1 -7 -1 3 1 0 1 1 7 0 1 -0 1 0 -1 0 2 2 1 -0 1 2 2 2 1 0 2 3 2 2 2 3 3 2 4 6 5 6 5 5 5 6 9
0 1 1 -4 -5 2 2 1 1 5 6 2 1 -0 0 -0 -1 -0 0 1 1 -0 -1 -1 -1 1 2 2 1 2 3 2 2 4 6 1 2 4 5 5 4 4 4 5 6
1 1 -2 -0 2 3 2 2 5 7 -1 3 2 0 -1 -1 -1 -1 -1 -1 -0 2 3 -0 -2 -2 1 2 0 2 3 6 6 7 4 2 3 0 -1 -0 3 3 3 4 5
1 -2 -4 3 2 3 1 2 6 3 2 -0 1 1 -1 -2 -1 -0 -1 -2 -1 -2 1 1 2 -1 -2 1 3 3 3 6 7 4 1 2 3 2 -2 -2 -1 -1 0 1 3
-4 -3 2 1 -0 3 1 6 4 3 -1 1 1 -0 0 -1 -0 -0 -2 -3 -2 -2 -0 -1 -1 -3 -1 0 1 4 5 3 5 1 1 -0 -0 -4 -4 -3 -2 -2 -2 -2 -2
0 -1 2 3 3 2 2 3 2 -1 -1 0 -2 -1 -3 -0 -1 -2 -4 -1 -0 -1 -2 -1 1 -1 -2 -1 1 2 3 6 5 6 2 -1 -1 -0 -2 -2 -4 -3 -3 -2 -1
2 1 2 3 3 2 4 3 1 -0 -0 -0 -2 -3 -4 -2 -2 -3 -3 -0 -1 -0 -1 -2 -0 -0 -3 -0 0 1 3 3 5 6 7 4 1 -2 -0 -1 -1 -4 -2 -1 2
1 3 1 1 2 2 2 1 0 0 0 -0 -2 -2 -3 -2 -1 -2 -2 -1 -1 0 -1 -1 -1 1 -4 -3 -1 -1 1 3 4 7 4 4 4 -2 -2 -3 -3 -2 -1 -0 1
2 1 2 2 4 3 1 0 1 -0 0 -1 -2 -1 -2 -2 -2 -2 -1 -3 -1 -0 0 -2 1 1 -2 1 -1 -1 -1 -1 3 5 6 5 5 -2 -3 -2 -1 -1 -1 -1 -1
1 3 2 2 2 3 0 -0 1 0 -0 -1 -2 -3 -3 -3 -3 -3 -2 -3 -2 -1 -2 -2 3 1 -1 -1 -1 -0 -2 -4 1 4 2 3 4 0 0 -1 -2 -1 -1 -1 -1
1 2 2 3 3 2 -0 0 0 -1 -0 -1 -1 -3 -4 -4 -3 -4 -3 -3 -5 -4 -4 -4 -0 -2 -4 -4 -4 -3 -2 -4 1 1 3 1 1 1 -0 -1 -1 -2 -1 -1 -0
1 1 -2 3 2 1 1 1 0 -2 -1 -0 -1 -1 -3 -5 -7 -7 -6 -5 -7 -6 -4 -3 1 -0 -0 -3 -2 -3 -5 -5 -3 -1 -1 0 1 -2 -0 0 1 -0 -1 0 0
-1 -1 1 2 2 1 0 -0 -2 -2 -4 -5 -2 -3 -3 -5 -6 -6 -7 -6 -4 -3 -3 -3 -0 1 0 -2 1 3 -0 0 1 0 2 2 1 1 1 0 1 1 1 1 1

GFSSW_850_dewp_114.txt.gz
Dewpoint
2 6 7 7 8 7 8 8 1 -6 -4 -4 -9 -7 -8 -5 -4 3 2 1 -0 -1 5 4 5 5 5 5 4 3 5 5 3 2 -0 -5 3 1 1 4 6 7 8 8 11
4 4 6 7 8 8 8 8 6 -3 -5 -6 -7 -9 -7 -3 -3 4 0 -1 0 6 5 4 4 5 5 5 4 4 5 3 0 -1 -1 1 4 5 4 4 5 7 7 7 8
3 4 3 6 7 7 8 8 7 -0 -5 -6 -7 -8 -5 -2 3 0 -0 1 3 5 5 5 5 4 3 2 2 2 4 1 1 0 2 5 5 5 6 5 5 7 7 8 10
4 4 3 4 6 7 8 8 7 -1 -5 -5 -7 -6 -5 -1 3 -0 -0 3 4 3 5 4 5 3 2 3 0 2 1 1 1 4 5 4 5 4 4 4 4 5 7 7 10
2 4 2 3 5 7 8 8 6 4 -4 -4 -6 -6 -3 2 -0 -0 1 2 4 4 5 5 4 3 4 3 4 4 2 2 2 4 5 5 4 4 3 2 4 5 6 7 8
2 2 2 -7 4 6 7 7 6 5 -3 -3 -4 -6 4 3 -0 0 1 3 4 5 4 4 5 5 5 4 4 3 3 2 3 4 4 4 2 3 2 2 4 5 7 7 8
2 2 -2 -10 -9 5 6 6 6 4 -3 -2 -3 -3 4 1 -1 -0 1 2 3 3 4 6 4 5 5 4 3 2 5 4 4 4 4 4 3 1 -1 4 7 7 8 8 8
-1 2 -2 -7 -14 1 5 6 6 4 -2 -2 -2 1 3 -1 -3 -1 1 2 3 4 5 3 5 5 6 4 3 3 3 7 3 4 3 5 3 -1 5 4 7 7 8 8 5
2 -0 -1 -6 -4 -4 2 5 6 5 -1 -1 -0 3 1 -2 -3 -0 1 2 2 3 4 5 3 6 5 5 6 4 6 6 5 4 4 5 5 3 5 7 7 8 7 8 9
0 1 0 -2 0 3 0 2 4 -1 -2 0 2 1 0 -3 0 1 1 2 3 3 4 4 4 6 4 6 9 8 8 4 5 5 5 5 5 2 4 7 7 7 6 8 11
-1 -0 1 0 -5 4 4 2 0 3 3 1 0 -0 -3 -1 -1 1 1 2 2 3 3 4 6 7 6 4 2 4 3 3 0 4 4 4 3 3 4 4 5 5 5 9 9
-1 -1 1 1 -7 1 3 3 2 2 1 0 -2 -1 -2 -1 0 1 0 1 1 3 2 3 5 2 3 2 2 2 4 4 3 3 4 4 4 3 4 4 5 5 6 10 10
-0 0 -0 1 -6 -2 3 4 1 0 2 0 0 -1 -1 -1 -1 1 2 1 1 1 2 2 1 0 1 1 2 3 5 3 4 3 3 4 6 4 5 4 4 6 7 8 9
-0 1 0 1 -7 2 2 2 1 2 5 2 0 -0 -1 1 -0 0 2 2 1 1 2 2 -1 -0 1 2 2 4 3 2 2 3 8 4 6 6 5 5 6 5 9 10 9
-1 1 1 1 -8 1 3 2 1 1 7 1 1 0 1 1 -0 1 1 2 1 1 1 3 2 3 3 2 1 3 2 2 2 3 3 3 4 9 5 6 6 6 8 10 10
0 1 1 1 2 -0 2 2 1 4 6 2 1 0 -0 -1 -2 -0 -0 1 0 -1 -2 -1 -4 -1 2 1 1 0 2 2 2 3 6 2 3 8 6 6 6 5 6 8 10
1 1 1 -0 2 -0 3 2 5 6 -0 3 1 -1 -1 -1 -1 -1 -1 -1 -0 2 3 0 -2 -3 -0 2 1 2 4 6 6 5 5 1 2 3 0 1 5 6 6 6 8
-1 -1 2 2 -0 1 2 3 6 2 2 0 0 -1 -1 -2 -1 -1 -1 -0 -1 -2 2 2 2 -1 -3 0 2 3 5 7 8 8 8 2 6 0 -2 -1 3 4 2 6 6
1 1 1 -1 0 1 2 5 5 3 -1 1 -1 0 1 -2 -0 -0 -3 -1 -1 -1 1 2 -1 -3 -2 -3 1 3 4 3 7 3 4 1 -1 -2 -2 -2 -3 0 1 0 -2
0 1 2 2 2 2 4 5 2 -1 -0 0 -1 -2 0 -0 -0 -2 -4 -1 0 -1 -2 -1 2 -1 -3 -2 -0 2 2 5 5 5 4 1 1 3 1 -0 -2 -2 -1 0 2
2 2 2 2 2 2 4 3 0 -0 0 1 -2 -4 -3 -2 -3 -4 -3 -1 -1 0 -2 -1 0 1 -2 0 1 3 3 2 5 5 7 8 7 -0 -0 -2 -1 -1 0 2 3
1 2 2 2 2 2 4 1 0 0 0 -1 -2 -2 -2 -3 -2 -2 -0 -1 -0 -0 0 -1 -0 2 0 -1 -2 -1 0 3 4 4 5 7 6 -2 -1 -1 -1 -1 -1 -1 1
2 2 2 2 4 4 -0 -1 -0 0 0 -1 -2 -3 -3 -2 -2 -2 -1 -3 -2 -0 0 -1 1 0 1 2 -2 -1 -2 -2 2 4 3 6 6 1 -1 -2 -1 -1 -1 -1 -1
1 2 2 2 3 3 1 0 0 0 -0 -2 -2 -4 -4 -3 -5 -3 -2 -3 -3 -2 -2 -2 2 0 0 -1 -2 -0 -2 -3 1 3 1 4 4 4 0 1 -1 -1 -0 0 0
1 2 2 3 2 2 -0 0 -1 0 -1 -2 -2 -3 -3 -4 -5 -4 -4 -3 -5 -6 -5 -2 -2 -1 -2 -4 -3 -3 -3 -3 -1 -0 0 1 0 1 1 1 0 -0 -0 1 1
0 0 -0 2 1 1 0 0 -0 -1 -3 -1 -1 -2 -4 -4 -5 -3 -5 -5 -6 -6 -3 -2 -0 -2 -2 -3 -1 -3 -5 -5 -3 -1 -0 1 1 1 0 -0 0 1 1 1 1
-2 0 1 1 1 1 1 -0 -1 -2 -4 -5 -3 -3 -3 -4 -6 -7 -6 -5 -4 -2 -3 -2 -1 -1 -0 -1 1 -0 -0 -0 0 -1 1 2 2 2 2 1 1 1 1 1 1

GFSSW_850_dewp_120.txt.gz
Dewpoint
4 3 3 3 3 4 6 7 7 8 8 3 -4 -3 -4 2 -4 -3 -3 -1 0 5 5 0 3 3 5 4 4 3 5 5 3 2 2 -0 1 -1 -2 -1 -1 0 1 0 0
3 3 3 3 2 3 5 6 6 7 7 6 -3 -4 -3 -4 -4 -5 -2 0 3 1 4 1 3 4 5 5 4 4 5 3 1 1 2 1 0 0 3 2 2 1 1 1 1
3 2 2 2 0 -7 2 5 5 7 7 6 -1 -3 -5 -4 -2 -1 -2 2 4 4 2 4 3 5 5 4 4 4 4 2 2 1 1 1 1 2 4 4 2 1 -2 -4 -1
2 2 3 2 -1 -11 -0 6 5 6 7 6 -1 -3 -6 -4 -2 -0 -0 3 5 3 4 4 4 5 5 4 3 5 3 2 1 1 1 1 0 2 4 3 1 1 -1 -1 1
1 1 3 3 2 -4 -9 4 6 5 6 5 4 -3 -5 2 -4 0 -0 2 3 3 3 4 5 5 4 3 3 4 3 3 3 3 2 2 2 2 2 2 3 3 2 1 1
1 1 1 3 2 -1 -10 -1 5 6 6 5 1 -2 -3 1 -0 0 0 2 3 3 4 5 5 5 4 5 5 3 4 4 4 4 3 3 2 4 3 3 3 3 2 0 0
1 1 0 1 3 1 -4 -7 5 6 5 5 -0 -1 -1 -4 0 1 2 1 3 3 3 4 5 4 4 4 4 4 6 4 4 4 4 3 5 5 3 3 3 3 2 -0 -0
1 1 1 -0 1 1 -2 1 1 5 5 2 -2 1 -1 -1 -1 -0 0 0 1 2 3 4 4 4 6 4 5 5 4 5 2 3 4 4 6 2 1 3 3 3 2 2 2
1 0 0 0 0 1 -3 2 -1 3 4 1 1 -1 1 -1 -2 -2 -3 0 2 3 4 4 5 4 6 6 5 4 6 6 5 3 4 5 6 3 2 3 4 4 5 4 4
1 0 -1 1 1 1 -4 2 -1 3 1 1 4 3 0 -1 -1 1 1 2 2 3 4 5 5 5 5 6 7 6 6 5 5 4 5 5 6 4 3 3 3 3 6 8 8
0 1 -2 1 1 1 -3 2 1 3 2 1 1 -0 -1 -2 -2 -2 -0 1 2 3 4 4 5 5 4 5 5 5 6 6 4 5 6 6 5 4 3 3 2 4 7 8 8
-1 0 -3 1 1 1 -2 2 2 2 2 0 0 1 -0 -2 -2 1 1 1 3 4 3 4 5 3 3 3 4 4 6 4 5 5 5 5 5 4 5 2 2 6 6 6 10
1 -1 -0 1 1 -3 2 2 1 0 2 1 1 0 -2 -1 -1 1 1 2 2 2 2 2 2 1 1 1 3 3 4 4 4 2 2 5 5 5 4 6 6 6 7 7 10
1 1 1 1 -0 1 3 2 2 2 4 2 0 0 -1 -1 1 1 1 2 2 2 1 1 1 -0 -0 0 2 4 2 2 3 4 5 3 7 4 3 5 7 6 9 10 10
1 1 -0 -3 -5 2 2 2 2 1 2 2 1 0 0 1 -0 1 0 2 2 1 -1 -5 -0 0 1 1 1 2 1 2 3 4 3 3 8 4 3 6 7 6 7 10 10
1 0 -1 -1 -1 2 2 2 2 1 3 2 -1 1 -0 -1 -1 -1 0 1 -1 0 -1 -1 -2 -2 -0 -1 0 0 2 2 3 4 6 3 8 5 3 7 6 5 6 10 10
-0 -3 -4 -2 -1 2 1 1 0 0 -2 2 1 1 1 -1 -1 -1 -0 -1 0 -1 -1 -1 -2 -3 -2 0 -0 1 2 4 3 3 8 3 5 6 2 6 7 6 5 5 10
-1 -1 0 1 1 1 2 2 2 2 2 0 -0 -0 -0 -1 -1 -1 -1 0 -1 -0 -1 0 -1 -2 -2 -1 1 2 3 5 5 5 7 3 6 5 -0 3 4 5 5 4 7
-2 -1 1 1 0 1 2 3 4 1 1 1 -0 0 0 -2 -1 -1 0 1 0 -0 2 1 0 -2 -2 -2 0 2 3 4 7 7 3 6 3 0 -0 -0 1 4 5 4 4
1 2 1 1 1 1 1 3 2 -0 1 0 -0 -2 1 -1 -1 -3 1 -1 2 0 -1 -1 0 -2 -2 -2 -2 1 1 2 2 3 6 6 6 6 4 1 -0 -0 1 3 4
1 0 0 -0 0 0 1 2 1 -0 0 -1 -1 -1 -2 -2 -2 -1 -0 -1 -2 0 -2 -2 -2 -2 -0 0 -0 -1 0 1 1 3 2 2 7 4 3 1 1 0 -0 1 4
2 1 -0 -0 0 1 -0 1 -0 0 -1 -2 -3 -3 -2 -3 -1 -0 -1 -2 -3 -1 -3 -2 -1 -1 1 -2 -4 -3 -2 0 -0 1 2 1 6 2 1 1 1 1 0 0 3
1 1 1 -0 0 0 -0 0 0 0 -0 -1 -2 -2 -5 -4 -2 -1 -1 -3 -4 -3 -2 -2 -2 -5 -5 -7 -6 -2 -3 -1 -1 -2 2 1 4 0 0 1 1 1 0 -0 -0
-1 0 -0 1 2 2 0 -0 1 -2 -2 -2 -3 -4 -4 -4 -4 -2 -2 -4 -5 -4 -2 -2 -3 -6 -5 -5 -3 -2 -3 -3 -2 -2 -1 0 0 2 2 1 1 1 1 1 1
-1 1 1 -0 1 1 -0 -1 -1 -2 -3 -3 -2 -4 -5 -5 -6 -4 -4 -4 -6 -5 -3 -5 -5 -2 -3 -3 -3 -2 -3 -4 -4 -1 -2 -1 2 2 2 1 1 1 1 1 1
-3 -0 0 0 0 0 -0 -1 -1 -1 -4 -4 -2 -4 -5 -4 -4 -4 -5 -4 -5 -4 -4 -3 -4 -5 -4 -2 -1 -2 -3 -5 -4 -2 -1 0 1 1 1 2 2 1 1 1 1
-0 0 1 -0 -0 -0 -0 -0 -2 -4 -4 -5 -5 -4 -5 -6 -7 -6 -5 -4 -4 -3 -4 -3 -4 -4 -2 -2 -3 -6 -1 -4 0 -1 -0 1 -0 1 1 2 2 2 2 2 2

GFSSW_850_dewp_123.txt.gz
Dewpoint
4 3 2 3 2 2 3 6 6 6 8 7 4 -2 -3 -3 -0 -3 -4 -3 -1 5 2 1 0 3 4 5 4 3 4 4 3 2 1 -0 0 -0 -0 -1 -1 -1 -1 -2 -4
3 4 3 3 1 -2 -6 4 6 6 7 7 6 -0 -3 -5 -6 -7 -6 -3 1 4 4 2 1 4 5 5 4 4 5 3 1 1 1 0 1 1 1 1 1 1 -1 -1 -4
2 2 3 4 3 -1 -9 0 4 5 6 7 6 -0 -3 -6 -6 -2 -3 -2 2 6 2 1 4 5 5 5 5 4 4 2 1 1 1 1 1 1 1 2 2 2 1 0 -1
2 1 1 3 4 1 -5 2 5 4 7 6 5 -1 -5 -6 -5 -1 -0 4 6 5 4 4 4 5 5 5 4 5 4 3 1 1 1 2 1 1 1 1 0 1 0 1 2
2 2 2 2 2 3 -2 -11 5 6 6 6 4 -1 -4 -2 -7 1 3 6 6 5 4 4 5 5 5 4 3 5 3 2 2 3 3 3 3 2 2 1 0 1 2 2 2
1 2 2 2 2 3 -0 -2 -2 5 6 5 5 0 -4 -3 -2 0 1 3 3 4 3 4 4 4 4 5 4 3 4 3 3 4 4 4 4 3 2 2 2 2 2 1 3
1 1 1 -0 1 2 1 -1 -3 6 4 5 4 -1 -2 -3 1 1 2 2 3 3 4 4 5 5 4 4 4 4 5 4 4 4 4 4 5 4 1 1 2 2 2 1 -0
0 -0 -0 1 1 1 0 -2 -4 5 5 4 1 -1 -3 -1 0 2 1 1 2 2 3 3 4 5 4 4 5 5 5 6 2 3 3 3 5 2 2 2 2 2 2 1 2
1 1 1 -0 2 2 -3 2 -3 3 3 2 2 -1 -0 -2 -1 0 -0 -1 0 1 4 4 4 5 4 5 6 3 6 5 5 3 4 5 6 3 2 2 2 2 2 2 2
1 1 1 0 1 2 -3 1 2 3 2 0 2 1 -1 -1 -1 -1 -3 -1 2 3 4 4 5 5 5 6 7 5 6 3 5 4 4 6 6 4 3 4 4 5 3 3 3
-1 1 -2 1 0 1 1 2 1 1 3 1 1 0 -1 -2 -2 -0 1 1 2 3 5 4 6 5 4 5 5 5 6 5 4 3 5 6 5 5 4 5 4 3 3 4 7
1 -1 -0 0 1 -3 2 1 2 -0 1 0 0 -0 -1 -2 -1 1 0 1 2 4 3 5 6 3 2 3 4 5 5 5 3 3 2 3 5 4 4 5 7 7 8 7 6
1 0 0 1 -2 2 2 2 1 1 1 1 1 -0 -1 -1 -1 1 2 2 2 3 3 4 1 0 -0 -1 2 2 3 3 3 2 1 3 4 4 2 4 5 5 6 9 8
-1 0 -0 -0 1 2 1 2 1 2 1 2 0 -0 -0 -1 0 1 1 1 2 2 1 1 1 -0 -1 -0 1 3 1 2 2 3 4 2 7 5 3 5 5 4 5 7 10
-2 -7 -5 -2 2 -0 -0 2 2 1 1 -0 0 -0 -1 1 0 -0 0 1 3 2 -1 -3 -1 -0 0 -0 -0 2 0 2 2 4 4 3 7 4 4 6 6 5 6 7 11
-3 -2 -2 -1 0 0 1 1 1 -3 3 1 -1 1 -0 -1 -1 -1 -1 1 0 -0 -2 -1 -2 -2 -2 -2 -1 0 2 2 2 3 5 4 6 4 5 4 5 5 6 7 10
-3 -3 -2 0 1 0 1 1 -1 2 -2 1 1 1 1 -1 -1 -1 -2 -0 1 -1 -2 -2 -2 -3 -3 0 -0 1 2 2 2 6 7 3 4 6 2 1 3 5 5 6 7
0 1 0 1 1 1 1 -1 1 1 1 -0 -0 -1 -1 -1 -1 -1 -2 1 -0 -1 -1 0 -1 -2 -2 -1 1 2 5 2 4 7 6 3 6 5 2 -0 1 3 4 6 6
1 1 1 1 1 1 1 2 1 1 1 1 -1 0 -1 -2 -1 -2 -0 0 0 0 3 1 0 -3 -3 -2 -0 2 4 4 5 3 2 5 4 1 2 1 0 0 2 5 6
-0 1 0 0 1 1 0 3 2 -0 0 -1 -1 -2 0 -1 -2 -1 -0 -1 0 -0 -1 -2 0 -3 -1 -3 -4 -1 -0 1 0 0 4 4 5 5 4 2 1 1 1 2 5
-2 -1 -1 -1 -1 -1 0 1 1 -0 0 -2 -2 -2 -2 -2 -2 -1 -2 -2 -3 -1 -2 -2 -3 -3 -2 -1 -0 -2 -0 1 1 3 -0 1 6 5 3 2 2 1 0 0 2
-2 -0 -1 -2 -1 -1 -1 0 -0 -0 -1 -3 -3 -3 -2 -3 -1 -1 -2 -2 -3 -2 -3 -2 -2 -1 1 -1 -5 -4 -2 -0 1 1 2 -1 5 3 0 1 1 1 1 1 1
-2 -2 -1 -2 1 -0 -1 -0 -0 -0 -1 -2 -2 -3 -6 -4 -4 -1 -2 -4 -4 -3 -1 -2 -4 -6 -8 -8 -6 -3 -3 -2 -3 -3 2 -0 4 1 1 1 1 1 1 1 1
-2 -1 -3 -0 1 1 1 -1 -0 -3 -2 -3 -5 -5 -5 -5 -5 -3 -2 -4 -6 -5 -1 -3 -3 -6 -7 -6 -4 -1 -2 -4 -3 -3 -2 -0 -0 2 2 2 1 1 1 1 1
-2 0 0 0 0 -0 -1 -1 -1 -2 -4 -4 -3 -4 -4 -6 -6 -4 -5 -5 -7 -4 -4 -7 -6 -3 -3 -3 -2 -2 -2 -4 -4 -1 -3 -1 1 2 2 1 1 1 1 1 1
-3 -1 -0 -0 0 -1 -1 -0 -2 -2 -4 -4 -3 -4 -5 -5 -5 -6 -5 -4 -6 -5 -5 -5 -4 -5 -6 -2 -1 -0 -3 -4 -4 -2 -1 -0 0 1 1 1 1 2 2 2 2
-2 -1 -0 -1 -1 -1 -0 -0 -2 -4 -5 -5 -5 -4 -6 -6 -7 -5 -5 -4 -4 -3 -5 -4 -5 -4 -5 -3 -5 -10 -4 -4 -1 -1 -1 1 -2 1 1 2 2 2 2 2 2